Date StartTime U_cm/s V_cm/s W_cm/s Ustd_cm/s Vstd_cm/s Wstd_cm/s Uvar_(cm/s)^2 Vvar_(cm/s)^2 Wvar_(cm/s)^2 KE_(m/s)^2 TurbulentKE_(m/s)^2 HorizWindSpeed_cm/s FrictionSpeec_cm/s DragCoef SpeedOfSound_m/s SonicTemperature_C Pressure_mb 
05/28/2014  00:00:00     -507.255      -94.559      -25.604      235.077      198.154      104.098    55260.979    39264.858    10836.491       18.611        5.268      515.994      111.774        0.047      342.018       17.131      860.381
05/28/2014  00:01:00     -594.741     -116.484      -12.631      254.560      184.953      107.361    64800.550    34207.671    11526.342       23.897        5.527      606.041      120.094        0.039      342.042       17.171      860.372
05/28/2014  00:02:00     -702.019      -72.822      -32.465      232.049      167.856       98.974    53846.709    28175.643     9795.783       29.548        4.591      705.785      111.868        0.025      342.048       17.182      860.349
05/28/2014  00:03:00     -504.411     -101.940      -17.729      171.577      138.333       84.995    29438.496    19135.998     7224.212       16.046        2.790      514.608       70.761        0.019      342.022       17.137      860.357
05/28/2014  00:04:00     -594.966      -74.485      -25.955      280.913      171.214       94.927    78912.081    29314.174     9011.058       23.870        5.862      599.610      105.481        0.031      342.067       17.214      860.367
05/28/2014  00:05:00     -755.185     -119.526      -31.529      243.867      207.898      101.261    59471.046    43221.566    10253.826       34.924        5.647      764.585      110.327        0.021      342.147       17.350      860.396
05/28/2014  00:06:00     -580.488      -42.169      -26.039      234.873      159.761       96.324    55165.453    25523.683     9278.342       21.468        4.498      582.017      108.126        0.035      342.102       17.274      860.404
05/28/2014  00:07:00     -596.279     -114.042      -29.345      197.041      171.949       99.756    38825.181    29566.312     9951.180       22.386        3.917      607.087       92.463        0.023      342.093       17.261      860.389
05/28/2014  00:08:00     -439.949      -90.967       -1.600      222.996      157.991       92.683    49727.288    24961.131     8590.083       14.254        4.164      449.255      114.026        0.064      342.010       17.117      860.387
05/28/2014  00:09:00     -498.315     -116.566      -21.812      172.561      155.601       86.737    29777.130    24211.749     7523.278       16.193        3.076      511.767       93.828        0.034      341.990       17.083      860.358
05/28/2014  00:10:00     -569.620      -74.193      -13.713      298.979      214.338      113.507    89388.206    45940.870    12883.761       23.916        7.411      574.431      136.890        0.057      342.119       17.303      860.359
05/28/2014  00:11:00     -560.306     -109.987      -11.167      231.352      177.250      106.438    53523.687    31417.472    11329.074       21.120        4.814      571.000      115.450        0.041      342.139       17.338      860.372
05/28/2014  00:12:00     -543.884     -126.212       -1.996      254.492      217.628      108.790    64766.130    47362.047    11835.236       21.783        6.198      558.336      127.423        0.052      342.093       17.259      860.332
05/28/2014  00:13:00     -597.473     -151.014       -9.451      252.351      177.918       98.653    63680.839    31654.736     9732.398       24.245        5.253      616.263      113.311        0.034      342.089       17.252      860.311
05/28/2014  00:14:00     -670.132     -171.927      -46.169      178.638      189.241       86.993    31911.617    35812.163     7567.724       27.801        3.765      691.835       79.794        0.013      342.103       17.276      860.288
05/28/2014  00:15:00     -615.832     -202.874      -22.187      172.614      138.655       86.390    29795.471    19225.092     7463.171       23.868        2.824      648.388       80.780        0.016      342.054       17.192      860.290
05/28/2014  00:16:00     -497.160      -94.176        1.884      209.221      153.374       89.296    43773.240    23523.492     7973.800       16.564        3.764      506.001      107.579        0.045      342.044       17.173      860.288
05/28/2014  00:17:00     -418.721      -85.368      -22.061      206.176      166.610       88.025    42508.472    27759.002     7748.436       13.054        3.901      427.335       99.613        0.054      341.995       17.090      860.249
05/28/2014  00:18:00     -543.780     -140.434      -13.357      229.705      174.163       94.629    52764.515    30332.808     8954.579       20.381        4.603      561.622       96.083        0.029      342.070       17.220      860.245
05/28/2014  00:19:00     -439.397     -126.422       -8.851      228.943      174.435       94.174    52415.108    30427.736     8868.788       15.040        4.586      457.222      103.620        0.051      342.064       17.210      860.253
05/28/2014  00:20:00     -475.275      -65.469      -28.164      205.316      166.909       88.972    42154.739    27858.580     7915.996       15.443        3.896      479.763       94.907        0.039      342.061       17.205      860.264
05/28/2014  00:21:00     -437.984      -73.271      -25.444      162.622      175.313       86.573    26446.021    30734.484     7494.830       13.125        3.234      444.071       85.223        0.037      342.013       17.121      860.246
05/28/2014  00:22:00     -396.692     -112.868        3.821      196.667      148.785       82.255    38678.013    22136.957     6765.831       11.884        3.379      412.437       90.464        0.048      341.937       16.995      860.264
05/28/2014  00:23:00     -457.047      -26.790      -21.677      220.715      123.339       90.802    48715.198    15212.418     8244.989       14.111        3.609      457.832      107.632        0.055      341.968       17.045      860.297
05/28/2014  00:24:00     -431.176     -100.544      -29.173      170.258      153.290       74.760    28987.794    23497.909     5589.029       12.746        2.904      442.743       74.770        0.029      341.965       17.040      860.260
05/28/2014  00:25:00     -530.578     -138.441      -15.902      221.039      182.474       97.974    48858.092    33296.899     9598.904       19.632        4.588      548.342      102.684        0.035      341.987       17.078      860.196
05/28/2014  00:26:00     -600.195     -152.006      -19.595      216.008      192.078       91.902    46659.638    36893.866     8445.918       23.784        4.600      619.145       99.001        0.026      341.984       17.073      860.189
05/28/2014  00:27:00     -435.325      -96.489        1.250      216.789      179.432       95.504    46997.622    32195.780     9121.030       14.355        4.416      445.890      115.972        0.068      341.943       17.003      860.207
05/28/2014  00:28:00     -521.700      -96.041      -18.413      232.051      155.813       79.886    53847.780    24277.593     6381.760       18.310        4.225      530.467       99.299        0.035      341.928       16.977      860.210
05/28/2014  00:29:00     -516.680     -123.079      -16.571      197.843      168.683       80.134    39141.989    28454.101     6421.504       17.818        3.701      531.137       82.184        0.024      341.973       17.054      860.204
05/28/2014  00:30:00     -503.109      -12.923      -25.684      217.448      167.599      104.522    47283.736    28089.292    10924.924       17.010        4.315      503.275      117.126        0.054      342.014       17.124      860.202
05/28/2014  00:31:00     -522.554      -43.647      -31.434      170.720      173.909       94.397    29145.434    30244.177     8910.749       17.211        3.415      524.374       86.066        0.027      341.985       17.074      860.162
05/28/2014  00:32:00     -548.395      -93.315      -23.112      252.214      189.752      101.521    63611.881    36005.912    10306.598       20.993        5.496      556.278      116.122        0.044      341.990       17.083      860.175
05/28/2014  00:33:00     -621.573      -93.247      -28.585      214.977      176.621       94.165    46214.935    31194.972     8867.029       24.105        4.314      628.528       91.117        0.021      341.936       16.991      860.158
05/28/2014  00:34:00     -466.457     -126.684       -6.126      219.709      184.762       98.336    48271.847    34137.170     9669.943       16.286        4.604      483.354      107.497        0.049      341.917       16.960      860.171
05/28/2014  00:35:00     -540.861     -144.725      -37.880      175.269      184.524       87.618    30719.313    34049.162     7676.977       19.366        3.622      559.890       79.096        0.020      341.929       16.980      860.151
05/28/2014  00:36:00     -549.279     -169.799      -33.182      180.836      185.915       80.125    32701.722    34564.563     6419.960       20.265        3.684      574.925       78.859        0.019      341.915       16.955      860.137
05/28/2014  00:37:00     -615.013     -116.734      -18.227      188.830      198.784       90.631    35656.853    39515.070     8213.953       23.778        4.169      625.994       75.697        0.015      341.969       17.049      860.113
05/28/2014  00:38:00     -563.877     -119.722      -12.107      224.161      133.545       82.568    50248.282    17834.201     6817.542       20.365        3.745      576.447       87.705        0.023      341.901       16.933      860.089
05/28/2014  00:39:00     -586.843     -128.841      -36.068      239.235      184.434      102.084    57233.213    34015.768    10421.086       23.196        5.084      600.820      107.848        0.032      341.911       16.949      860.058
05/28/2014  00:40:00     -492.460     -152.305      -10.015      246.646      177.267      103.257    60834.304    31423.743    10661.988       18.435        5.146      515.474      113.869        0.049      341.914       16.955      860.068
05/28/2014  00:41:00     -553.260     -136.045        3.265      205.149      176.126       98.159    42085.918    31020.209     9635.263       20.366        4.137      569.741      101.179        0.032      341.877       16.890      860.087
05/28/2014  00:42:00     -545.261     -125.064      -25.207      191.005      153.621       91.399    36482.726    23599.259     8353.804       19.100        3.422      559.420       89.674        0.026      341.856       16.855      860.102
05/28/2014  00:43:00     -442.405      -89.880      -23.101      224.316      179.199      100.818    50317.639    32112.423    10164.234       14.845        4.630      451.443      108.910        0.058      341.842       16.832      860.116
05/28/2014  00:44:00     -501.195      -72.622      -28.062      228.927      173.084       80.717    52407.715    29958.072     6515.165       17.305        4.444      506.429       88.548        0.031      341.818       16.791      860.080
05/28/2014  00:45:00     -571.008     -109.208      -32.657      203.740      206.349      107.805    41510.051    42579.709    11621.900       21.736        4.786      581.358       99.389        0.029      341.853       16.851      860.095
05/28/2014  00:46:00     -412.250      -33.463      -13.184      198.504      148.956       84.920    39403.730    22187.924     7211.367       12.001        3.440      413.606       87.408        0.045      341.818       16.793      860.096
05/28/2014  00:47:00     -596.190     -143.884      -14.231      245.683      195.414      100.529    60359.896    38186.601    10105.980       24.248        5.433      613.306      112.847        0.034      341.866       16.872      860.103
05/28/2014  00:48:00     -620.528     -107.092      -46.025      234.019      163.666      102.179    54764.916    26786.535    10440.456       24.530        4.600      629.701      104.273        0.027      341.883       16.902      860.104
05/28/2014  00:49:00     -630.007      -92.151      -22.966      225.909      186.489      102.398    51034.679    34778.271    10485.336       25.109        4.815      636.711      110.936        0.030      341.874       16.886      860.109
05/28/2014  00:50:00     -570.729     -155.011      -25.321      179.764      161.507       96.699    32315.014    26084.576     9350.765       20.906        3.388      591.405       91.160        0.024      341.837       16.823      860.095
05/28/2014  00:51:00     -646.586     -126.428      -23.706      216.763      185.376       99.581    46986.143    34364.359     9916.384       26.293        4.563      658.831      107.021        0.026      341.860       16.861      860.105
05/28/2014  00:52:00     -493.795      -93.898      -12.358      221.281      142.054       80.035    48965.352    20179.398     6405.642       16.416        3.778      502.643      105.949        0.044      341.839       16.826      860.162
05/28/2014  00:53:00     -523.850      -71.284      -36.449      271.466      138.865       79.437    73693.771    19283.497     6310.172       19.004        4.964      528.678      106.277        0.040      341.864       16.869      860.211
05/28/2014  00:54:00     -351.099      -65.558      -11.109      151.907      140.935       79.203    23075.883    19862.568     6273.079        8.844        2.461      357.167       76.100        0.045      341.893       16.919      860.231
05/28/2014  00:55:00     -454.033     -119.572      -27.945      161.983      185.700       83.470    26238.364    34484.533     6967.313       14.444        3.385      469.514       93.373        0.040      341.902       16.934      860.224
05/28/2014  00:56:00     -446.030      -52.465      -24.880      240.542      124.144       79.227    57860.685    15411.680     6276.935       14.092        3.977      449.105      103.257        0.053      341.839       16.827      860.143
05/28/2014  00:57:00     -710.674     -175.448      -55.891      311.825      234.810      124.899    97235.121    55135.648    15599.655       35.343        8.399      732.010      148.275        0.041      342.107       17.281      860.017
05/28/2014  00:58:00     -810.797      -11.535      -73.069      209.611      182.774      101.759    43936.808    33406.391    10354.911       37.526        4.385      810.879       89.868        0.012      342.178       17.403      860.021
05/28/2014  00:59:00     -636.083      -77.960      -66.484      181.439      195.451       93.168    32920.093    38201.091     8680.361       24.743        3.990      640.843       79.374        0.015      342.065       17.210      860.103
05/28/2014  01:00:00     -486.002     -103.436      -11.075      223.762      156.037      104.223    50069.632    24347.593    10862.517       16.613        4.264      496.887      113.214        0.052      341.984       17.075      860.157
05/28/2014  01:01:00     -538.354      -53.881      -35.647      203.181      201.081       85.928    41282.677    40433.450     7383.618       19.153        4.455      541.044       90.391        0.028      341.894       16.920      860.148
05/28/2014  01:02:00     -525.302     -126.575      -16.261      222.264      174.090       97.293    49401.279    30307.445     9465.852       19.068        4.459      540.337       96.243        0.032      341.856       16.856      860.093
05/28/2014  01:03:00     -590.119      -98.832      -25.607      213.734      181.685      114.274    45682.376    33009.582    13058.479       22.519        4.588      598.338      108.325        0.033      341.924       16.972      860.056
05/28/2014  01:04:00     -536.167     -186.147      -39.898      210.175      157.031       91.726    44173.337    24658.880     8413.713       20.047        3.862      567.561       76.527        0.018      341.910       16.947      860.048
05/28/2014  01:05:00     -519.648     -109.810      -10.954      258.892      212.764      104.044    67025.074    45268.596    10825.256       20.264        6.156      531.123      122.529        0.053      341.833       16.816      860.100
05/28/2014  01:06:00     -477.063      -95.413      -11.886      229.799      180.232       96.541    52807.688    32483.703     9320.076       16.570        4.731      486.511      110.859        0.052      341.801       16.760      860.137
05/28/2014  01:07:00     -479.040     -136.859      -19.311      190.373      168.060       98.894    36242.058    28244.296     9780.078       16.141        3.713      498.207       93.387        0.035      341.805       16.767      860.130
05/28/2014  01:08:00     -482.157      -54.294      -13.468      200.875      149.253       94.440    40350.758    22276.398     8918.929       15.356        3.577      485.204      101.495        0.044      341.784       16.733      860.146
05/28/2014  01:09:00     -422.713      -98.185        1.399      182.618      157.954       81.055    33349.478    24949.509     6569.945       12.659        3.243      433.966       93.829        0.047      341.758       16.689      860.132
05/28/2014  01:10:00     -435.238      -55.163      -26.726      166.320      154.041       79.835    27662.203    23728.498     6373.704       12.547        2.888      438.720       79.954        0.033      341.753       16.681      860.096
05/28/2014  01:11:00     -555.224     -166.738      -20.094      192.627      162.947       98.629    37105.302    26551.801     9727.676       20.492        3.669      579.720       88.388        0.023      341.805       16.770      860.062
05/28/2014  01:12:00     -446.739     -123.144      -15.289      254.782      136.657       82.749    64913.708    18675.257     6847.468       15.269        4.522      463.401       97.721        0.044      341.846       16.838      860.090
05/28/2014  01:13:00     -463.014      -73.492      -19.165      187.872      139.492       77.394    35295.707    19457.899     5989.771       14.043        3.037      468.810       82.276        0.031      341.841       16.829      860.116
05/28/2014  01:14:00     -366.736     -112.969       -4.233      147.722      133.959       80.023    21821.714    17945.109     6403.664        9.671        2.309      383.741       77.840        0.041      341.780       16.727      860.096
05/28/2014  01:15:00     -535.998      -56.012      -20.078      285.700      164.701       98.163    81624.488    27126.374     9635.910       20.459        5.919      538.916      122.297        0.051      341.825       16.801      860.065
05/28/2014  01:16:00     -317.959      -84.900       -8.190      177.405      161.885       74.737    31472.492    26206.617     5585.564        8.581        3.163      329.099       55.090        0.028      341.852       16.849      860.133
05/28/2014  01:17:00     -425.125      -75.077       -8.999      172.007      179.886       82.186    29586.307    32358.827     6754.527       12.756        3.435      431.704       72.123        0.028      341.892       16.916      860.191
05/28/2014  01:18:00     -457.130      -55.223      -21.153      220.196      148.910       86.641    48486.313    22174.093     7506.612       14.530        3.908      460.453      101.265        0.048      341.853       16.850      860.235
05/28/2014  01:19:00     -459.499      -80.915        0.036      246.819      175.630       99.512    60919.813    30845.740     9902.540       15.966        5.083      466.569      123.582        0.070      341.803       16.765      860.239
05/28/2014  01:20:00     -459.074      -57.635      -21.433      191.257      147.378       94.004    36579.311    21720.156     8836.839       14.082        3.357      462.678      101.988        0.049      341.787       16.738      860.225
05/28/2014  01:21:00     -386.433     -172.942      -18.251      195.334      158.832       86.102    38155.399    25227.551     7413.504       12.517        3.540      423.367       88.765        0.044      341.739       16.656      860.207
05/28/2014  01:22:00     -416.827     -120.028       -7.075      210.863      111.008       82.169    44463.009    12322.812     6751.805       12.586        3.177      433.765      102.543        0.056      341.680       16.558      860.177
05/28/2014  01:23:00     -558.031     -118.998       -4.137      244.788      168.969       94.746    59921.188    28550.458     8976.741       21.149        4.872      570.578      104.313        0.033      341.665       16.534      860.188
05/28/2014  01:24:00     -509.881      -85.973      -21.555      225.449      172.187       94.945    50827.166    29648.238     9014.497       17.864        4.474      517.079       80.978        0.025      341.664       16.532      860.208
05/28/2014  01:25:00     -467.045      -33.746      -11.153      256.829      157.657       93.406    65961.204    24855.698     8724.698       15.945        4.977      468.262      104.756        0.050      341.676       16.551      860.222
05/28/2014  01:26:00     -590.226      -97.447      -37.576      171.895      178.578       94.561    29547.940    31890.136     8941.822       21.481        3.519      598.216       87.628        0.021      341.709       16.606      860.180
05/28/2014  01:27:00     -602.510     -137.736      -21.238      173.565      135.939       88.729    30124.980    18479.460     7872.918       21.945        2.824      618.053       89.973        0.021      341.671       16.542      860.171
05/28/2014  01:28:00     -436.313      -28.783      -11.038      245.513      159.244       87.930    60276.623    25358.556     7731.707       14.232        4.668      437.261      106.184        0.059      341.651       16.510      860.145
05/28/2014  01:29:00     -503.209      -50.901      -30.995      178.056      121.920       77.723    31703.831    14864.532     6040.827       15.468        2.630      505.777       86.192        0.029      341.674       16.547      860.196
05/28/2014  01:30:00     -526.626     -119.857      -28.590      203.361      132.165       81.420    41355.540    17467.648     6629.231       17.897        3.273      540.093       84.725        0.025      341.678       16.555      860.252
05/28/2014  01:31:00     -272.956     -184.723       -8.200      196.057      140.264       81.918    38438.445    19673.954     6710.562        8.675        3.241      329.587       87.062        0.070      341.703       16.596      860.320
05/28/2014  01:32:00     -376.722     -206.115       -2.889      209.344      148.248       79.760    43824.802    21977.617     6361.586       12.827        3.608      429.422       88.639        0.043      341.682       16.564      860.349
05/28/2014  01:33:00     -456.129     -200.860      -19.833      188.463      164.510       74.546    35518.334    27063.539     5557.113       15.845        3.407      498.396       75.337        0.023      341.779       16.725      860.314
05/28/2014  01:34:00     -486.441     -158.703      -31.510      242.960      199.527       90.615    59029.330    39810.841     8211.161       18.491        5.353      511.675       83.298        0.027      341.749       16.674      860.280
05/28/2014  01:35:00     -487.442     -127.840      -11.756      210.322      184.081      101.948    44235.185    33885.722    10393.423       17.128        4.426      503.927      115.214        0.052      341.655       16.516      860.259
05/28/2014  01:36:00     -384.021     -106.238       -3.804      204.743      176.430       72.362    41919.594    31127.514     5236.292       11.851        3.914      398.446       87.267        0.048      341.575       16.379      860.255
05/28/2014  01:37:00     -516.643      -83.337      -14.187      225.457      177.428       96.423    50831.067    31480.671     9297.462       18.282        4.580      523.322       98.334        0.035      341.574       16.378      860.266
05/28/2014  01:38:00     -570.761     -131.512      -59.326      210.768      162.595       91.102    44423.296    26437.155     8299.535       21.286        3.958      585.717       96.460        0.027      341.636       16.484      860.150
05/28/2014  01:39:00     -541.904     -135.769      -41.559      206.393      167.799      101.293    42598.208    28156.629    10260.294       19.740        4.051      558.653      113.760        0.041      341.592       16.408      860.142
05/28/2014  01:40:00     -421.457     -129.566       -0.819      177.703      134.702       82.388    31578.505    18144.542     6787.837       12.545        2.826      440.924       85.229        0.037      341.508       16.264      860.198
05/28/2014  01:41:00     -434.672     -132.384       -1.122      185.441      142.792       85.807    34388.211    20389.437     7362.899       13.429        3.107      454.384       91.853        0.041      341.437       16.145      860.202
05/28/2014  01:42:00     -498.577      -97.406      -25.324      243.349      152.387       88.889    59218.617    23221.947     7901.240       17.451        4.517      508.003      100.269        0.039      341.427       16.128      860.191
05/28/2014  01:43:00     -608.053     -101.119      -48.561      212.088      150.904       97.810    44981.350    22771.876     9566.837       22.980        3.866      616.404      104.482        0.029      341.427       16.129      860.197
05/28/2014  01:44:00     -493.658     -145.068      -19.937      160.386      170.062       80.075    25723.551    28921.134     6411.975       16.309        3.053      514.531       76.825        0.022      341.395       16.075      860.234
05/28/2014  01:45:00     -326.171     -142.788      -11.681      154.735      156.157       79.797    23942.809    24385.043     6367.620        9.079        2.735      356.056       82.668        0.054      341.353       16.004      860.331
05/28/2014  01:46:00     -184.341     -131.980       12.932      167.094      118.892       85.054    27920.502    14135.213     7234.142        5.042        2.464      226.717       96.655        0.182      341.350       15.999      860.316
05/28/2014  01:47:00     -293.805     -147.601        5.327      155.020      114.953       67.725    24031.162    13214.293     4586.611        7.498        2.092      328.797       77.416        0.055      341.349       15.998      860.320
05/28/2014  01:48:00     -401.207     -232.172      -16.645      225.273      157.459       84.961    50748.021    24793.232     7218.289       14.894        4.138      463.542       87.096        0.035      341.413       16.104      860.362
05/28/2014  01:49:00     -507.462     -183.073      -21.211      246.523      211.696       96.434    60773.433    44814.993     9299.575       20.316        5.744      539.475      114.123        0.045      341.472       16.204      860.343
05/28/2014  01:50:00     -603.002     -152.412      -40.561      213.922      180.049       92.591    45762.469    32417.695     8573.059       23.760        4.338      621.965       99.664        0.026      341.487       16.229      860.249
05/28/2014  01:51:00     -650.793     -106.114      -31.703      203.545      137.174      102.980    41430.582    18816.608    10604.843       25.331        3.543      659.387      104.991        0.025      341.485       16.227      860.255
05/28/2014  01:52:00     -606.532     -144.214      -12.425      246.023      168.108      111.839    60527.497    28260.360    12507.928       24.504        5.065      623.441      132.451        0.045      341.463       16.189      860.273
05/28/2014  01:53:00     -507.380      -59.529      -11.345      214.379      166.155      100.402    45958.326    27607.511    10080.653       17.236        4.182      510.860      110.230        0.047      341.462       16.188      860.287
05/28/2014  01:54:00     -567.439     -154.320      -10.145      232.818      159.782       94.116    54204.324    25530.360     8857.828       21.723        4.430      588.049      105.753        0.032      341.504       16.260      860.250
05/28/2014  01:55:00     -453.289      -96.444      -34.398      146.810      118.886       65.014    21553.108    14133.971     4226.844       12.793        1.996      463.436       68.074        0.022      341.483       16.223      860.292
05/28/2014  01:56:00     -524.569     -116.244      -20.139      170.355      160.543       75.689    29020.980    25774.072     5728.833       17.480        3.026      537.295       80.150        0.022      341.534       16.310      860.173
05/28/2014  01:57:00     -351.780     -126.618      -15.517      189.433      134.347       71.158    35884.765    18049.061     5063.508        9.950        2.950      373.874       76.902        0.042      341.392       16.069      860.290
05/28/2014  01:58:00     -361.020     -266.414       -2.710      156.461      129.262       78.024    24479.922    16708.630     6087.693       12.429        2.364      448.678       84.968        0.036      341.375       16.041      860.378
05/28/2014  01:59:00     -342.248     -158.905      -15.106      121.964      100.351       50.910    14875.321    10070.355     2591.839        8.507        1.377      377.339       52.906        0.020      341.476       16.212      860.400
05/28/2014  02:00:00     -257.188     -102.227       14.822      153.325      115.208       69.552    23508.495    13272.904     4837.437        5.921        2.081      276.760       76.213        0.076      341.411       16.102      860.360
05/28/2014  02:01:00     -371.611     -118.498      -15.779      141.225      145.603       70.619    19944.549    21200.344     4987.043        9.925        2.307      390.047       55.285        0.020      341.393       16.072      860.356
05/28/2014  02:02:00     -389.250      -49.227       -2.713      174.122      117.123       65.557    30318.587    13717.874     4297.750       10.113        2.417      392.350       73.025        0.035      341.370       16.032      860.358
05/28/2014  02:03:00     -262.531     -147.469       -9.416      160.024      112.106       73.732    25607.635    12567.749     5436.342        6.718        2.181      301.114       83.338        0.077      341.370       16.032      860.369
05/28/2014  02:04:00     -468.325     -142.166        7.550      211.246      189.637       83.677    44624.793    35962.345     7001.922       16.358        4.379      489.428       79.733        0.027      341.403       16.087      860.323
05/28/2014  02:05:00     -552.244     -163.797      -23.702      195.963      166.560       81.405    38401.401    27742.230     6626.834       20.255        3.639      576.023       90.005        0.024      341.495       16.244      860.250
05/28/2014  02:06:00     -264.132     -116.705       10.146      186.371      127.740       84.273    34734.103    16317.452     7101.920        7.081        2.908      288.766       96.422        0.111      341.323       15.952      860.343
05/28/2014  02:07:00     -284.031     -164.476        1.230      135.063       91.651       68.154    18242.027     8399.994     4644.911        6.950        1.564      328.216       63.145        0.037      341.338       15.977      860.394
05/28/2014  02:08:00     -305.891     -152.973       -8.457      148.892      153.987       74.830    22168.755    23711.986     5599.518        8.425        2.574      342.009       87.478        0.065      341.286       15.891      860.403
05/28/2014  02:09:00     -258.307     -159.166       -8.385      133.226      114.618       63.856    17749.277    13137.198     4077.581        6.354        1.748      303.408       69.374        0.052      341.287       15.892      860.413
05/28/2014  02:10:00     -283.583      -58.440      -14.121      110.711      134.385       70.750    12257.021    18059.243     5005.582        5.967        1.766      289.542       54.271        0.035      341.256       15.840      860.329
05/28/2014  02:11:00     -327.954     -111.848       -4.830      165.398       95.261       58.207    27356.342     9074.593     3388.059        7.995        1.991      346.503       59.120        0.029      341.212       15.764      860.288
05/28/2014  02:12:00     -132.280      -20.171        2.143      130.238       68.060       48.222    16961.981     4632.227     2325.406        2.091        1.196      133.809       52.642        0.155      341.267       15.858      860.356
05/28/2014  02:13:00     -323.497      -27.850       -4.724      116.968      114.826       58.171    13681.438    13184.928     3383.845        6.784        1.513      324.693       59.700        0.034      341.353       16.003      860.315
05/28/2014  02:14:00     -323.735     -144.458      -10.351      109.041      104.805       51.492    11889.995    10984.076     2651.410        7.565        1.276      354.503       52.465        0.022      341.404       16.089      860.344
05/28/2014  02:15:00     -321.364      -74.421       -9.755      128.958      126.936       58.071    16630.216    16112.832     3372.268        7.250        1.806      329.869       50.994        0.024      341.417       16.111      860.328
05/28/2014  02:16:00     -457.574     -126.981      -12.710      147.475      134.301       76.094    21749.019    18036.696     5790.282       13.561        2.279      474.867       80.868        0.029      341.323       15.953      860.250
05/28/2014  02:17:00     -475.799      -54.752      -31.093      154.347      121.530       71.849    23822.887    14769.553     5162.331       13.704        2.188      478.939       76.957        0.026      341.240       15.812      860.257
05/28/2014  02:18:00     -458.843     -103.376      -20.458      167.151      113.608       70.688    27939.576    12906.828     4996.823       13.373        2.292      470.344       82.701        0.031      341.192       15.732      860.220
05/28/2014  02:19:00     -343.171     -116.856        1.922      137.405      103.616       63.001    18880.214    10736.295     3969.068        8.250        1.679      362.521       58.725        0.026      341.221       15.781      860.190
05/28/2014  02:20:00     -379.094      -64.348       -2.820      158.807      136.459       76.365    25219.716    18621.010     5831.688        9.876        2.484      384.517       86.314        0.050      341.275       15.871      860.161
05/28/2014  02:21:00     -480.656      -93.051      -18.179      163.151      157.276       88.444    26618.201    24735.638     7822.350       14.959        2.959      489.580       95.312        0.038      341.279       15.878      860.082
05/28/2014  02:22:00     -446.223     -153.427      -16.860      182.166      122.607       69.805    33184.452    15032.421     4872.763       13.800        2.654      471.863       73.044        0.024      341.367       16.028      860.099
05/28/2014  02:23:00     -394.909      -81.856        5.452      159.707      106.042       69.564    25506.430    11244.865     4839.211       10.213        2.080      403.304       77.636        0.037      341.267       15.858      860.117
05/28/2014  02:24:00     -374.026      -92.834      -10.291      169.496      126.353       66.550    28729.021    15964.980     4428.957        9.886        2.456      385.375       78.411        0.041      341.240       15.812      860.051
05/28/2014  02:25:00     -410.729     -113.073       -1.228      167.594      124.458       87.815    28087.599    15489.672     7711.425       11.638        2.564      426.009       90.379        0.045      341.363       16.020      860.011
05/28/2014  02:26:00     -501.667     -254.296      -13.174      207.705      173.330       99.776    43141.348    30043.159     9955.262       19.981        4.157      562.438      103.468        0.034      341.429       16.133      860.022
05/28/2014  02:27:00     -399.025     -169.457       -7.153      200.307      219.972      104.065    40122.968    48387.534    10829.509       14.364        4.967      433.517      112.143        0.067      341.770       16.710      859.980
05/28/2014  02:28:00     -482.220      -49.193      -50.753      186.038      127.276       68.953    34610.023    16199.127     4754.492       14.654        2.778      484.722       76.644        0.025      341.413       16.104      860.061
05/28/2014  02:29:00     -244.300      -96.876       -8.769      148.915      100.270       54.707    22175.593    10054.104     2992.832        5.218        1.761      262.807       57.963        0.049      341.384       16.055      860.141
05/28/2014  02:30:00     -400.178      -45.405      -25.880      220.345      109.898       89.651    48552.076    12077.533     8037.262       11.576        3.433      402.746      115.197        0.082      341.291       15.898      860.152
05/28/2014  02:31:00     -309.480     -115.049       -8.109      157.042      124.312       68.695    24662.243    15453.510     4718.946        7.695        2.242      330.173       71.224        0.047      341.243       15.817      860.153
05/28/2014  02:32:00     -319.006      -71.912       -2.262      195.219      107.896       73.811    38110.585    11641.553     5448.052        8.106        2.760      327.011       86.977        0.071      341.540       16.320      860.120
05/28/2014  02:33:00     -291.829      -75.571       -0.322      133.973      109.999       74.005    17948.676    12099.889     5476.674        6.319        1.776      301.455       81.103        0.072      341.521       16.288      860.151
05/28/2014  02:34:00     -248.414     -134.432      -10.242      140.436      122.663       61.487    19722.148    15046.245     3780.598        5.921        1.927      282.456       70.460        0.062      341.515       16.278      860.198
05/28/2014  02:35:00     -303.107     -192.377      -12.515      170.589      120.125       69.935    29100.456    14430.042     4890.908        8.872        2.421      359.002       74.535        0.043      341.841       16.831      860.242
05/28/2014  02:36:00     -228.671     -149.935       -0.887      104.787       99.052       54.654    10980.351     9811.302     2987.105        4.927        1.189      273.443       54.430        0.040      341.785       16.736      860.243
05/28/2014  02:37:00     -246.793     -110.948       -0.069      129.772      104.089       64.031    16840.791    10834.503     4099.976        5.249        1.589      270.585       66.876        0.061      341.617       16.452      860.240
05/28/2014  02:38:00     -395.735     -149.593      -25.362      150.921      123.132       68.673    22777.145    15161.584     4715.952       11.113        2.133      423.066       73.217        0.030      341.628       16.467      860.224
05/28/2014  02:39:00     -173.826      -59.570        2.663      149.095      128.924       71.527    22229.464    16621.466     5116.080        3.886        2.198      183.750       85.493        0.216      341.753       16.682      860.180
05/28/2014  02:40:00     -326.289      -56.420      -25.103      149.257      125.516       65.100    22277.528    15754.245     4237.969        7.627        2.113      331.131       68.382        0.043      341.658       16.521      860.136
05/28/2014  02:41:00     -278.241      -52.540        3.824      142.136      106.808       67.186    20202.578    11407.866     4513.947        5.815        1.806      283.158       66.174        0.055      341.640       16.490      860.132
05/28/2014  02:42:00     -239.871     -174.501       -0.535      130.660      100.695       64.035    17072.122    10139.443     4100.491        5.964        1.566      296.628       63.605        0.046      341.729       16.642      860.157
05/28/2014  02:43:00     -255.019     -116.243       -4.193      108.408       73.295       51.875    11752.235     5372.117     2691.063        4.919        0.991      280.262       47.547        0.029      341.755       16.686      860.129
05/28/2014  02:44:00     -294.268     -131.583        4.513      113.822       97.085       60.039    12955.461     9425.592     3604.706        6.495        1.299      322.347       55.283        0.029      341.751       16.678      860.134
05/28/2014  02:45:00     -265.136     -171.669       -0.273      146.944      105.147       63.820    21592.423    11055.825     4073.012        6.824        1.836      315.859       76.591        0.059      341.685       16.566      860.185
05/28/2014  02:46:00     -235.576     -130.426        4.916      130.423      127.142       62.215    17010.223    16165.083     3870.745        5.478        1.852      269.271       63.449        0.056      341.600       16.422      860.198
05/28/2014  02:47:00     -331.018     -153.278      -10.567      156.468      114.486       66.334    24482.113    13107.003     4400.246        8.758        2.099      364.783       72.524        0.040      341.701       16.595      860.207
05/28/2014  02:48:00     -287.891     -124.913        4.288      173.455      104.484       69.072    30086.532    10916.852     4770.946        7.213        2.289      313.822       76.374        0.059      341.712       16.611      860.210
05/28/2014  02:49:00     -318.358     -119.071       -7.612      147.414      137.384       60.535    21730.800    18874.480     3664.458        7.992        2.213      339.897       66.921        0.039      342.134       17.328      860.176
05/28/2014  02:50:00     -181.764     -146.433       -0.163      208.971      156.585       73.211    43669.087    24518.748     5359.811        6.400        3.677      233.411      102.552        0.193      342.018       17.132      860.174
05/28/2014  02:51:00     -273.089      -81.276      -19.208       96.900      104.300       48.662     9389.534    10878.390     2368.019        5.209        1.132      284.927       39.961        0.020      342.224       17.479      860.051
05/28/2014  02:52:00     -411.761     -136.517        2.907      137.414      131.800       69.911    18882.496    17371.238     4887.616       11.466        2.057      433.802       77.279        0.032      342.154       17.361      860.076
05/28/2014  02:53:00     -183.240      -54.664       19.883      158.665       83.927       58.898    25174.447     7043.667     3469.004        3.632        1.784      191.220       68.117        0.127      342.152       17.360      860.058
05/28/2014  02:54:00     -288.035      -96.499      -18.371      142.035       92.389       55.053    20173.816     8535.791     3030.794        6.217        1.587      303.770       53.359        0.031      342.189       17.422      859.920
05/28/2014  02:55:00     -409.628     -107.593       -5.360      168.451      140.954       82.355    28375.820    19868.073     6782.322       11.720        2.751      423.523       84.688        0.040      341.931       16.982      859.944
05/28/2014  02:56:00     -334.786     -117.940        2.972      184.327      168.736       87.843    33976.626    28471.867     7716.397        9.807        3.508      354.952       99.926        0.079      341.943       17.002      859.966
05/28/2014  02:57:00     -323.742      -97.768       -6.351      136.799      112.421       73.940    18714.071    12638.580     5467.161        7.561        1.841      338.183       82.979        0.060      342.010       17.117      859.957
05/28/2014  02:58:00     -294.189      -92.029       -4.128      179.602      109.469       61.501    32256.905    11983.459     3782.390        7.152        2.401      308.247       82.744        0.072      341.888       16.912      859.902
05/28/2014  02:59:00     -415.889     -143.713      -11.480      159.536      111.776       61.640    25451.658    12493.845     3799.510       11.774        2.087      440.020       68.568        0.024      341.837       16.821      859.878
05/28/2014  03:00:00     -213.120      -72.450        3.152      138.997       98.352       56.712    19320.102     9673.025     3216.282        4.144        1.610      225.098       60.048        0.071      341.770       16.709      859.906
05/28/2014  03:01:00     -246.858     -166.627       -0.941      157.846      104.089       73.748    24915.486    10834.585     5438.740        6.494        2.059      297.831       79.771        0.072      341.855       16.854      859.929
05/28/2014  03:02:00     -263.197     -189.158        8.573      138.726      135.998       84.015    19244.890    18495.513     7058.577        7.495        2.240      324.119       75.930        0.055      341.859       16.861      859.925
05/28/2014  03:03:00     -298.685     -104.754       -0.653      172.452      161.439       74.106    29739.735    26062.413     5491.632        8.073        3.065      316.522       86.334        0.074      342.088       17.250      859.903
05/28/2014  03:04:00     -311.699     -170.969       -2.362      187.769      166.496       82.895    35257.157    27720.760     6871.513        9.811        3.492      355.509       86.536        0.059      342.056       17.195      859.973
05/28/2014  03:05:00     -245.170     -216.031        2.742      266.151      195.396       78.900    70836.471    38179.630     6225.247       11.099        5.762      326.768      101.682        0.097      342.407       17.793      860.033
05/28/2014  03:06:00     -287.913     -122.209        3.000      153.295      157.303       70.389    23499.495    24744.148     4954.588        7.551        2.660      312.776       72.278        0.053      342.027       17.146      859.967
05/28/2014  03:07:00     -310.339     -131.566       -4.394      114.664       90.285       49.587    13147.882     8151.357     2458.886        6.869        1.188      337.076       51.998        0.024      341.836       16.822      859.956
05/28/2014  03:08:00     -355.081     -106.654      -12.037      176.860      143.235       72.296    31279.431    20516.249     5226.648        9.730        2.851      370.753       86.686        0.055      341.928       16.978      859.921
05/28/2014  03:09:00      -82.274     -195.873        3.492      100.392      135.226       45.121    10078.508    18285.995     2035.933        3.777        1.520      212.451       35.753        0.028      342.334       17.669      859.874
05/28/2014  03:10:00     -339.830      -86.595      -20.088      130.703       95.330       56.960    17083.155     9087.776     3244.430        7.639        1.471      350.689       55.508        0.025      341.978       17.061      859.835
05/28/2014  03:11:00     -273.180      -40.403       -7.712      129.256       96.359       60.713    16707.149     9285.096     3686.054        5.299        1.484      276.152       60.415        0.048      341.544       16.328      859.841
05/28/2014  03:12:00     -299.956      -93.251        0.864      107.698       83.256       52.826    11598.924     6931.518     2790.533        5.999        1.066      314.117       57.448        0.033      341.486       16.229      859.825
05/28/2014  03:13:00     -295.398      -64.726        1.575      150.435      117.065       64.447    22630.753    13704.172     4153.461        6.596        2.024      302.406       74.845        0.061      341.617       16.452      859.814
05/28/2014  03:14:00     -362.367     -124.770        0.029      206.422      143.649       76.346    42610.160    20634.932     5828.783       10.796        3.454      383.246       89.507        0.055      341.762       16.696      859.822
05/28/2014  03:15:00     -232.171      -55.868        7.939      158.736      138.752       74.998    25197.186    19252.103     5624.667        5.357        2.504      238.798       76.186        0.102      341.745       16.668      859.791
05/28/2014  03:16:00     -345.220     -200.304      -10.614      162.522      127.196       65.646    26413.397    16178.895     4309.361       10.315        2.345      399.123       74.703        0.035      341.964       17.039      859.822
05/28/2014  03:17:00     -290.106      -82.352      -12.005       84.513      109.381       46.261     7142.467    11964.304     2140.090        5.616        1.062      301.568       34.089        0.013      341.930       16.980      859.844
05/28/2014  03:18:00     -386.172      -86.429      -24.306      157.302      193.734       75.468    24743.954    37532.722     5695.345       11.257        3.399      395.725       73.797        0.035      341.765       16.701      859.864
05/28/2014  03:19:00     -245.501      -43.663       -9.342      160.238      118.351       57.810    25676.216    14007.063     3342.032        5.264        2.151      249.353       68.004        0.074      341.443       16.158      859.835
05/28/2014  03:20:00     -304.331      -31.706      -22.632      102.148       80.366       52.439    10434.146     6458.649     2749.862        5.688        0.982      305.978       57.374        0.035      341.353       16.005      859.811
05/28/2014  03:21:00     -282.373      -50.980      -21.717      111.630       73.628       51.599    12461.164     5421.115     2662.436        5.167        1.027      286.938       45.603        0.025      341.327       15.962      859.819
05/28/2014  03:22:00     -267.600       -6.104       -4.878      153.511      101.193       50.039    23565.541    10240.079     2503.908        5.398        1.815      267.670       65.469        0.060      341.309       15.929      859.828
05/28/2014  03:23:00     -246.744       -6.530      -10.928      154.173       87.552       50.626    23769.468     7665.405     2562.974        4.751        1.700      246.830       61.620        0.062      341.382       16.053      859.821
05/28/2014  03:24:00     -206.256      -37.243       -5.108       91.569       82.266       45.859     8384.882     6767.639     2103.073        3.060        0.863      209.591       50.096        0.057      341.358       16.012      859.820
05/28/2014  03:25:00     -236.959      -75.484       -2.213      127.381      111.416       56.398    16225.985    12413.598     3180.744        4.683        1.591      248.692       51.083        0.042      341.450       16.167      859.758
05/28/2014  03:26:00     -300.926      -62.585        2.762      151.803      142.893       67.779    23044.015    20418.474     4594.019        7.126        2.403      307.365       67.647        0.048      341.524       16.293      859.717
05/28/2014  03:27:00     -414.859      -60.268      -17.288      142.702      102.954       71.321    20363.848    10599.475     5086.615       10.604        1.802      419.214       67.488        0.026      341.830       16.811      859.698
05/28/2014  03:28:00     -398.958     -121.106       -7.822      126.852       87.475       61.244    16091.364     7651.935     3750.872       10.069        1.375      416.934       52.634        0.016      341.841       16.831      859.742
05/28/2014  03:29:00     -440.251      -58.862      -27.036      126.352      136.089       57.534    15964.787    18520.262     3310.178       11.790        1.890      444.169       56.467        0.016      341.344       15.989      859.775
05/28/2014  03:30:00     -251.123      -75.448       -4.090      109.512       68.518       45.459    11992.935     4694.712     2066.546        4.376        0.938      262.212       55.440        0.045      341.353       16.002      859.748
05/28/2014  03:31:00     -261.975      -62.297      -10.020      130.434       82.748       38.734    17013.143     6847.274     1500.321        4.898        1.268      269.280       49.424        0.034      341.345       15.991      859.737
05/28/2014  03:32:00     -326.618     -107.664       -8.775      139.687      107.435       50.994    19512.549    11542.239     2600.413        7.599        1.683      343.905       60.479        0.031      341.404       16.089      859.727
05/28/2014  03:33:00     -368.514      -76.657      -16.775      178.339      100.315       67.907    31804.959    10063.080     4611.349        9.421        2.324      376.403       75.622        0.040      341.375       16.039      859.693
05/28/2014  03:34:00     -392.577     -124.816      -25.826      130.959       84.328       57.838    17150.390     7111.199     3345.187        9.898        1.380      411.942       55.742        0.018      341.607       16.432      859.656
05/28/2014  03:35:00     -421.475      -95.892      -14.756      162.060      140.718       77.772    26263.596    19801.691     6048.425       11.957        2.606      432.246       82.630        0.037      341.767       16.704      859.615
05/28/2014  03:36:00     -273.205      -86.488       -3.839      135.518      119.673       63.477    18365.196    14321.688     4029.315        5.942        1.836      286.568       68.911        0.058      341.672       16.544      859.649
05/28/2014  03:37:00     -324.313      -35.859      -18.450      141.508       91.380       54.639    20024.592     8350.360     2985.461        6.908        1.568      326.290       53.000        0.026      341.693       16.579      859.681
05/28/2014  03:38:00     -397.889      -83.401       -8.918      156.700      126.486       72.168    24554.852    15998.690     5208.168       10.555        2.288      406.536       69.999        0.030      341.475       16.209      859.698
05/28/2014  03:39:00     -376.656      -47.220       -6.590      170.903       95.599       71.035    29207.801     9139.109     5045.987        9.376        2.170      379.604       87.072        0.053      341.402       16.086      859.691
05/28/2014  03:40:00     -326.303      -11.026      -23.735      135.711      141.619       66.057    18417.601    20055.876     4363.501        7.499        2.142      326.489       67.869        0.043      341.369       16.031      859.682
05/28/2014  03:41:00     -208.771      -63.809       11.620      176.657      105.553       63.059    31207.732    11141.365     3976.497        4.705        2.316      218.305       80.843        0.137      341.237       15.808      859.661
05/28/2014  03:42:00     -272.559       -4.974        3.935      148.866      110.735       70.644    22161.110    12262.283     4990.512        5.686        1.971      272.604       77.946        0.082      341.191       15.731      859.687
05/28/2014  03:43:00     -239.246     -179.739        4.630      169.851      133.253       73.667    28849.283    17756.303     5426.872        7.079        2.602      299.240       71.999        0.058      341.244       15.819      859.703
05/28/2014  03:44:00     -197.880      -36.403       -1.091      120.619       93.152       67.179    14548.916     8677.222     4512.973        3.411        1.387      201.201       68.513        0.116      341.205       15.755      859.715
05/28/2014  03:45:00     -150.604      -51.025       -5.958      121.120      111.368       46.753    14670.044    12402.794     2185.853        2.728        1.463      159.013       35.868        0.051      341.304       15.923      859.737
05/28/2014  03:46:00      -79.110      -52.160        8.904       67.821       62.978       44.198     4599.641     3966.186     1953.426        0.979        0.526       94.758       33.132        0.122      341.316       15.945      859.758
05/28/2014  03:47:00       -8.757       25.446       24.884       44.339       46.085       37.829     1965.922     2123.794     1431.067        0.343        0.276       26.910       18.365        0.466      341.006       15.420      859.778
05/28/2014  03:48:00       12.452       48.382       92.198       45.417       55.964       31.532     2062.711     3131.928      994.295        0.859        0.309       49.959       28.137        0.317      340.616       14.760      859.723
05/28/2014  03:49:00        8.854       23.994       53.036       39.699       42.796       32.271     1576.015     1831.514     1041.426        0.396        0.222       25.576       21.370        0.698      340.418       14.425      859.727
05/28/2014  03:50:00       53.013       27.159       24.318       46.810       38.399       26.066     2191.155     1474.469      679.458        0.424        0.217       59.565       21.617        0.132      340.501       14.564      859.749
05/28/2014  03:51:00       39.022       34.422       11.407       28.952       28.902       17.413      838.215      835.301      303.206        0.241        0.099       52.035       14.436        0.077      340.591       14.717      859.755
05/28/2014  03:52:00      -19.329       54.320       -8.550       60.288       28.360       22.789     3634.603      804.277      519.334        0.418        0.248       57.657       32.578        0.319      340.586       14.709      859.731
05/28/2014  03:53:00        6.485       36.463        9.021       13.808       22.902       21.585      190.651      524.498      465.918        0.132        0.059       37.035       15.184        0.168      340.627       14.780      859.685
05/28/2014  03:54:00     -109.581      -15.481      -11.979       50.201       32.816       16.576     2520.141     1076.886      274.777        0.813        0.194      110.670       16.150        0.021      340.790       15.054      859.702
05/28/2014  03:55:00      -91.149      -63.058      -26.646      137.985       76.866       59.970    19039.896     5908.403     3596.383        2.076        1.427      110.835       50.894        0.211      341.008       15.422      859.686
05/28/2014  03:56:00     -248.515       25.706       -7.830      160.538       91.043       52.943    25772.332     8288.812     2803.010        4.967        1.843      249.841       70.304        0.079      341.056       15.501      859.678
05/28/2014  03:57:00     -341.078      -61.242      -11.837      154.540      119.864       74.480    23882.633    14367.305     5547.214        8.200        2.190      346.532       73.050        0.044      341.124       15.616      859.708
05/28/2014  03:58:00     -220.917      -39.291      -21.921      106.701       89.874       55.265    11385.192     8077.346     3054.262        3.667        1.126      224.384       56.982        0.064      341.093       15.564      859.677
05/28/2014  03:59:00     -369.123      -45.460      -20.542      146.471       94.234       64.223    21453.880     8880.082     4124.560        8.659        1.723      371.911       70.058        0.035      340.964       15.344      859.554
05/28/2014  04:00:00     -422.389     -142.812       -9.864      175.847      130.026       76.725    30922.026    16906.772     5886.771       12.630        2.686      445.878       89.316        0.040      341.031       15.459      859.515
05/28/2014  04:01:00     -298.201     -123.919       -4.661      129.484      111.736       65.594    16766.008    12484.900     4302.627        6.892        1.678      322.923       61.772        0.037      340.956       15.331      859.526
05/28/2014  04:02:00     -320.284      -80.891        5.468      111.331      114.624       56.190    12394.667    13138.716     3157.332        6.892        1.435      330.341       48.364        0.021      340.921       15.272      859.565
05/28/2014  04:03:00     -268.825      -63.849       -3.647      119.272      110.880       58.566    14225.765    12294.325     3429.963        5.315        1.498      276.304       46.679        0.029      340.938       15.302      859.598
05/28/2014  04:04:00     -251.996      -48.458       -4.594      139.126       99.216       56.497    19356.071     9843.913     3191.877        4.913        1.620      256.613       59.542        0.054      340.923       15.276      859.616
05/28/2014  04:05:00     -343.965      -15.798      -18.879      157.923       99.206       63.912    24939.813     9841.911     4084.806        7.888        1.943      344.328       71.584        0.043      340.931       15.290      859.618
05/28/2014  04:06:00     -354.721      -74.612      -12.431      132.532      112.344       61.783    17564.663    12621.187     3817.125        8.277        1.700      362.483       69.582        0.037      341.002       15.408      859.594
05/28/2014  04:07:00     -262.533      -35.052        4.031      140.404       87.521       49.488    19713.406     7660.006     2449.048        4.999        1.491      264.863       49.760        0.035      341.004       15.412      859.588
05/28/2014  04:08:00     -246.635      -93.000      -13.889       69.652       91.747       49.618     4851.349     8417.504     2461.933        4.270        0.787      263.587       41.047        0.024      340.980       15.371      859.550
05/28/2014  04:09:00     -217.179      -79.266       -3.696      107.973       99.280       45.617    11658.216     9856.508     2080.953        3.852        1.180      231.192       42.994        0.035      340.879       15.203      859.537
05/28/2014  04:10:00     -286.274      -98.682      -10.136      140.248      102.370       64.408    19669.503    10479.589     4148.381        6.304        1.715      302.805       70.499        0.054      340.940       15.303      859.571
05/28/2014  04:11:00     -137.924      -46.634       23.705      110.448       93.312       50.814    12198.763     8707.042     2582.092        2.262        1.174      145.595       64.436        0.196      340.879       15.203      859.592
05/28/2014  04:12:00     -119.667      -35.254        1.293       87.788       84.144       52.600     7706.771     7080.253     2766.796        1.656        0.878      124.752       47.285        0.144      340.985       15.382      859.597
05/28/2014  04:13:00     -132.315     -110.312       13.601      110.774       94.035       55.584    12270.958     8842.493     3089.546        2.703        1.210      172.268       66.121        0.147      341.072       15.531      859.571
05/28/2014  04:14:00     -217.011     -161.670       -8.199      121.299       82.444       71.154    14713.407     6796.948     5062.890        4.993        1.329      270.612       67.781        0.063      341.077       15.535      859.549
05/28/2014  04:15:00     -260.519        3.633       -8.451      109.790       98.794       57.467    12053.850     9760.156     3302.434        4.653        1.256      260.544       35.351        0.018      341.150       15.659      859.518
05/28/2014  04:16:00     -255.413      -81.769       -4.528      110.867      108.213       54.795    12291.432    11710.135     3002.531        4.947        1.350      268.183       57.681        0.046      341.083       15.548      859.496
05/28/2014  04:17:00     -221.797      -77.208       -2.302      119.880      101.648       59.926    14371.188    10332.334     3591.111        4.172        1.415      234.851       63.859        0.074      341.018       15.437      859.485
05/28/2014  04:18:00     -238.501      -31.793       -6.442      126.645       68.351       46.510    16038.857     4671.877     2163.151        4.040        1.144      240.611       39.034        0.026      341.068       15.521      859.507
05/28/2014  04:19:00     -244.841      -58.477       -1.031      115.779       94.360       54.589    13404.809     8903.843     2979.978        4.432        1.264      251.728       47.546        0.036      341.062       15.513      859.531
05/28/2014  04:20:00     -146.179      -53.289        3.216       88.228       66.286       41.645     7784.232     4393.841     1734.339        1.906        0.696      155.589       38.855        0.062      341.039       15.473      859.538
05/28/2014  04:21:00     -186.448      -76.759       -7.686       61.016       54.110       39.604     3723.013     2927.936     1568.465        2.446        0.411      201.630       36.098        0.032      341.069       15.523      859.524
05/28/2014  04:22:00     -155.749      -76.901        2.966       82.494       67.161       48.655     6805.299     4510.539     2367.288        2.193        0.684      173.699       40.350        0.054      341.004       15.415      859.516
05/28/2014  04:23:00     -334.043      -81.865       -7.123      121.832       74.345       44.413    14843.036     5527.250     1972.549        7.034        1.117      343.928       47.750        0.019      341.089       15.557      859.508
05/28/2014  04:24:00     -355.025      -27.953       -8.323      154.721      116.410       60.221    23938.692    13551.217     3626.602        8.400        2.056      356.124       72.421        0.041      341.072       15.528      859.531
05/28/2014  04:25:00     -343.971      -85.708      -11.852      132.047       94.947       56.135    17436.295     9014.855     3151.149        7.770        1.480      354.488       58.457        0.027      341.041       15.477      859.502
05/28/2014  04:26:00     -442.442      -80.575      -23.185      155.192      123.206       68.170    24084.618    15179.649     4647.152       12.334        2.196      449.719       73.641        0.027      341.112       15.595      859.462
05/28/2014  04:27:00     -254.223      -67.414       -5.299      120.063       92.321       58.241    14415.047     8523.203     3392.047        4.776        1.317      263.009       60.473        0.053      341.073       15.529      859.469
05/28/2014  04:28:00     -215.747      -83.006       -7.585      101.221       99.921       51.909    10245.623     9984.250     2694.580        3.820        1.146      231.164       54.505        0.056      340.972       15.360      859.459
05/28/2014  04:29:00     -178.227      -39.190       -7.121       87.936       75.107       39.423     7732.697     5641.111     1554.141        2.414        0.746      182.485       34.769        0.036      341.018       15.438      859.466
05/28/2014  04:30:00     -204.399      -14.684       -3.699       83.966       62.242       40.672     7050.291     3874.054     1654.236        2.729        0.629      204.926       45.702        0.050      340.946       15.315      859.477
05/28/2014  04:31:00     -148.367     -101.470       -1.114       84.200       62.659       44.862     7089.663     3926.196     2012.634        2.267        0.651      179.747       50.960        0.080      340.969       15.355      859.485
05/28/2014  04:32:00     -210.566     -115.741       -3.603       86.626       61.509       43.428     7504.123     3783.314     1886.024        3.546        0.659      240.279       45.011        0.035      340.988       15.386      859.516
05/28/2014  04:33:00     -291.203     -143.791      -11.653      102.373       89.758       56.530    10480.278     8056.562     3195.593        6.367        1.087      324.769       50.437        0.024      341.076       15.534      859.553
05/28/2014  04:34:00     -227.067      -58.757      -14.153      130.353      100.983       59.840    16991.987    10197.504     3580.766        4.298        1.539      234.546       64.131        0.075      341.172       15.698      859.560
05/28/2014  04:35:00     -285.106      -56.931      -11.545       89.694       70.990       45.975     8045.102     5039.569     2113.724        4.993        0.760      290.735       45.051        0.024      341.224       15.784      859.473
05/28/2014  04:36:00     -227.285      -72.574       -6.146       70.510       63.785       34.899     4971.622     4068.558     1217.907        3.361        0.513      238.591       32.634        0.019      341.070       15.523      859.453
05/28/2014  04:37:00     -223.699      -88.742       -3.238       77.798       63.886       38.796     6052.454     4081.429     1505.135        3.478        0.582      240.658       34.900        0.021      341.080       15.540      859.511
05/28/2014  04:38:00     -198.846      -68.783        0.260      104.280       71.930       46.176    10874.309     5173.927     2132.183        3.122        0.909      210.406       51.720        0.060      341.023       15.446      859.546
05/28/2014  04:39:00     -236.506      -77.592        1.679       91.272       69.376       39.742     8330.490     4812.975     1579.458        3.834        0.736      248.909       37.383        0.023      341.086       15.552      859.546
05/28/2014  04:40:00      -52.268     -114.747        5.836       53.751       67.861       35.425     2889.222     4605.182     1254.933        1.234        0.437      126.091       30.771        0.060      341.025       15.451      859.516
05/28/2014  04:41:00      -39.546     -208.851        0.314       54.531       71.493       32.913     2973.636     5111.287     1083.251        2.717        0.458      212.562       23.311        0.012      341.027       15.451      859.487
05/28/2014  04:42:00      -60.138      -99.678        0.955       56.561       53.975       33.512     3199.176     2913.335     1123.054        1.039        0.362      116.414       28.687        0.061      341.068       15.525      859.509
05/28/2014  04:43:00        5.498     -209.033        3.314       78.559      102.620       55.631     6171.544    10530.803     3094.786        3.176        0.990      209.105       46.405        0.049      341.171       15.696      859.525
05/28/2014  04:44:00     -109.105     -170.315        8.786      115.469      137.164       46.865    13333.117    18814.025     2196.350        3.766        1.717      202.265       45.269        0.050      341.145       15.651      859.502
05/28/2014  04:45:00     -250.721       20.905       -9.324      147.003       95.970       49.170    21609.829     9210.193     2417.653        4.830        1.662      251.591       47.361        0.035      341.000       15.407      859.466
05/28/2014  04:46:00     -286.660      -67.246       -7.889      144.684      116.666       52.813    20933.436    13610.842     2789.250        6.204        1.867      294.442       54.464        0.034      341.083       15.547      859.452
05/28/2014  04:47:00     -230.501      -27.922       -6.438       85.023       70.187       39.405     7228.966     4926.253     1552.737        3.383        0.685      232.186       45.974        0.039      340.915       15.262      859.484
05/28/2014  04:48:00     -128.391      -57.459       -6.570       82.058       52.177       32.788     6733.434     2722.471     1075.085        1.518        0.527      140.662       37.053        0.069      340.838       15.135      859.466
05/28/2014  04:49:00      -99.062     -152.527        3.636       87.234      104.770       48.931     7609.737    10976.843     2394.247        2.703        1.049      181.872       55.498        0.093      340.777       15.030      859.473
05/28/2014  04:50:00     -169.202      -89.317       -3.304      109.224       84.615       59.108    11929.821     7159.758     3493.777        2.960        1.129      191.329       52.210        0.074      340.642       14.802      859.497
05/28/2014  04:51:00     -283.742     -161.389       -3.483      122.388      100.356       54.830    14978.829    10071.278     3006.365        6.731        1.403      326.430       60.798        0.035      340.624       14.770      859.481
05/28/2014  04:52:00     -355.787      -53.958      -17.286      152.235       92.014       67.033    23175.533     8466.491     4493.370        8.296        1.807      359.855       73.475        0.042      340.861       15.171      859.423
05/28/2014  04:53:00     -350.312     -105.443      -10.549      139.362      114.151       65.824    19421.638    13030.341     4332.829        8.536        1.839      365.838       70.401        0.037      340.806       15.079      859.409
05/28/2014  04:54:00     -267.956      -79.897        4.760      139.384       96.729       58.141    19427.825     9356.405     3380.397        5.518        1.608      279.614       65.419        0.055      340.769       15.016      859.416
05/28/2014  04:55:00     -246.273      -86.669       -4.286       94.487       79.818       44.329     8927.721     6370.916     1965.071        4.272        0.863      261.079       47.682        0.033      340.645       14.804      859.417
05/28/2014  04:56:00     -216.746      -71.122        5.803      105.542       78.118       46.448    11139.068     6102.474     2157.392        3.573        0.970      228.116       52.689        0.053      340.688       14.880      859.439
05/28/2014  04:57:00     -109.864      -16.135       12.629       87.660       64.106       41.900     7684.221     4109.593     1755.650        1.302        0.677      111.043       35.922        0.105      340.621       14.767      859.445
05/28/2014  04:58:00     -218.419     -134.172      -23.129       76.454       78.794       51.723     5845.258     6208.559     2675.244        4.048        0.736      256.337       43.792        0.029      340.753       14.987      859.437
05/28/2014  04:59:00     -230.035     -172.280       -2.443      128.417      101.462       65.507    16490.947    10294.613     4291.229        5.683        1.554      287.396       70.314        0.060      340.725       14.942      859.415
05/28/2014  05:00:00     -130.954      -30.565       10.542       90.933       76.388       49.217     8268.897     5835.103     2422.345        1.736        0.826      134.474       51.336        0.146      340.589       14.714      859.420
05/28/2014  05:01:00     -126.213      -22.875        6.923       92.768       65.750       44.008     8605.920     4323.023     1936.685        1.568        0.743      128.269       41.763        0.106      340.528       14.609      859.394
05/28/2014  05:02:00     -130.460      -70.707       15.011       97.317       94.607       57.245     9470.618     8950.551     3276.952        2.197        1.085      148.389       61.633        0.173      341.030       15.458      859.359
05/28/2014  05:03:00     -307.412      -74.984       -9.243       76.235       74.569       48.608     5811.784     5560.482     2362.746        5.697        0.687      316.425       45.393        0.021      340.947       15.317      859.342
05/28/2014  05:04:00     -180.526      -45.686       -1.692      126.395       96.665       56.590    15975.691     9344.049     3202.433        3.160        1.426      186.217       62.709        0.113      340.781       15.037      859.324
05/28/2014  05:05:00     -341.331      -91.961       -6.206      190.460       98.202       66.596    36275.183     9643.571     4434.969        8.767        2.518      353.502       85.146        0.058      340.839       15.134      859.328
05/28/2014  05:06:00     -356.391      -85.114       -2.745      168.471      134.093       71.194    28382.507    17980.940     5068.587        9.284        2.572      366.414       84.887        0.054      340.813       15.090      859.332
05/28/2014  05:07:00     -293.575      -60.351      -16.551      103.464       91.157       54.331    10704.704     8309.643     2951.892        5.603        1.098      299.714       52.543        0.031      340.830       15.118      859.328
05/28/2014  05:08:00     -258.977      -24.336       -5.586       89.947       64.051       46.349     8090.390     4102.498     2148.191        4.101        0.717      260.118       46.352        0.032      340.863       15.174      859.312
05/28/2014  05:09:00     -270.568        7.277      -13.049       94.587       64.248       45.053     8946.748     4127.765     2029.775        4.426        0.755      270.666       43.664        0.026      340.850       15.150      859.267
05/28/2014  05:10:00     -211.623      -14.579        8.765      143.495       84.265       59.216    20590.890     7100.541     3506.591        3.813        1.560      212.125       79.153        0.139      341.367       16.028      859.228
05/28/2014  05:11:00      -86.469      -80.516        8.684       84.366       67.784       46.146     7117.704     4594.737     2129.479        1.394        0.692      118.151       44.018        0.139      341.294       15.905      859.247
05/28/2014  05:12:00     -129.876     -152.742       17.564      123.758       96.625       54.986    15315.972     9336.415     3023.510        3.409        1.384      200.495       71.186        0.126      341.334       15.972      859.269
05/28/2014  05:13:00     -165.034     -173.679        9.597      128.437       89.337       57.527    16496.135     7981.064     3309.349        4.263        1.389      239.584       66.057        0.076      341.163       15.682      859.289
05/28/2014  05:14:00     -228.608     -173.006       -1.922      113.757      100.552       69.536    12940.557    10110.802     4835.238        5.504        1.394      286.693       58.255        0.041      340.952       15.326      859.315
05/28/2014  05:15:00     -196.472      -74.733      -11.740       84.666       89.121       48.902     7168.352     7942.485     2391.384        3.091        0.875      210.205       49.127        0.055      340.895       15.230      859.312
05/28/2014  05:16:00     -139.564       -5.828       -9.558       60.709       62.148       35.810     3685.523     3862.346     1282.375        1.422        0.442      139.685       22.799        0.027      340.860       15.171      859.290
05/28/2014  05:17:00     -266.986      -34.360      -23.650       83.913       56.349       42.799     7041.397     3175.177     1831.766        4.253        0.602      269.188       44.118        0.027      340.851       15.153      859.286
05/28/2014  05:18:00     -178.409      -63.736       -2.032       84.608       54.809       37.261     7158.464     3004.048     1388.358        2.372        0.578      189.452       36.307        0.037      340.801       15.071      859.284
05/28/2014  05:19:00     -187.955      -64.222       -3.475       87.903       63.928       36.407     7726.912     4086.786     1325.474        2.630        0.657      198.624       48.309        0.059      340.844       15.142      859.290
05/28/2014  05:20:00     -128.210      -43.613       -1.336       66.823       82.915       33.572     4465.334     6874.849     1127.083        1.540        0.623      135.424       35.516        0.069      340.765       15.010      859.284
05/28/2014  05:21:00     -144.169      -59.876        0.653       82.477       54.908       45.276     6802.432     3014.888     2049.912        1.812        0.593      156.109       50.292        0.104      340.726       14.945      859.282
05/28/2014  05:22:00     -216.455      -70.405      -19.344       52.237       52.625       37.582     2728.734     2769.429     1412.443        2.955        0.346      227.617       27.895        0.015      340.817       15.097      859.299
05/28/2014  05:23:00     -148.187     -114.417        3.451      105.510       76.624       57.392    11132.324     5871.207     3293.870        2.768        1.015      187.218       67.116        0.129      340.691       14.885      859.308
05/28/2014  05:24:00     -221.555     -134.861       -4.617       92.653       87.473       54.537     8584.547     7651.449     2974.265        4.325        0.961      259.373       50.398        0.038      340.746       14.976      859.325
05/28/2014  05:25:00     -201.794      -70.477      -18.096       70.438       87.642       39.318     4961.518     7681.082     1545.914        3.010        0.709      213.747       34.401        0.026      340.698       14.895      859.281
05/28/2014  05:26:00     -256.692      -22.833      -31.067       86.544       75.089       40.217     7489.913     5638.329     1617.435        4.106        0.737      257.705       41.300        0.026      340.647       14.808      859.239
05/28/2014  05:27:00     -390.891      -97.387      -29.519      128.252       99.365       60.783    16448.457     9873.320     3694.521        9.658        1.501      402.840       59.954        0.022      340.603       14.734      859.204
05/28/2014  05:28:00     -433.738       -3.225      -51.275      101.148       90.265       48.915    10230.976     8147.754     2392.720       10.577        1.039      433.750       38.409        0.008      340.708       14.912      859.222
05/28/2014  05:29:00     -278.556       26.705      -20.222      139.738       85.177       48.936    19526.696     7255.129     2394.738        5.394        1.459      279.833       57.448        0.042      340.824       15.108      859.225
05/28/2014  05:30:00     -152.353      -82.502       -2.324       85.993       71.161       36.348     7394.876     5063.922     1321.168        2.190        0.689      173.257       35.283        0.041      340.825       15.110      859.243
05/28/2014  05:31:00     -136.552      -16.445       -2.793       79.239       47.411       27.694     6278.811     2247.779      766.945        1.411        0.465      137.539       32.156        0.055      340.648       14.814      859.224
05/28/2014  05:32:00     -252.627      -94.194      -11.308       90.659       73.527       49.047     8219.019     5406.226     2405.587        4.442        0.802      269.616       51.217        0.036      340.656       14.822      859.191
05/28/2014  05:33:00     -214.230      -38.006       -4.793       86.796       87.980       46.299     7533.618     7740.467     2143.560        3.239        0.871      217.575       49.100        0.051      340.680       14.866      859.184
05/28/2014  05:34:00     -225.299      -49.102        2.344      109.726       65.477       38.315    12039.864     4287.230     1468.067        3.548        0.890      230.587       46.275        0.040      340.680       14.865      859.226
05/28/2014  05:35:00     -228.312     -130.364       -9.605      117.266       85.576       62.377    13751.396     7323.167     3890.919        4.708        1.248      262.909       56.696        0.047      340.673       14.853      859.275
05/28/2014  05:36:00     -264.461     -161.073      -13.689      110.869       84.107       45.484    12291.870     7074.017     2068.830        5.875        1.072      309.651       48.856        0.025      340.768       15.013      859.308
05/28/2014  05:37:00     -162.558      -62.216       -8.762       67.875       76.466       31.243     4607.083     5847.044      976.129        2.090        0.572      174.057       22.681        0.017      340.733       14.955      859.260
05/28/2014  05:38:00      -16.886       39.029       14.258       32.732       34.172       22.315     1071.362     1167.750      497.951        0.237        0.137       42.525       20.149        0.225      340.448       14.475      859.174
05/28/2014  05:39:00      -81.961      -72.279       -9.565       37.083       46.618       21.890     1375.155     2173.201      479.180        0.803        0.201      109.279       19.752        0.033      340.679       14.867      859.162
05/28/2014  05:40:00     -143.725      -82.691        0.214       70.063       46.741       31.544     4908.813     2184.707      995.050        1.779        0.404      165.815       32.192        0.038      340.642       14.802      859.214
05/28/2014  05:41:00     -156.829     -132.154       -3.090       82.857       71.880       50.055     6865.284     5166.792     2505.482        2.830        0.727      205.085       46.664        0.052      340.527       14.605      859.240
05/28/2014  05:42:00     -248.804      -42.519      -17.797       62.547       65.909       39.928     3912.136     4344.013     1594.260        3.694        0.493      252.411       29.765        0.014      340.565       14.669      859.257
05/28/2014  05:43:00     -188.806      -39.590       -2.928       74.045       59.357       39.810     5482.725     3523.244     1584.812        2.391        0.530      192.912       41.320        0.046      340.558       14.658      859.259
05/28/2014  05:44:00     -150.474      -58.191        5.113       73.141       65.011       41.555     5349.673     4226.471     1726.828        1.868        0.565      161.334       43.414        0.072      340.513       14.582      859.262
05/28/2014  05:45:00     -160.195      -65.675        0.972       86.050       52.179       33.926     7404.635     2722.608     1150.988        2.063        0.564      173.135       38.525        0.050      340.537       14.625      859.275
05/28/2014  05:46:00     -121.950      -56.065       17.301       84.904       61.672       34.828     7208.686     3803.486     1213.011        1.527        0.611      134.220       41.278        0.095      340.484       14.536      859.288
05/28/2014  05:47:00     -112.149     -108.775       15.084       61.391       68.888       45.165     3768.908     4745.562     2039.865        1.759        0.528      156.235       35.170        0.051      340.237       14.116      859.278
05/28/2014  05:48:00     -108.756     -110.106      -11.392       57.028       47.071       26.791     3252.210     2215.710      717.745        1.513        0.309      154.762       26.112        0.028      340.254       14.146      859.261
05/28/2014  05:49:00     -107.841     -152.602       -3.158       49.799       57.058       31.931     2479.979     3255.614     1019.560        2.084        0.338      186.861       28.535        0.023      340.307       14.235      859.268
05/28/2014  05:50:00     -144.339      -60.742        1.573       64.993       60.729       31.607     4224.029     3688.000      999.030        1.672        0.446      156.599       30.561        0.038      340.284       14.198      859.273
05/28/2014  05:51:00     -135.393      -56.902        2.698       51.999       45.291       24.374     2703.844     2051.252      594.086        1.346        0.267      146.865       21.736        0.022      340.263       14.162      859.281
05/28/2014  05:52:00     -101.433      -38.659        3.581       51.864       51.577       33.234     2689.838     2660.141     1104.476        0.912        0.323      108.551       31.085        0.082      340.292       14.212      859.274
05/28/2014  05:53:00     -160.483      -27.687      -12.167       63.071       43.156       30.791     3978.005     1862.439      948.108        1.673        0.339      162.854       31.416        0.037      340.358       14.321      859.257
05/28/2014  05:54:00      -93.751       -1.060        7.292       73.003       50.919       35.588     5329.365     2592.762     1266.493        0.901        0.459       93.757       42.345        0.204      340.338       14.289      859.229
05/28/2014  05:55:00     -151.967        4.775      -11.617       51.045       38.939       26.444     2605.616     1516.247      699.275        1.404        0.241      152.042       20.542        0.018      340.441       14.463      859.200
05/28/2014  05:56:00     -132.873       66.778       -3.066       61.199       46.572       30.278     3745.306     2168.906      916.741        1.448        0.342      148.709       27.097        0.033      340.463       14.501      859.191
05/28/2014  05:57:00      -25.123      -18.641       -2.421       80.117       42.705       27.652     6418.772     1823.701      764.659        0.499        0.450       31.283       37.841        1.463      340.380       14.361      859.236
05/28/2014  05:58:00       53.057      -87.084      -17.535       40.515       45.206       24.357     1641.474     2043.566      593.261        0.749        0.214      101.974       15.618        0.023      339.953       13.641      859.308
05/28/2014  05:59:00       39.411      -56.856       43.554       65.215      120.098       61.861     4253.024    14423.479     3826.826        1.459        1.125       69.180       75.584        1.194      340.094       13.877      859.353
05/28/2014  06:00:00      -14.794       14.993       35.642       26.332       34.635       23.359      693.376     1199.592      545.630        0.208        0.122       21.063       21.582        1.050      339.991       13.704      859.371
05/28/2014  06:01:00      -68.031      -54.963       -7.173       43.277       40.917       24.669     1872.864     1674.205      608.571        0.593        0.208       87.459       17.086        0.038      340.150       13.972      859.370
05/28/2014  06:02:00      -26.258       44.632       -9.158       40.874       53.490       32.323     1670.700     2861.143     1044.764        0.417        0.279       51.783       26.134        0.255      340.189       14.038      859.314
05/28/2014  06:03:00        5.872       20.704       -7.631       43.931       41.063       17.915     1929.955     1686.148      320.930        0.223        0.197       21.521       11.824        0.302      340.255       14.150      859.284
05/28/2014  06:04:00       34.372       48.893      -12.915       41.262       28.228       24.324     1702.592      796.794      591.640        0.341        0.155       59.766       15.930        0.071      339.969       13.667      859.283
05/28/2014  06:05:00      113.061       73.053       29.832       44.437       32.187       30.685     1974.658     1036.032      941.541        1.148        0.198      134.609       18.615        0.019      339.878       13.512      859.297
05/28/2014  06:06:00       65.118       48.579       43.165       37.587       28.218       27.838     1412.759      796.271      774.959        0.572        0.149       81.242       20.040        0.061      339.785       13.357      859.313
05/28/2014  06:07:00       -3.194       -1.136        5.067       27.252       12.345       14.396      742.677      152.405      207.258        0.057        0.055        3.389        8.831        6.788      339.793       13.371      859.339
05/28/2014  06:08:00      -36.747       14.815       -5.907       12.392       10.458       11.706      153.554      109.380      137.039        0.100        0.020       39.621        6.073        0.023      340.121       13.924      859.363
05/28/2014  06:09:00      -99.558      -37.893        2.094       37.259       40.119       16.122     1388.244     1609.557      259.918        0.730        0.163      106.525       11.692        0.012      340.055       13.812      859.380
05/28/2014  06:10:00      -45.780      -38.968       10.167       55.641       41.057       27.987     3095.963     1685.672      783.246        0.464        0.278       60.119       30.182        0.252      340.050       13.804      859.393
05/28/2014  06:11:00      -88.171      -96.530       -0.797       41.684       59.992       22.259     1737.579     3599.004      495.473        1.146        0.292      130.737       20.895        0.026      339.991       13.704      859.375
05/28/2014  06:12:00      -53.406      -91.956      -13.185       65.202       41.482       20.605     4251.243     1720.764      424.573        0.894        0.320      106.340       24.647        0.054      340.161       13.990      859.366
05/28/2014  06:13:00       35.228       41.721        4.616       24.204       26.029       27.273      585.817      677.524      743.832        0.250        0.100       54.605       17.265        0.100      339.189       12.352      859.331
05/28/2014  06:14:00      -22.356       35.503       29.232       17.331       23.405       34.038      300.351      547.784     1158.585        0.231        0.100       41.955       18.884        0.203      339.268       12.484      859.336
05/28/2014  06:15:00      -43.264        1.637       -4.248       27.292       19.765       11.924      744.836      390.672      142.172        0.158        0.064       43.295       13.933        0.104      339.856       13.476      859.370
05/28/2014  06:16:00      -24.287      -27.076        3.115       39.295       24.121       18.649     1544.130      581.831      347.800        0.190        0.124       36.373       16.688        0.210      339.823       13.419      859.376
05/28/2014  06:17:00     -108.679      -43.677       -0.379       65.854       27.332       18.459     4336.781      747.058      340.735        0.957        0.271      117.128       21.764        0.035      339.771       13.333      859.380
05/28/2014  06:18:00      -50.381       19.066        2.321       24.745       33.386       15.079      612.330     1114.604      227.364        0.243        0.098       53.868       12.731        0.056      339.789       13.365      859.353
05/28/2014  06:19:00      -34.946      107.470      -19.039       15.880       24.379       13.691      252.189      594.324      187.446        0.708        0.052      113.009       12.619        0.012      339.878       13.511      859.283
05/28/2014  06:20:00      -15.110      127.414      -13.926       18.640       25.095       13.473      347.454      629.746      181.534        0.891        0.058      128.307       11.834        0.009      339.970       13.667      859.273
05/28/2014  06:21:00      -29.793        8.107        9.536       20.052       33.318       14.276      402.088     1110.064      203.809        0.138        0.086       30.877       14.603        0.224      340.013       13.741      859.320
05/28/2014  06:22:00       -4.566     -124.284      -16.876       44.516       55.694       29.374     1981.636     3101.844      862.819        1.085        0.297      124.368       18.417        0.022      339.953       13.641      859.407
05/28/2014  06:23:00       -9.785     -121.073       -6.368       67.218       71.633       40.792     4518.298     5131.356     1664.009        1.305        0.566      121.468       32.354        0.071      339.893       13.539      859.450
05/28/2014  06:24:00       18.334     -121.670       10.099       71.784       81.321       61.337     5152.921     6613.098     3762.203        1.538        0.776      123.044       45.877        0.139      339.948       13.631      859.452
05/28/2014  06:25:00       52.458      -83.096        9.141       43.503       87.249       52.083     1892.513     7612.350     2712.638        1.098        0.611       98.269       53.352        0.295      339.932       13.603      859.413
05/28/2014  06:26:00       53.272      -56.065       15.600       53.849       53.248       33.388     2899.686     2835.351     1114.728        0.654        0.342       77.338       27.912        0.130      339.887       13.529      859.360
05/28/2014  06:27:00       -4.938      -12.096       12.105       16.021       29.879       17.705      256.681      892.735      313.476        0.089        0.073       13.065       14.903        1.301      340.003       13.726      859.335
05/28/2014  06:28:00      -51.553       21.265        3.025       33.903       21.855       20.141     1149.416      477.640      405.674        0.258        0.102       55.766       22.007        0.156      339.896       13.544      859.314
05/28/2014  06:29:00      -66.550      -29.156        8.600       48.976       39.416       22.842     2398.685     1553.591      521.779        0.491        0.224       72.657       26.339        0.131      339.937       13.613      859.323
05/28/2014  06:30:00     -105.196     -125.334        4.809       71.498       68.690       39.306     5112.007     4718.321     1544.968        1.908        0.569      163.630       42.303        0.067      339.933       13.603      859.384
05/28/2014  06:31:00     -122.959     -163.978        6.245      103.393       87.942       54.539    10690.135     7733.879     2974.524        3.172        1.070      204.958       54.810        0.072      339.835       13.438      859.425
05/28/2014  06:32:00     -114.679     -138.471       -3.475       75.251       80.142       39.352     5662.736     6422.743     1548.613        2.298        0.682      179.792       32.909        0.034      339.878       13.512      859.414
05/28/2014  06:33:00     -154.313      -98.821        7.600       94.003       78.769       45.674     8836.473     6204.528     2086.096        2.538        0.856      183.243       46.513        0.064      340.047       13.795      859.391
05/28/2014  06:34:00     -136.268     -106.135        0.498       89.798       68.325       37.035     8063.608     4668.292     1371.579        2.197        0.705      172.724       46.589        0.073      340.140       13.953      859.375
05/28/2014  06:35:00     -147.370     -125.453       -2.306       50.821       52.157       33.800     2582.749     2720.347     1142.414        2.195        0.322      193.537       22.115        0.013      340.086       13.863      859.370
05/28/2014  06:36:00     -121.771      -84.590      -13.037       41.296       53.025       29.113     1705.386     2811.661      847.594        1.376        0.268      148.269       20.417        0.019      340.099       13.886      859.374
05/28/2014  06:37:00     -101.042      -59.299       14.315       69.471       58.720       33.571     4826.173     3448.081     1126.997        1.166        0.470      117.157       34.854        0.089      340.233       14.112      859.371
05/28/2014  06:38:00      -85.043     -161.181        2.991       67.992       69.125       31.175     4622.901     4778.240      971.885        2.179        0.519      182.240       24.520        0.018      340.294       14.213      859.400
05/28/2014  06:39:00      -73.812      -66.108       -8.832       54.403       50.373       28.352     2959.730     2537.414      803.821        0.810        0.315       99.088       20.009        0.041      340.298       14.221      859.434
05/28/2014  06:40:00      -53.183      -44.067        3.444       55.206       53.352       33.143     3047.712     2846.399     1098.444        0.589        0.350       69.068       25.640        0.138      340.082       13.858      859.433
05/28/2014  06:41:00     -133.969      -51.735      -11.053       54.993       53.368       29.053     3024.246     2848.094      844.069        1.373        0.336      143.611       17.401        0.015      339.975       13.676      859.395
05/28/2014  06:42:00     -121.879      -97.110       -1.149       62.304       46.110       25.409     3881.834     2126.135      645.612        1.547        0.333      155.836       28.077        0.032      340.010       13.737      859.372
05/28/2014  06:43:00     -105.045      -50.652       11.590       52.836       58.737       34.259     2791.630     3449.991     1173.669        1.057        0.371      116.619       34.601        0.088      340.081       13.855      859.382
05/28/2014  06:44:00     -145.264        7.578        0.519       50.433       45.107       26.402     2543.493     2034.643      697.091        1.322        0.264      145.461       24.802        0.029      340.149       13.969      859.366
05/28/2014  06:45:00     -132.074      -11.148       -6.749       51.048       36.814       23.185     2605.873     1355.267      537.552        1.106        0.225      132.544       17.340        0.017      340.167       13.999      859.320
05/28/2014  06:46:00     -107.944      -42.486       10.582       62.946       46.364       28.809     3962.228     2149.625      829.968        1.025        0.347      116.005       29.042        0.063      340.269       14.173      859.337
05/28/2014  06:47:00     -134.113      -19.729        6.233       62.609       47.847       31.034     3919.828     2289.336      963.112        1.279        0.359      135.557       32.170        0.056      340.365       14.334      859.365
05/28/2014  06:48:00      -42.665       -4.920       13.016       52.601       30.907       26.896     2766.823      955.216      723.402        0.323        0.222       42.948       33.744        0.617      340.456       14.489      859.362
05/28/2014  06:49:00      -36.371     -104.088       13.170       40.154       69.541       29.480     1612.360     4835.898      869.049        0.982        0.366      110.260       39.589        0.129      340.580       14.697      859.398
05/28/2014  06:50:00      -27.900      -79.951       19.350       35.343      104.541       29.455     1249.148    10928.837      867.598        1.029        0.652       84.679       32.345        0.146      340.691       14.885      859.440
05/28/2014  06:51:00        5.938       38.076       87.902       47.428       60.769       47.847     2249.396     3692.858     2289.338        0.872        0.412       38.536       37.449        0.944      340.236       14.119      859.434
05/28/2014  06:52:00        4.562       67.575      119.596       43.646       73.912       45.931     1904.965     5462.943     2109.635        1.418        0.474       67.729       44.990        0.441      340.007       13.730      859.414
05/28/2014  06:53:00       42.045       -8.352       29.113       57.019       53.496       38.848     3251.215     2861.828     1509.164        0.515        0.381       42.867       37.902        0.782      340.093       13.875      859.423
05/28/2014  06:54:00       -8.076      -21.290       22.661       31.804       56.742       31.221     1011.473     3219.675      974.749        0.312        0.260       22.771       27.173        1.424      340.199       14.055      859.395
05/28/2014  06:55:00       -7.628       61.314       77.343       20.196       41.231       27.832      407.879     1700.000      774.623        0.634        0.144       61.787       14.453        0.055      340.188       14.036      859.380
05/28/2014  06:56:00       63.673      117.654      108.218       73.438       57.868       45.587     5393.117     3348.713     2078.165        2.021        0.541      133.779       34.330        0.066      340.144       13.961      859.337
05/28/2014  06:57:00       19.601       71.489       95.258       64.454       88.044       46.537     4154.362     7751.817     2165.727        1.432        0.704       74.128       54.110        0.533      340.130       13.937      859.362
05/28/2014  06:58:00       72.196     -109.203       11.021       54.291       76.800       36.449     2947.506     5898.168     1328.551        1.371        0.509      130.910       48.765        0.139      340.394       14.385      859.431
05/28/2014  06:59:00       66.596      -55.060       18.678       43.911       70.157       37.362     1928.135     4922.015     1395.915        0.803        0.412       86.409       45.230        0.274      340.471       14.515      859.457
05/28/2014  07:00:00        0.337      -14.884       10.829       24.037       18.877       23.474      577.789      356.330      551.011        0.091        0.074       14.887       18.650        1.569      340.609       14.749      859.443
05/28/2014  07:01:00     -108.041     -105.275      -26.748       44.669       49.042       25.734     1995.289     2405.131      662.241        1.427        0.253      150.850       24.955        0.027      340.564       14.669      859.457
05/28/2014  07:02:00       -6.045      -56.326        8.769       34.643       37.164       27.976     1200.111     1381.189      782.642        0.332        0.168       56.649       24.033        0.180      340.723       14.940      859.451
05/28/2014  07:03:00      -37.198      -16.664        5.873       27.164       18.307       12.999      737.908      335.138      168.977        0.147        0.062       40.760        8.817        0.047      340.661       14.835      859.456
05/28/2014  07:04:00      -15.253       -1.592       19.377       17.530       19.027       16.153      307.293      362.022      260.929        0.077        0.047       15.335       14.316        0.871      341.150       15.663      859.443
05/28/2014  07:05:00       18.355       -7.287       14.813       18.040       18.273       18.353      325.435      333.911      336.831        0.080        0.050       19.748       12.720        0.415      340.499       14.561      859.426
05/28/2014  07:06:00       21.918       14.191       17.998       23.425       12.576       13.970      548.742      158.168      195.151        0.095        0.045       26.111       13.961        0.286      340.396       14.389      859.379
05/28/2014  07:07:00       55.489      -10.065       11.576       12.446       26.093       13.434      154.908      680.851      180.484        0.217        0.051       56.395        9.013        0.026      340.319       14.259      859.355
05/28/2014  07:08:00      -24.780      -68.461        8.013       21.430       43.937       19.241      459.235     1930.470      370.220        0.406        0.138       72.807        8.139        0.012      340.957       15.337      859.395
05/28/2014  07:09:00      -39.435      -21.471       13.161       43.683       33.871       26.373     1908.246     1147.274      695.528        0.297        0.188       44.902       25.368        0.319      341.069       15.526      859.433
05/28/2014  07:10:00      -31.508      -27.009        6.914       37.582       47.201       31.193     1412.414     2227.968      972.986        0.319        0.231       41.500       32.320        0.607      341.088       15.558      859.445
05/28/2014  07:11:00      -30.255      -47.650        3.747       35.904       41.319       21.606     1289.069     1707.282      466.798        0.333        0.173       56.444       20.672        0.134      340.950       15.324      859.451
05/28/2014  07:12:00      -35.020      -29.455        8.887       24.828       30.767       20.543      616.429      946.631      422.012        0.208        0.099       45.761       16.402        0.128      340.917       15.268      859.418
05/28/2014  07:13:00      -20.477      -11.524       -0.546       43.139       42.327       27.774     1860.975     1791.551      771.373        0.249        0.221       23.497       23.656        1.014      341.033       15.465      859.390
05/28/2014  07:14:00      -38.383        1.790        3.952       41.716       29.853       22.131     1740.187      891.223      489.782        0.231        0.156       38.425       14.800        0.148      341.128       15.624      859.370
05/28/2014  07:15:00      -10.624       17.497       31.720       12.831       13.891       13.852      164.629      192.959      191.874        0.099        0.027       20.469        5.937        0.084      341.445       16.163      859.388
05/28/2014  07:16:00        7.675       13.639       22.732       19.210       12.714       17.024      369.040      161.651      289.833        0.079        0.041       15.650        9.097        0.338      340.983       15.382      859.382
05/28/2014  07:17:00       -9.236       29.875       -3.537       22.195       29.799       13.484      492.634      888.003      181.808        0.128        0.078       31.270       11.707        0.140      341.165       15.688      859.390
05/28/2014  07:18:00       38.078      -47.731       -2.858       48.650       42.189       26.732     2366.784     1779.874      714.623        0.430        0.243       61.059       32.033        0.275      340.911       15.260      859.410
05/28/2014  07:19:00       52.367      -15.287       16.659       39.209       44.745       35.655     1537.362     2002.090     1271.284        0.403        0.241       54.553       32.882        0.363      340.718       14.933      859.426
05/28/2014  07:20:00       53.393       15.628       23.870       60.679       35.310       33.473     3681.901     1246.778     1120.458        0.486        0.302       55.633       31.297        0.316      340.721       14.937      859.426
05/28/2014  07:21:00       51.871       15.433        7.556       18.526       21.608       25.267      343.230      466.909      638.444        0.222        0.072       54.119       13.595        0.063      340.650       14.817      859.424
05/28/2014  07:22:00       39.629       -5.987       -7.160       22.004       17.887       20.715      484.196      319.954      429.108        0.145        0.062       40.079       14.007        0.122      340.636       14.794      859.441
05/28/2014  07:23:00       22.981       11.621       -5.102       13.448       12.237       19.976      180.850      149.741      399.032        0.071        0.036       25.752       10.599        0.169      340.774       15.027      859.450
05/28/2014  07:24:00       17.088       58.142       -2.322       24.134       26.179       22.682      582.473      685.362      514.491        0.273        0.089       60.601       16.319        0.073      341.063       15.515      859.414
05/28/2014  07:25:00      108.343       78.864        7.159       41.244       27.218       28.243     1701.063      740.836      797.660        1.062        0.162      134.006       20.421        0.023      341.059       15.509      859.352
05/28/2014  07:26:00      125.971       90.813       13.930       34.193       35.585       30.131     1169.187     1266.303      907.907        1.383        0.167      155.292       18.013        0.013      341.058       15.507      859.331
05/28/2014  07:27:00       45.150       48.382       57.352       58.902       42.758       31.191     3469.439     1828.238      972.902        0.697        0.314       66.176       19.616        0.088      341.029       15.457      859.348
05/28/2014  07:28:00       31.382       19.778       34.366       34.997       53.244       32.192     1224.799     2834.940     1036.315        0.383        0.255       37.094       30.082        0.658      341.004       15.417      859.374
05/28/2014  07:29:00        6.750        2.929       36.858       26.849       29.573       29.819      720.884      874.547      889.179        0.195        0.124        7.358       17.151        5.433      341.071       15.530      859.396
05/28/2014  07:30:00       43.903       65.301       -4.381       18.229       26.590       24.489      332.309      707.027      599.719        0.392        0.082       78.687       19.212        0.060      340.972       15.361      859.399
05/28/2014  07:31:00       59.089       42.015        6.580       32.499       24.948       24.895     1056.187      622.421      619.782        0.380        0.115       72.504        6.290        0.008      341.067       15.525      859.394
05/28/2014  07:32:00       -3.663       17.176       39.080       22.177       23.588       23.404      491.803      556.381      547.757        0.172        0.080       17.562       16.706        0.905      341.565       16.366      859.395
05/28/2014  07:33:00        5.116       16.324       24.973       20.263       26.079       21.296      410.598      680.106      453.532        0.123        0.077       17.107       17.591        1.057      341.343       15.990      859.418
05/28/2014  07:34:00       15.347        2.189       25.677       18.745       15.445       16.892      351.380      238.553      285.335        0.089        0.044       15.502        8.078        0.272      341.547       16.335      859.440
05/28/2014  07:35:00       30.975       -9.458       33.492       34.371       36.003       24.747     1181.368     1296.196      612.429        0.263        0.154       32.386       21.563        0.443      341.170       15.697      859.446
05/28/2014  07:36:00        5.219       -2.395       26.401       17.399       42.399       26.069      302.710     1797.667      679.603        0.175        0.139        5.742       20.581       12.847      341.289       15.900      859.443
05/28/2014  07:37:00       10.691        7.725       35.744       19.341       24.764       12.800      374.089      613.247      163.841        0.130        0.058       13.190       10.892        0.682      341.734       16.653      859.436
05/28/2014  07:38:00        4.605      -32.321       14.914       24.676       26.989       21.847      608.895      728.400      477.274        0.155        0.091       32.647       12.896        0.156      340.686       14.878      859.428
05/28/2014  07:39:00       37.879       21.989       32.893       23.329       33.601       22.751      544.220     1129.017      517.620        0.260        0.110       43.798       12.486        0.081      341.163       15.686      859.416
05/28/2014  07:40:00       35.747      -23.747       18.668       21.272       36.178       23.779      452.519     1308.838      565.457        0.226        0.116       42.915       21.577        0.253      340.865       15.181      859.400
05/28/2014  07:41:00       26.978       24.108       42.612       37.385       46.452       30.534     1397.613     2157.795      932.319        0.381        0.224       36.180       24.588        0.462      341.310       15.935      859.385
05/28/2014  07:42:00       32.781       40.026       41.749       32.296       34.700       22.661     1043.038     1204.116      513.513        0.359        0.138       51.737       17.002        0.108      341.411       16.106      859.380
05/28/2014  07:43:00       34.900      -34.742        0.510       27.348       37.147       23.956      747.890     1379.913      573.899        0.256        0.135       49.244       13.351        0.074      340.796       15.065      859.397
05/28/2014  07:44:00       76.030       66.962       16.517       37.734       31.202       32.526     1423.853      973.554     1057.931        0.700        0.173      101.314       13.932        0.019      341.041       15.478      859.407
05/28/2014  07:45:00      107.745       52.076       15.143       39.665       24.778       29.505     1573.322      613.955      870.540        0.880        0.153      119.670       15.652        0.017      340.889       15.223      859.422
05/28/2014  07:46:00       46.614       47.544       37.705       22.187       26.038       22.888      492.284      677.962      523.875        0.377        0.085       66.583       13.114        0.039      341.063       15.516      859.435
05/28/2014  07:47:00       36.127        5.138       24.740       37.991       25.412       19.933     1443.309      645.777      397.322        0.221        0.124       36.490       22.725        0.388      341.026       15.455      859.446
05/28/2014  07:48:00       20.183        4.770       31.584       22.114       12.669       15.714      489.027      160.505      246.934        0.116        0.045       20.739       10.035        0.234      341.675       16.553      859.460
05/28/2014  07:49:00       15.591        4.679        0.703       21.481       11.678       23.870      461.446      136.368      569.775        0.072        0.058       16.278       14.905        0.838      341.680       16.562      859.461
05/28/2014  07:50:00       -6.486       16.643       37.200       15.525       17.192       19.448      241.038      295.574      378.237        0.131        0.046       17.862       12.229        0.469      342.302       17.618      859.472
05/28/2014  07:51:00        9.080       17.215        7.787       27.793       19.952       22.199      772.472      398.074      492.786        0.105        0.083       19.463       12.341        0.402      341.476       16.216      859.460
05/28/2014  07:52:00       26.319       11.712       10.978       15.872       13.162       13.766      251.910      173.239      189.491        0.078        0.031       28.808        5.417        0.035      341.453       16.177      859.435
05/28/2014  07:53:00       38.879       14.764        0.654       20.096       22.576       14.460      403.858      509.678      209.106        0.143        0.056       41.587        7.564        0.033      341.276       15.877      859.418
05/28/2014  07:54:00       23.212       -7.426       25.759       31.456       20.860       19.038      989.482      435.158      362.433        0.152        0.089       24.371       13.395        0.302      341.815       16.790      859.423
05/28/2014  07:55:00       43.379      -24.038        6.682       33.089       26.591       23.806     1094.888      707.075      566.728        0.244        0.118       49.594        9.468        0.036      341.367       16.032      859.438
05/28/2014  07:56:00       25.784      -20.990       25.218       19.214       34.904       24.465      369.188     1218.267      598.547        0.196        0.109       33.247       21.714        0.427      341.861       16.868      859.458
05/28/2014  07:57:00       37.760      -34.073       12.994       36.507       26.887       26.434     1332.797      722.937      698.781        0.275        0.138       50.861       20.402        0.161      341.152       15.666      859.468
05/28/2014  07:58:00       41.298      -13.241       11.932       31.389       49.363       38.990      985.295     2436.690     1520.193        0.348        0.247       43.369       26.795        0.382      341.432       16.140      859.476
05/28/2014  07:59:00       42.256        5.201       30.427       48.221       46.460       38.279     2325.265     2158.546     1465.314        0.434        0.297       42.575       37.383        0.771      341.606       16.436      859.480
05/28/2014  08:00:00       11.990       21.798       41.123       31.312       31.535       28.107      980.440      994.460      790.005        0.254        0.138       24.878       24.289        0.953      341.920       16.969      859.480
05/28/2014  08:01:00        9.742       13.011       32.518       22.483       27.297       18.849      505.507      745.115      355.284        0.146        0.080       16.254       13.402        0.680      342.142       17.346      859.484
05/28/2014  08:02:00       81.620       45.218       33.524       64.563       57.861       26.570     4168.434     3347.896      705.963        0.902        0.411       93.309       23.574        0.064      341.747       16.675      859.494
05/28/2014  08:03:00       77.195       82.038       40.709       26.891       26.217       28.797      723.101      687.313      829.261        0.829        0.112      112.647       14.744        0.017      341.568       16.370      859.501
05/28/2014  08:04:00       57.275       69.900       55.381       55.788       46.195       45.001     3112.281     2133.943     2025.056        0.925        0.364       90.369       40.354        0.199      341.829       16.814      859.488
05/28/2014  08:05:00       88.561       81.127       50.472       45.244       35.077       37.380     2046.976     1230.382     1397.258        1.082        0.234      120.103       24.877        0.043      341.679       16.559      859.479
05/28/2014  08:06:00       44.014       68.312       38.936       41.598       34.433       48.805     1730.370     1185.651     2381.901        0.671        0.265       81.263       31.755        0.153      341.842       16.835      859.466
05/28/2014  08:07:00       44.913       85.202       77.748       65.555       56.060       44.532     4297.416     3142.691     1983.076        1.237        0.471       96.315       38.237        0.158      341.937       16.998      859.454
05/28/2014  08:08:00       65.347       14.796       17.958       70.874       52.465       38.181     5023.172     2752.548     1457.800        0.702        0.462       67.001       13.317        0.040      341.827       16.812      859.472
05/28/2014  08:09:00       17.220      -18.743        6.787       21.187       41.317       28.580      448.894     1707.115      816.829        0.183        0.149       25.453       20.118        0.625      341.752       16.683      859.488
05/28/2014  08:10:00       35.207      -71.063       25.126       48.290       62.818       39.621     2331.932     3946.147     1569.803        0.738        0.392       79.306       32.662        0.170      342.002       17.108      859.494
05/28/2014  08:11:00       32.306      -41.707       15.578       31.488       41.676       31.133      991.507     1736.883      969.253        0.336        0.185       52.756       19.721        0.140      341.459       16.187      859.516
05/28/2014  08:12:00       36.611      -50.086       12.211       51.692       49.889       29.629     2672.103     2488.884      877.898        0.502        0.302       62.041       28.273        0.208      341.660       16.528      859.524
05/28/2014  08:13:00       13.908      -11.402       36.099       21.416       36.793       22.276      458.647     1353.708      496.210        0.197        0.115       17.984       16.168        0.808      342.155       17.367      859.525
05/28/2014  08:14:00       -1.869      -28.234       16.248       33.115       40.630       28.319     1096.635     1650.833      801.943        0.231        0.177       28.296       15.172        0.288      341.834       16.823      859.527
05/28/2014  08:15:00       29.582       -8.313       18.866       55.543       54.404       39.119     3085.047     2959.781     1530.270        0.444        0.379       30.727       37.491        1.489      342.179       17.407      859.495
05/28/2014  08:16:00       95.181      -77.023       -3.478       42.550       40.862       29.533     1810.538     1669.704      872.169        0.968        0.218      122.441       12.325        0.010      341.559       16.356      859.486
05/28/2014  08:17:00       25.080      -31.732       13.371       29.323       36.421       30.937      859.834     1326.498      957.125        0.248        0.157       40.446       23.989        0.352      341.921       16.971      859.483
05/28/2014  08:18:00       47.864       16.202       35.965       51.110       54.730       35.778     2612.261     2995.347     1280.034        0.537        0.344       50.532       28.296        0.314      342.123       17.312      859.493
05/28/2014  08:19:00        7.413       30.842       54.549       34.188       73.072       42.533     1168.821     5339.562     1809.094        0.615        0.416       31.720       41.417        1.705      341.986       17.080      859.501
05/28/2014  08:20:00       51.390      -48.937       11.990       39.381       44.514       41.484     1550.867     1981.460     1720.909        0.522        0.263       70.963       34.051        0.230      341.556       16.349      859.508
05/28/2014  08:21:00       45.932      -37.417       29.391       44.334       56.251       41.720     1965.546     3164.125     1740.532        0.562        0.344       59.243       33.310        0.316      342.229       17.492      859.532
05/28/2014  08:22:00       38.998        5.802       33.889       43.540       34.383       31.655     1895.734     1182.157     1002.041        0.339        0.204       39.427       20.367        0.267      342.015       17.131      859.533
05/28/2014  08:23:00       34.226       25.575       62.962       40.891       41.461       21.429     1672.067     1719.000      459.222        0.482        0.193       42.726       17.933        0.176      342.294       17.603      859.509
05/28/2014  08:24:00       96.876       82.216       81.859       87.823       47.315       53.680     7712.857     2238.705     2881.498        1.784        0.642      127.061       42.468        0.112      341.975       17.059      859.487
05/28/2014  08:25:00      113.105       53.403       31.179       85.574       72.993       35.377     7322.956     5327.931     1251.503        1.526        0.695      125.078       31.176        0.062      341.786       16.741      859.506
05/28/2014  08:26:00       29.349      -42.887       12.449       34.382       28.769       28.164     1182.102      827.636      793.194        0.283        0.140       51.968       11.793        0.051      341.562       16.361      859.504
05/28/2014  08:27:00       56.194       45.765       45.199       47.638       57.126       44.217     2269.341     3263.345     1955.136        0.739        0.374       72.472       32.376        0.200      342.089       17.254      859.505
05/28/2014  08:28:00        1.083       17.211       61.257       47.739       68.063       38.894     2278.979     4632.529     1512.729        0.624        0.421       17.245       46.719        7.340      342.280       17.581      859.507
05/28/2014  08:29:00       53.036       40.815       53.392       80.527       44.299       40.603     6484.580     1962.370     1648.575        0.871        0.505       66.923       28.194        0.177      342.316       17.640      859.512
05/28/2014  08:30:00      131.928      113.905       37.431       38.365       36.173       44.050     1471.876     1308.486     1940.443        1.825        0.236      174.297       20.437        0.014      342.033       17.159      859.529
05/28/2014  08:31:00       61.764       66.737       24.358       45.017       49.622       40.701     2026.542     2462.310     1656.569        0.750        0.307       90.933       27.727        0.093      342.212       17.464      859.537
05/28/2014  08:32:00       95.858       58.773        9.172       39.572       34.859       31.443     1565.937     1215.121      988.679        0.825        0.188      112.442       16.667        0.022      342.288       17.591      859.558
05/28/2014  08:33:00       50.596       43.876       34.507       50.148       30.186       29.736     2514.805      911.169      884.238        0.499        0.216       66.970       32.393        0.234      342.462       17.889      859.559
05/28/2014  08:34:00       31.636        1.860       18.664       29.809       25.752       30.721      888.562      663.176      943.802        0.192        0.125       31.690       16.861        0.283      342.425       17.826      859.557
05/28/2014  08:35:00        1.123       11.124       48.925       25.427       29.379       16.324      646.555      863.148      266.474        0.215        0.089       11.181       12.404        1.231      342.775       18.421      859.552
05/28/2014  08:36:00       23.169       14.843       28.025       32.157       45.189       29.252     1034.057     2042.068      855.666        0.274        0.197       27.516       30.731        1.247      342.473       17.907      859.557
05/28/2014  08:37:00       48.927      -38.590       13.221       32.884       28.868       29.132     1081.384      833.341      848.674        0.341        0.138       62.314       26.243        0.177      341.958       17.034      859.566
05/28/2014  08:38:00       45.922      -32.423        2.659       35.729       38.957       34.430     1276.594     1517.681     1185.436        0.357        0.199       56.215       24.077        0.183      341.794       16.755      859.587
05/28/2014  08:39:00       30.378        8.190       27.912       32.877       33.569       30.274     1080.896     1126.847      916.506        0.245        0.156       31.462       21.040        0.447      342.456       17.880      859.597
05/28/2014  08:40:00       25.186      -15.062       31.714       31.454       61.895       37.610      989.371     3830.969     1414.483        0.405        0.312       29.346       40.686        1.922      342.473       17.908      859.601
05/28/2014  08:41:00       -4.598       17.919       43.087       24.446       22.007       15.633      597.616      484.288      244.401        0.176        0.066       18.500       12.896        0.486      343.096       18.969      859.582
05/28/2014  08:42:00      -16.046       21.406        1.833       22.939       20.167       26.752      526.190      406.698      715.676        0.118        0.082       26.752       14.610        0.298      342.714       18.316      859.573
05/28/2014  08:43:00       23.153       -0.715       19.645       37.739       26.281       24.669     1424.212      690.687      608.545        0.182        0.136       23.164       24.049        1.078      342.921       18.670      859.577
05/28/2014  08:44:00       20.631      -89.891       10.570       28.445       53.270       38.804      809.098     2837.727     1505.770        0.688        0.258       92.228       29.639        0.103      342.764       18.404      859.565
05/28/2014  08:45:00       21.320      -21.547       42.599       47.138       47.110       39.773     2221.951     2219.345     1581.907        0.438        0.301       30.312       31.971        1.112      343.045       18.882      859.574
05/28/2014  08:46:00      -24.390      -38.807       25.325       25.528       36.121       25.179      651.657     1304.695      634.006        0.267        0.130       45.835       20.301        0.196      342.905       18.643      859.578
05/28/2014  08:47:00       30.789       -9.307       18.463       26.253       31.506       27.279      689.230      992.601      744.135        0.190        0.121       32.165       26.252        0.666      343.064       18.914      859.585
05/28/2014  08:48:00      -15.262        6.584       36.785       23.059       20.624       21.784      531.734      425.331      474.539        0.153        0.072       16.622       14.851        0.798      343.376       19.446      859.580
05/28/2014  08:49:00       17.089      -11.705       15.431       19.873       13.742       29.290      394.940      188.851      857.888        0.105        0.072       20.713       17.040        0.677      342.582       18.094      859.578
05/28/2014  08:50:00      -26.139       14.062        9.320       20.519       20.648       21.176      421.042      426.341      448.414        0.113        0.065       29.682       11.329        0.146      342.269       17.562      859.581
05/28/2014  08:51:00       -7.278      -15.964       24.061        9.995       23.410       15.849       99.898      548.039      251.177        0.089        0.045       17.545       13.900        0.628      342.951       18.722      859.584
05/28/2014  08:52:00       23.213        8.501       24.496       24.824       39.024       30.272      616.212     1522.898      916.383        0.213        0.153       24.721       27.044        1.197      342.863       18.570      859.596
05/28/2014  08:53:00       25.335       45.175       47.682       35.401       38.987       33.794     1253.198     1519.975     1142.027        0.443        0.196       51.794       23.050        0.198      342.852       18.552      859.592
05/28/2014  08:54:00      -42.831      -22.246       22.225       53.056       58.917       40.820     2814.914     3471.159     1666.254        0.539        0.398       48.264       34.732        0.518      342.707       18.306      859.584
05/28/2014  08:55:00      -14.637      -18.301       18.601       22.936       24.574       14.303      526.073      603.884      204.584        0.111        0.067       23.434       11.298        0.232      342.937       18.697      859.606
05/28/2014  08:56:00       19.742        4.931       29.348       28.158       24.338       35.923      792.851      592.334     1290.465        0.197        0.134       20.348       18.565        0.832      342.989       18.787      859.618
05/28/2014  08:57:00       43.622       11.027       17.133       30.510       19.699       29.630      930.849      388.066      877.947        0.226        0.110       44.994       21.227        0.223      342.628       18.171      859.637
05/28/2014  08:58:00       12.852        4.289       37.426       22.857       15.960       14.183      522.427      254.734      201.149        0.128        0.049       13.549        9.329        0.474      343.510       19.673      859.651
05/28/2014  08:59:00      -14.802        5.273       24.359       40.280       21.075       16.181     1622.459      444.175      261.822        0.158        0.116       15.713        9.002        0.328      342.974       18.759      859.650
05/28/2014  09:00:00      -57.912        1.543       14.740       58.863       33.895       30.360     3464.817     1148.883      921.735        0.455        0.277       57.932       36.025        0.387      343.123       19.014      859.666
05/28/2014  09:01:00       -2.406        3.443        7.572       39.377       49.383       38.220     1550.519     2438.694     1460.740        0.276        0.272        4.200       26.031       38.411      343.175       19.103      859.651
05/28/2014  09:02:00       23.142      -53.902       26.379       56.913       53.138       36.433     3239.119     2823.687     1327.377        0.576        0.370       58.660       26.358        0.202      342.567       18.067      859.651
05/28/2014  09:03:00       -8.593       -8.431       56.784       60.347       70.393       34.451     3641.715     4955.157     1186.878        0.657        0.489       12.039       40.550       11.346      343.081       18.942      859.638
05/28/2014  09:04:00     -112.071      -16.357       12.211      102.686       71.555       33.553    10544.384     5120.186     1125.787        1.488        0.840      113.258       42.040        0.138      343.048       18.884      859.631
05/28/2014  09:05:00     -181.477       11.469       -6.884       89.398       69.858       38.896     7992.013     4880.170     1512.885        2.375        0.719      181.839       38.659        0.045      342.828       18.507      859.628
05/28/2014  09:06:00     -145.168      -76.028        5.118       94.293       82.946       46.107     8891.189     6880.015     2125.832        2.238        0.895      163.872       45.354        0.077      342.939       18.698      859.635
05/28/2014  09:07:00     -200.435      -65.893       -6.287       92.120       94.985       44.445     8486.064     9022.096     1975.334        3.202        0.974      210.989       47.017        0.050      342.624       18.161      859.636
05/28/2014  09:08:00     -124.402      -37.417        4.981      152.466       79.037       52.476    23245.765     6246.853     2753.711        2.457        1.612      129.907       50.742        0.153      342.810       18.481      859.614
05/28/2014  09:09:00     -360.122      -87.892      -30.893      247.559      156.833       77.563    61285.646    24596.547     6016.051       11.511        4.595      370.692      108.113        0.085      342.820       18.494      859.590
05/28/2014  09:10:00     -420.098      -45.986      -19.483      193.660      110.482       80.014    37504.090    12206.264     6402.170       11.753        2.806      422.607       93.601        0.049      342.555       18.044      859.586
05/28/2014  09:11:00     -234.742       -8.407       -6.868      142.700       95.278       53.548    20363.323     9077.954     2867.370        4.376        1.615      234.893       60.573        0.066      342.706       18.300      859.585
05/28/2014  09:12:00     -173.017      -50.505       -0.243      107.752       99.621       51.861    11610.413     9924.335     2689.598        2.835        1.211      180.238       55.246        0.094      342.895       18.623      859.583
05/28/2014  09:13:00     -265.191      -24.292      -15.622       90.624      127.083       36.655     8212.719    16149.968     1343.575        4.843        1.285      266.301       37.571        0.020      342.716       18.316      859.594
05/28/2014  09:14:00     -193.710     -139.820        6.783      106.859       91.897       48.138    11418.881     8445.058     2317.232        3.965        1.109      238.900       51.198        0.046      342.767       18.405      859.599
05/28/2014  09:15:00     -163.499      -95.932       10.109      110.408       99.783       55.015    12189.913     9956.747     3026.645        3.060        1.259      189.565       56.076        0.088      342.935       18.692      859.598
05/28/2014  09:16:00     -134.096      -48.674        7.507      139.407       74.780       47.973    19434.325     5592.108     2301.449        2.386        1.366      142.656       60.783        0.182      342.921       18.667      859.584
05/28/2014  09:17:00      -78.781      -14.507       16.291       91.522       72.276       46.440     8376.245     5223.835     2156.639        1.122        0.788       80.106       49.269        0.378      343.063       18.910      859.579
05/28/2014  09:18:00     -132.823      -50.727        1.022       97.240       92.991       48.743     9455.614     8647.272     2375.916        2.034        1.024      142.180       51.116        0.129      343.081       18.941      859.575
05/28/2014  09:19:00     -178.890      -98.607       -9.497      127.303      170.816       63.479    16206.088    29178.189     4029.590        4.560        2.471      204.267       72.302        0.125      342.821       18.498      859.554
05/28/2014  09:20:00     -141.159     -108.797       12.780      135.016       91.361       66.724    18229.220     8346.818     4452.044        3.147        1.551      178.221       55.387        0.097      343.060       18.904      859.534
05/28/2014  09:21:00     -255.449      -77.509      -13.127      213.211      123.597       57.426    45459.026    15276.172     3297.702        6.772        3.202      266.949       71.807        0.072      343.043       18.874      859.540
05/28/2014  09:22:00     -314.633      -80.224      -17.486      108.471      134.321       68.250    11766.011    18042.239     4658.126        7.009        1.723      324.699       62.635        0.037      342.868       18.577      859.513
05/28/2014  09:23:00     -183.206     -155.591        3.202      107.127      117.812       50.674    11476.152    13879.728     2567.840        4.285        1.396      240.360       58.737        0.060      342.882       18.600      859.516
05/28/2014  09:24:00     -154.238      -83.918        4.034      108.074       93.877       46.575    11680.097     8812.836     2169.214        2.675        1.133      175.589       42.482        0.059      342.966       18.744      859.544
05/28/2014  09:25:00     -120.499     -157.185        3.935      114.525       92.590       53.746    13115.976     8572.973     2888.591        3.191        1.229      198.058       52.549        0.070      342.832       18.515      859.524
05/28/2014  09:26:00     -135.139     -153.166      -12.909      119.373      101.501       43.127    14250.022    10302.484     1859.981        3.415        1.321      204.261       40.350        0.039      342.730       18.342      859.534
05/28/2014  09:27:00     -345.505     -129.860      -12.895      163.807      131.654       64.470    26832.620    17332.717     4156.421        9.235        2.416      369.104       69.835        0.036      342.830       18.512      859.554
05/28/2014  09:28:00     -280.111     -151.788        9.110      193.966      178.444       83.724    37622.731    31842.288     7009.644        8.901        3.824      318.593       93.675        0.086      342.960       18.733      859.536
05/28/2014  09:29:00     -297.141     -232.583        1.686      196.280      143.716       92.694    38525.804    20654.171     8592.211       10.507        3.389      377.343      105.719        0.078      343.005       18.808      859.493
05/28/2014  09:30:00     -319.890      -97.762      -20.549      146.105      125.017       67.160    21346.553    15629.308     4510.519        7.689        2.074      334.495       70.139        0.044      343.037       18.863      859.522
05/28/2014  09:31:00     -352.912      -36.822        1.372      165.682      142.549       71.125    27450.430    20320.158     5058.809        8.936        2.641      354.828       84.950        0.057      342.821       18.497      859.557
05/28/2014  09:32:00     -237.786     -184.635        8.026      154.076      130.678       76.332    23739.492    17076.644     5826.562        6.866        2.332      301.052       99.382        0.109      343.045       18.879      859.560
05/28/2014  09:33:00     -219.428     -110.692        3.382      163.319       99.195       62.158    26673.220     9839.694     3863.664        5.039        2.019      245.767       61.868        0.063      342.781       18.430      859.561
05/28/2014  09:34:00      -80.979      -87.808       27.670      106.763      121.315       67.802    11398.359    14717.375     4597.057        2.287        1.536      119.449       71.925        0.363      343.163       19.079      859.553
05/28/2014  09:35:00     -328.574      -34.379      -20.321       86.591       86.906       52.884     7497.926     7552.709     2796.769        6.370        0.892      330.368       52.842        0.026      342.823       18.500      859.562
05/28/2014  09:36:00     -288.614       15.943      -24.627      143.820      103.491       56.466    20684.110    10710.401     3188.402        5.936        1.729      289.054       71.704        0.062      342.774       18.417      859.520
05/28/2014  09:37:00     -137.888       37.702        2.558      109.519       66.743       37.628    11994.503     4454.595     1415.856        1.915        0.893      142.950       39.023        0.075      343.159       19.074      859.515
05/28/2014  09:38:00     -135.773     -106.702        4.916       78.619       51.416       35.318     6180.969     2643.642     1247.387        1.996        0.504      172.684       22.095        0.016      343.047       18.882      859.532
05/28/2014  09:39:00      -67.767      -14.090       11.302       66.161       62.021       40.873     4377.261     3846.544     1670.600        0.740        0.495       69.217       42.384        0.375      343.512       19.676      859.542
05/28/2014  09:40:00      -79.904     -105.103        5.809       78.357       72.276       44.704     6139.818     5223.833     1998.419        1.541        0.668      132.027       43.012        0.106      343.121       19.009      859.527
05/28/2014  09:41:00     -270.962     -173.984       -3.850      111.803       92.851       54.588    12499.951     8621.315     2979.837        6.390        1.205      322.010       48.336        0.023      342.880       18.595      859.502
05/28/2014  09:42:00     -166.046     -183.982        1.051       99.357      112.151       54.832     9871.717    12577.816     3006.508        4.343        1.273      247.832       54.161        0.048      342.980       18.768      859.488
05/28/2014  09:43:00     -106.570      -30.929       21.002      117.841      102.102       61.148    13886.424    10424.747     3739.106        2.040        1.403      110.968       69.327        0.390      343.495       19.645      859.483
05/28/2014  09:44:00      -85.943      -28.493       10.988       93.306       54.307       51.060     8705.953     2949.250     2607.127        1.129        0.713       90.543       47.877        0.280      343.630       19.876      859.477
05/28/2014  09:45:00     -213.386        3.731       -1.244      110.876       92.744       63.924    12293.492     8601.439     4086.239        3.526        1.249      213.419       59.283        0.077      343.323       19.351      859.465
05/28/2014  09:46:00     -377.889      -67.257       -0.707      171.021      144.725       90.779    29248.053    20945.229     8240.869       10.287        2.922      383.828       85.463        0.050      343.157       19.067      859.465
05/28/2014  09:47:00     -430.831      -56.182       -6.479      164.172       92.139       69.469    26952.367     8489.506     4825.952       11.453        2.013      434.479       83.295        0.037      342.929       18.680      859.496
05/28/2014  09:48:00     -279.122      -50.173      -10.305      160.345       71.316       66.208    25710.501     5085.929     4383.488        5.785        1.759      283.596       70.474        0.062      342.789       18.443      859.504
05/28/2014  09:49:00     -288.918       23.318      -16.013      137.859      110.655       61.883    19005.238    12244.441     3829.514        5.967        1.754      289.857       71.050        0.060      342.963       18.737      859.505
05/28/2014  09:50:00     -208.319      -88.195       -2.346      128.884      101.322       53.580    16610.968    10266.068     2870.802        4.046        1.487      226.220       46.053        0.041      343.201       19.143      859.530
05/28/2014  09:51:00     -100.154     -169.234       -3.648      111.907       80.381       40.189    12523.135     6461.123     1615.120        2.964        1.030      196.649       43.282        0.048      342.811       18.481      859.529
05/28/2014  09:52:00      -47.267      -65.362        0.981       67.253       52.847       36.273     4523.002     2792.849     1315.739        0.757        0.432       80.662       33.377        0.171      343.121       19.011      859.485
05/28/2014  09:53:00     -116.822     -138.592        1.681      104.562       92.869       53.880    10933.272     8624.632     2903.072        2.765        1.123      181.260       57.738        0.101      343.011       18.819      859.470
05/28/2014  09:54:00      -94.643      -46.564        4.226       88.968       75.067       40.984     7915.340     5635.126     1679.710        1.318        0.762      105.478       42.203        0.160      343.575       19.783      859.441
05/28/2014  09:55:00     -479.076       63.364      -42.167      144.944      136.092       60.872    21008.652    18521.052     3705.431       13.926        2.162      483.248       49.781        0.011      342.991       18.785      859.431
05/28/2014  09:56:00     -266.582      -26.590      -21.200      126.540      143.191       62.275    16012.323    20503.606     3878.124        5.630        2.020      267.905       59.842        0.050      343.285       19.287      859.445
05/28/2014  09:57:00     -272.180      -87.513      -12.263      117.915       92.132       55.250    13903.964     8488.278     3052.531        5.366        1.272      285.903       53.607        0.035      343.089       18.952      859.443
05/28/2014  09:58:00     -261.349      -64.675       -5.126      104.234       98.363       51.608    10864.713     9675.279     2663.337        4.785        1.160      269.233       51.150        0.036      343.117       18.999      859.421
05/28/2014  09:59:00     -391.123     -127.296      -11.167      169.340      118.987       65.983    28675.866    14157.963     4353.770       10.824        2.359      411.316       68.419        0.028      343.278       19.274      859.382
05/28/2014  10:00:00     -333.392     -239.361       -1.771      214.891      131.910       91.773    46178.349    17400.143     8422.334       12.021        3.600      410.419      101.670        0.061      343.210       19.157      859.406
05/28/2014  10:01:00     -260.365     -159.789        1.571      107.162      122.397       63.097    11483.606    14981.047     3981.255        6.188        1.522      305.487       62.133        0.041      343.080       18.936      859.417
05/28/2014  10:02:00     -329.758     -192.110      -27.548       98.871      104.833       63.930     9775.560    10989.897     4087.106        8.562        1.243      381.637       52.207        0.019      343.154       19.062      859.391
05/28/2014  10:03:00     -173.877      -22.291       12.775      128.548      100.950       52.901    16524.612    10190.824     2798.544        3.020        1.476      175.300       60.333        0.118      343.467       19.596      859.391
05/28/2014  10:04:00     -297.165     -127.513       -4.774      164.975      134.029       70.130    27216.725    17963.696     4918.188        7.733        2.505      323.367       78.659        0.059      343.345       19.387      859.392
05/28/2014  10:05:00     -428.515      -20.294      -26.621      156.780       94.579       67.125    24579.828     8945.140     4505.728       11.138        1.902      428.995       76.872        0.032      343.124       19.009      859.406
05/28/2014  10:06:00     -496.250      -23.776      -28.269      204.420      146.655       83.543    41787.596    21507.712     6979.372       15.894        3.514      496.819       98.811        0.040      343.065       18.911      859.386
05/28/2014  10:07:00     -261.430     -176.591        4.356      183.205      124.810       83.550    33563.949    15577.585     6980.539        7.782        2.806      315.484       93.441        0.088      343.273       19.266      859.375
05/28/2014  10:08:00     -242.493      -22.833        1.592      142.477      113.582       69.721    20299.562    12900.885     4861.020        4.869        1.903      243.566       75.869        0.097      343.416       19.510      859.386
05/28/2014  10:09:00     -336.110      -53.729       -8.688      163.317      126.417       65.530    26672.289    15981.193     4294.217        8.143        2.347      340.377       65.967        0.038      343.343       19.385      859.405
05/28/2014  10:10:00     -457.466      -59.977      -11.524      178.221      155.556       81.891    31762.793    24197.804     6706.084       13.782        3.133      461.381       84.105        0.033      343.200       19.140      859.414
05/28/2014  10:11:00     -254.319     -139.004      -12.141      176.616      122.599       78.007    31193.207    15030.427     6085.159        6.822        2.615      289.828       90.214        0.097      343.478       19.615      859.417
05/28/2014  10:12:00     -347.130     -103.557      -10.943      175.064      144.975       74.972    30647.407    21017.728     5620.733        9.430        2.864      362.248       78.419        0.047      343.387       19.460      859.419
05/28/2014  10:13:00     -265.884      -17.182      -20.233      116.963       99.595       54.291    13680.323     9919.095     2947.465        4.897        1.327      266.438       54.857        0.042      343.220       19.176      859.446
05/28/2014  10:14:00     -168.013     -128.263       -2.955      123.523      129.847       63.517    15257.873    16860.276     4034.456        4.041        1.808      211.376       59.017        0.078      343.209       19.158      859.436
05/28/2014  10:15:00     -396.536      -36.364      -20.691      175.790      171.841       80.181    30901.963    29529.172     6428.941       11.291        3.343      398.200       89.311        0.050      343.153       19.060      859.430
05/28/2014  10:16:00     -376.290      -68.363      -30.699      156.999      167.969       61.332    24648.765    28213.557     3761.658       10.191        2.831      382.449       56.438        0.022      343.122       19.008      859.414
05/28/2014  10:17:00     -502.602      -10.391      -46.075      183.716      136.862       72.653    33751.584    18731.206     5278.430       15.629        2.888      502.710       79.328        0.025      343.229       19.190      859.395
05/28/2014  10:18:00     -570.993       23.776      -49.650      229.272      151.945       81.335    52565.605    23087.419     6615.339       20.565        4.113      571.488      104.985        0.034      343.158       19.067      859.381
05/28/2014  10:19:00     -446.231        1.460      -43.034      168.993      158.555       73.837    28558.594    25139.694     5451.921       13.005        2.958      446.233       76.324        0.029      343.566       19.764      859.380
05/28/2014  10:20:00     -613.077     -130.801      -17.657      215.442      180.620      103.189    46415.112    32623.466    10647.908       24.147        4.484      626.875      104.861        0.028      343.293       19.298      859.386
05/28/2014  10:21:00     -316.396     -109.019      -16.103      204.778      122.158       74.206    41933.846    14922.614     5506.583        8.729        3.118      334.652       65.554        0.038      343.323       19.350      859.476
05/28/2014  10:22:00     -312.740     -165.684       -7.107      148.900      122.604       59.887    22171.215    15031.692     3586.501        8.304        2.039      353.918       60.861        0.030      343.121       19.007      859.524
05/28/2014  10:23:00     -262.658     -222.204        1.985      114.068       96.930       63.366    13011.613     9395.455     4015.240        7.239        1.321      344.040       52.780        0.024      343.078       18.934      859.522
05/28/2014  10:24:00     -283.089      -60.795       11.672      237.616      165.338       91.036    56461.169    27336.600     8287.608        8.801        4.604      289.543      108.158        0.140      343.443       19.555      859.471
05/28/2014  10:25:00     -478.644      -98.019      -22.393      145.185      113.342       74.328    21078.561    12846.402     5524.697       13.932        1.972      488.577       73.204        0.022      343.294       19.301      859.498
05/28/2014  10:26:00     -306.297     -136.313       -1.924      132.361      113.764       61.760    17519.426    12942.180     3814.283        7.333        1.714      335.259       60.799        0.033      343.307       19.324      859.516
05/28/2014  10:27:00     -134.548      -83.700       32.082      176.298      117.195       79.657    31080.815    13734.686     6345.199        3.864        2.558      158.457       94.157        0.353      343.702       19.997      859.492
05/28/2014  10:28:00     -109.482      -10.125       16.236      140.164      107.631       66.822    19646.058    11584.527     4465.168        2.402        1.785      109.950       73.515        0.447      343.778       20.128      859.517
05/28/2014  10:29:00     -347.938       57.622        0.373      249.974      119.129       86.816    62487.128    14191.677     7536.974       10.428        4.211      352.678      112.898        0.102      343.732       20.049      859.486
05/28/2014  10:30:00     -178.566      -36.338       36.372      200.410      155.378       97.432    40164.261    24142.241     9492.995        5.415        3.690      182.226      100.521        0.304      343.656       19.918      859.489
05/28/2014  10:31:00     -322.726     -114.502      -20.613      151.128      116.773       73.186    22839.654    13635.928     5356.218        7.975        2.092      342.436       69.195        0.041      343.438       19.547      859.493
05/28/2014  10:32:00     -430.696     -117.698      -15.039      221.573      193.719       92.544    49094.629    37526.946     8564.430       14.736        4.759      446.489      108.942        0.060      343.407       19.492      859.490
05/28/2014  10:33:00     -200.657      -81.532       27.654      247.521      150.271       94.164    61266.438    22581.381     8866.771        7.018        4.636      216.589      118.783        0.301      343.620       19.859      859.489
05/28/2014  10:34:00     -402.501      -66.371      -16.015      201.215      203.536       79.144    40487.620    41427.056     6263.784       12.741        4.409      407.936       65.783        0.026      343.590       19.805      859.533
05/28/2014  10:35:00     -559.406     -169.617       -8.111      165.449      131.932       77.513    27373.419    17405.952     6008.324       19.627        2.539      584.555       82.240        0.020      343.139       19.036      859.540
05/28/2014  10:36:00     -385.024      -27.499       -7.100      177.585      185.585       79.018    31536.322    34441.729     6243.776       11.062        3.611      386.005       89.986        0.054      343.468       19.597      859.530
05/28/2014  10:37:00     -363.504     -131.707       -7.556      184.586      148.217       72.889    34071.912    21968.361     5312.848       10.543        3.068      386.629       92.321        0.057      343.377       19.443      859.532
05/28/2014  10:38:00     -318.364      -50.595       -2.792      157.619      106.359       63.663    24843.835    11312.322     4053.031        7.206        2.010      322.359       61.365        0.036      343.467       19.597      859.534
05/28/2014  10:39:00     -398.138      -68.725      -24.310      129.460      141.807       68.904    16759.858    20109.306     4747.754       10.271        2.081      404.026       67.658        0.028      343.317       19.340      859.558
05/28/2014  10:40:00     -240.331     -146.673        0.569      158.441      120.077       79.586    25103.624    14418.459     6333.912        6.255        2.293      281.553       82.793        0.086      343.411       19.500      859.563
05/28/2014  10:41:00     -258.662     -109.922       -5.988      194.262       99.275       80.407    37737.629     9855.590     6465.281        6.653        2.703      281.049       93.552        0.111      343.584       19.794      859.559
05/28/2014  10:42:00     -281.934       51.688      -20.483      147.055       84.970       60.099    21625.285     7219.859     3611.878        5.751        1.623      286.633       58.575        0.042      343.535       19.712      859.562
05/28/2014  10:43:00     -309.598       61.462      -25.468      131.555       81.101       55.800    17306.706     6577.376     3113.622        6.363        1.350      315.640       61.689        0.038      343.477       19.612      859.532
05/28/2014  10:44:00     -374.863     -116.426       -7.920      242.694      160.092       82.962    58900.460    25629.406     6882.673       12.276        4.571      392.527      108.571        0.077      343.708       20.006      859.496
05/28/2014  10:45:00     -424.299     -173.528      -16.754      201.971      171.292       87.086    40792.386    29340.904     7583.943       14.405        3.886      458.412      106.444        0.054      343.620       19.857      859.491
05/28/2014  10:46:00     -369.755     -214.897      -10.042      208.502      177.980      106.910    43473.043    31676.958    11429.660       13.477        4.329      427.668      117.930        0.076      343.451       19.569      859.497
05/28/2014  10:47:00     -457.325      -68.775      -44.945      168.345      121.329       62.987    28340.071    14720.791     3967.380       13.145        2.351      462.468       62.382        0.018      343.364       19.419      859.528
05/28/2014  10:48:00     -236.762      -57.017       -1.705      230.534      104.765       65.917    53146.000    10975.610     4345.091        6.387        3.423      243.531       78.073        0.103      343.820       20.199      859.499
05/28/2014  10:49:00     -362.299      -38.898       -8.658      159.090      134.886       68.631    25309.552    18194.203     4710.204        9.052        2.411      364.381       69.926        0.037      343.804       20.172      859.508
05/28/2014  10:50:00     -456.380      -81.108      -23.542      144.086      146.831       79.003    20760.813    21559.469     6241.405       13.198        2.428      463.531       73.873        0.025      343.566       19.764      859.495
05/28/2014  10:51:00     -314.600     -148.304      -10.135      159.067       91.915       66.224    25302.374     8448.406     4385.610        7.960        1.907      347.803       76.300        0.048      343.861       20.268      859.447
05/28/2014  10:52:00     -260.934      -47.595       -8.364      121.611      140.539       67.109    14789.138    19751.253     4503.591        5.473        1.952      265.240       45.178        0.029      344.019       20.538      859.460
05/28/2014  10:53:00     -293.181     -115.276        6.350      209.088      121.736       82.903    43717.837    14819.693     6872.969        8.233        3.271      315.030       96.337        0.094      343.960       20.439      859.449
05/28/2014  10:54:00     -236.461       21.347      -28.588      134.413      157.072       81.310    18066.821    24671.554     6611.356        5.326        2.467      237.422       77.661        0.107      343.752       20.082      859.446
05/28/2014  10:55:00     -371.946      -86.004       -7.797      181.369      163.966       91.999    32894.535    26884.789     8463.856       10.701        3.412      381.760       80.420        0.044      343.859       20.264      859.460
05/28/2014  10:56:00     -371.344     -168.904      -23.049      165.576      127.234       74.975    27415.411    16188.418     5621.299       10.808        2.461      407.952       84.131        0.043      343.970       20.455      859.475
05/28/2014  10:57:00     -320.051       -4.591      -15.231      155.552      164.982       79.515    24196.495    27218.933     6322.698        8.020        2.887      320.084       78.351        0.060      344.172       20.799      859.503
05/28/2014  10:58:00     -316.356     -152.448        2.854      228.404      166.999       92.391    52168.168    27888.746     8536.179       10.594        4.430      351.171       72.442        0.043      343.685       19.969      859.545
05/28/2014  10:59:00     -146.093     -162.066       22.025      207.892      161.383       89.722    43219.216    26044.604     8050.033        6.269        3.866      218.194      110.210        0.255      343.827       20.212      859.548
05/28/2014  11:00:00     -161.618     -114.914        9.998      157.033      131.310       72.333    24659.285    17242.258     5232.088        4.327        2.357      198.307       87.046        0.193      343.783       20.137      859.525
05/28/2014  11:01:00     -100.603       16.250       20.247      149.776       97.892       57.543    22432.757     9582.866     3311.226        2.305        1.766      101.907       42.448        0.174      344.091       20.664      859.508
05/28/2014  11:02:00     -404.303        2.947      -33.949      173.051      157.359       71.405    29946.657    24761.726     5098.659       11.220        2.990      404.314       65.638        0.026      343.897       20.329      859.515
05/28/2014  11:03:00     -146.733      -42.266       22.790      157.688      108.715       71.550    24865.652    11818.877     5119.405        3.281        2.090      152.699       68.163        0.199      344.090       20.660      859.481
05/28/2014  11:04:00     -153.323       50.513      -22.610      188.756       65.606       53.237    35628.742     4304.184     2834.166        3.466        2.138      161.429       66.501        0.170      344.181       20.817      859.441
05/28/2014  11:05:00     -397.030       87.696      -42.212      157.762       95.173       62.341    24888.884     9057.883     3886.398       10.246        1.892      406.600       65.319        0.026      343.651       19.908      859.431
05/28/2014  11:06:00     -400.742       10.167      -30.951       99.577      115.195       52.717     9915.632    13269.991     2779.055        9.380        1.298      400.871       49.949        0.016      343.705       20.000      859.418
05/28/2014  11:07:00     -181.800     -104.959        2.793      168.964      127.949       79.952    28548.863    16370.933     6392.253        4.768        2.566      209.923       83.261        0.157      344.188       20.828      859.439
05/28/2014  11:08:00     -431.798      -53.573      -22.779      233.461      173.134       81.753    54504.230    29975.354     6683.480       14.048        4.558      435.109       87.666        0.041      344.016       20.533      859.436
05/28/2014  11:09:00     -512.851     -128.829      -19.899      237.857      190.799      106.343    56576.103    36404.083    11308.837       19.213        5.214      528.784      121.206        0.053      343.788       20.144      859.436
05/28/2014  11:10:00     -453.087      -48.927      -37.709      187.935      156.159       84.470    35319.512    24385.669     7135.263       13.796        3.342      455.721       86.869        0.036      343.634       19.881      859.472
05/28/2014  11:11:00     -297.439       14.786      -20.327      124.839      108.752       58.675    15584.827    11827.044     3442.742        5.997        1.543      297.806       49.879        0.028      343.843       20.237      859.481
05/28/2014  11:12:00     -157.880      -81.845        7.699      123.851      102.856       61.627    15339.147    10579.302     3797.835        3.069        1.486      177.833       57.827        0.106      344.302       21.021      859.480
05/28/2014  11:13:00     -275.434     -232.788        2.705      176.268      141.111       74.326    31070.319    19912.203     5524.300        9.327        2.825      360.630       81.637        0.051      343.876       20.294      859.463
05/28/2014  11:14:00     -330.766     -117.115      -21.101      121.654      131.271       66.130    14799.583    17232.106     4373.232        7.998        1.820      350.887       55.812        0.025      343.838       20.229      859.449
05/28/2014  11:15:00     -207.049      -70.148        3.916      162.046       87.001       59.983    26259.067     7569.090     3597.908        4.261        1.871      218.609       73.980        0.115      344.293       21.007      859.439
05/28/2014  11:16:00     -298.135      -71.284      -10.605      160.762      107.866       74.334    25844.317    11634.983     5525.497        6.853        2.150      306.539       87.468        0.081      344.141       20.745      859.425
05/28/2014  11:17:00     -389.588     -154.855      -15.532      205.052      144.831       76.034    42046.292    20976.134     5781.134       12.239        3.440      419.236       67.022        0.026      344.191       20.832      859.410
05/28/2014  11:18:00     -490.352      -97.160      -22.746      245.784      170.879      109.502    60409.836    29199.694    11990.765       17.598        5.080      499.885      124.283        0.062      343.892       20.321      859.401
05/28/2014  11:19:00     -458.733       -6.305      -14.290      222.081      146.674      109.247    49320.134    21513.158    11934.865       14.671        4.138      458.776      116.296        0.064      343.906       20.345      859.426
05/28/2014  11:20:00     -383.622     -108.162       -9.889      192.075      159.445       65.683    36892.996    25422.632     4314.248       11.278        3.331      398.579       77.012        0.037      343.718       20.024      859.446
05/28/2014  11:21:00     -244.711     -180.981       -5.865      209.112      142.785       87.448    43727.621    20387.608     7647.102        8.220        3.588      304.364       90.620        0.089      343.765       20.104      859.425
05/28/2014  11:22:00     -120.315      -36.532        2.115      172.820      119.566       64.692    29866.633    14296.041     4185.014        3.207        2.417      125.739       56.750        0.204      344.134       20.736      859.419
05/28/2014  11:23:00     -542.376      -90.321      -13.318      244.573      165.929       80.573    59815.894    27532.480     6491.962       19.815        4.692      549.845      104.570        0.036      343.962       20.440      859.370
05/28/2014  11:24:00     -538.233      -71.163      -38.994      241.145      189.900       88.334    58150.951    36062.054     7802.865       19.913        5.101      542.918      100.958        0.035      343.723       20.033      859.385
05/28/2014  11:25:00     -512.154     -154.576      -25.954      154.704      157.331       79.068    23933.304    24752.956     6251.674       17.089        2.747      534.972       79.693        0.022      343.727       20.039      859.363
05/28/2014  11:26:00     -349.942     -106.496      -11.066      185.289      192.149       73.257    34332.029    36921.310     5366.561       10.526        3.831      365.788       72.593        0.039      344.003       20.511      859.365
05/28/2014  11:27:00     -254.464      -88.240       -2.006      172.016      124.946       79.846    29589.451    15611.594     6375.312        6.205        2.579      269.329       94.157        0.122      344.189       20.828      859.395
05/28/2014  11:28:00     -430.514     -185.439      -16.273      220.949      173.592       90.019    48818.494    30134.135     8103.495       15.351        4.353      468.753       95.270        0.041      343.931       20.389      859.396
05/28/2014  11:29:00     -584.839     -199.710      -28.323      175.907      147.775       80.308    30943.219    21837.335     6449.434       22.096        2.961      617.997       83.310        0.018      343.644       19.898      859.390
05/28/2014  11:30:00     -470.052     -117.638      -19.577      275.723      185.669       99.901    76022.964    34472.962     9980.263       17.780        6.024      484.548      127.069        0.069      343.977       20.466      859.371
05/28/2014  11:31:00     -499.689     -164.129      -12.156      252.495      184.940      103.387    63753.947    34202.856    10688.841       19.269        5.432      525.954      121.670        0.054      343.737       20.056      859.413
05/28/2014  11:32:00     -284.073     -129.402       -9.611      179.784      151.877       82.778    32322.406    23066.620     6852.234        7.988        3.112      312.157       77.076        0.061      344.094       20.666      859.431
05/28/2014  11:33:00     -558.712     -241.429      -15.282      188.397      145.138       70.891    35493.404    21065.153     5025.493       21.612        3.079      608.643       71.349        0.014      343.468       19.600      859.426
05/28/2014  11:34:00     -522.685     -128.195      -11.810      263.970      166.527       84.985    69680.254    27731.286     7222.380       19.718        5.232      538.176      103.536        0.037      343.915       20.359      859.467
05/28/2014  11:35:00     -555.130      -58.809      -39.468      225.834      165.427       94.575    51001.073    27366.190     8944.383       20.023        4.366      558.237      112.458        0.041      343.769       20.111      859.484
05/28/2014  11:36:00     -618.135      -20.022      -56.947      206.992      175.950       80.288    42845.782    30958.494     6446.133       23.298        4.013      618.459       94.851        0.024      343.667       19.936      859.491
05/28/2014  11:37:00     -421.814     -127.991      -18.250      247.234      159.856       87.076    61124.504    25553.813     7582.214       14.443        4.713      440.805      110.166        0.062      343.884       20.306      859.454
05/28/2014  11:38:00     -506.147     -141.668       -7.363      232.287      216.051      107.013    53957.147    46677.885    11451.730       19.418        5.604      525.600      105.540        0.040      343.866       20.277      859.362
05/28/2014  11:39:00     -550.883     -100.932      -35.193      247.039      248.387      104.000    61028.182    61696.046    10815.934       22.419        6.677      560.053      104.450        0.035      343.814       20.188      859.318
05/28/2014  11:40:00     -560.333     -108.624      -28.931      313.723      228.267      123.468    98422.238    52105.796    15244.294       24.616        8.289      570.764      159.536        0.078      343.926       20.378      859.364
05/28/2014  11:41:00     -348.774     -118.413      -10.680      249.858      198.202      111.239    62429.210    39283.859    12374.091       12.491        5.704      368.327      119.984        0.106      343.934       20.392      859.420
05/28/2014  11:42:00     -625.866      -68.715      -41.559      294.339      147.301      102.220    86635.242    21697.551    10448.953       25.845        5.939      629.627      113.537        0.033      343.760       20.095      859.489
05/28/2014  11:43:00     -487.399      -78.752      -13.735      228.620      120.916       85.283    52267.193    14620.765     7273.135       15.904        3.708      493.720       98.303        0.040      343.807       20.175      859.524
05/28/2014  11:44:00     -301.839       41.790      -31.395      145.129      187.788       76.953    21062.508    35264.453     5921.772        7.803        3.112      304.719       64.520        0.045      343.853       20.253      859.486
05/28/2014  11:45:00     -296.932       28.777      -36.628      155.245      129.506       80.180    24100.897    16771.846     6428.869        6.881        2.365      298.323       77.610        0.068      344.108       20.689      859.401
05/28/2014  11:46:00     -619.222     -149.243        3.107      369.267      245.875      136.929   136358.297    60454.572    18749.650       31.060       10.778      636.953      172.578        0.073      344.057       20.603      859.370
05/28/2014  11:47:00     -469.580     -181.999       -9.734      251.669      224.157       85.833    63337.081    50246.236     7367.316       18.731        6.048      503.616      108.904        0.047      343.775       20.121      859.513
05/28/2014  11:48:00     -295.066     -122.690       16.916      237.612      202.487       95.945    56459.317    41001.041     9205.469       10.451        5.333      319.557      115.148        0.130      343.889       20.317      859.518
05/28/2014  11:49:00     -569.095     -210.328      -19.319      176.693      157.235       77.699    31220.566    24722.795     6037.086       21.522        3.099      606.718       63.180        0.011      343.681       19.960      859.498
05/28/2014  11:50:00     -455.385     -134.324      -22.344      267.747      184.323       90.731    71688.555    33974.940     8232.201       16.988        5.695      474.782      107.503        0.051      343.960       20.435      859.439
05/28/2014  11:51:00     -457.499     -136.640      -17.328      235.640      205.189       95.617    55526.299    42102.591     9142.602       16.750        5.339      477.468       96.485        0.041      344.021       20.542      859.387
05/28/2014  11:52:00     -388.501      -29.174       -9.591      323.544      190.808       90.661   104680.429    36407.506     8219.336       15.056        7.465      389.595      131.609        0.114      344.386       21.167      859.351
05/28/2014  11:53:00     -663.699     -101.924      -24.777      308.250      219.975      123.928    95018.088    48388.970    15358.060       30.510        7.938      671.480      129.766        0.037      344.041       20.575      859.410
05/28/2014  11:54:00     -409.342      -54.945      -20.361      201.179      183.058       89.885    40472.950    33510.093     8079.225       12.651        4.103      413.013       71.251        0.030      344.030       20.558      859.462
05/28/2014  11:55:00     -481.664      -11.400      -17.009      251.082      168.553      106.181    63041.927    28410.236    11274.340       16.755        5.136      481.799      107.202        0.050      343.840       20.231      859.469
05/28/2014  11:56:00     -243.519     -164.123        3.002      183.488      136.978       78.357    33667.702    18763.011     6139.825        7.240        2.929      293.663       75.475        0.066      344.099       20.674      859.485
05/28/2014  11:57:00     -472.740     -162.876       23.799      286.315      223.574      117.384    81976.509    49985.530    13778.894       19.813        7.287      500.012      147.347        0.087      343.962       20.440      859.476
05/28/2014  11:58:00     -523.388      -57.891      -23.655      210.063      178.597      106.199    44126.587    31896.924    11278.267       18.256        4.365      526.580      111.760        0.045      343.777       20.126      859.469
05/28/2014  11:59:00     -337.523     -152.337        0.493      245.223      212.601      111.422    60134.495    45199.067    12414.971       12.741        5.887      370.308      129.122        0.122      344.014       20.530      859.405
05/28/2014  12:00:00     -329.300     -153.960      -12.304      207.510      192.872       90.489    43060.570    37199.525     8188.302       11.035        4.422      363.514      103.874        0.082      344.386       21.166      859.386
05/28/2014  12:01:00     -618.207     -408.175      -43.120      259.267      163.258       98.698    67219.545    26653.285     9741.361       32.711        5.181      740.802       90.611        0.015      344.100       20.676      859.380
05/28/2014  12:02:00     -253.826      -18.738        8.223      187.367      160.861       81.585    35106.494    25876.409     6656.161        6.623        3.382      254.517       78.359        0.095      344.386       21.167      859.446
05/28/2014  12:03:00     -435.316       24.367      -22.377      221.604      159.245       81.624    49108.161    25359.113     6662.488       13.585        4.056      435.998      102.551        0.055      344.096       20.670      859.487
05/28/2014  12:04:00     -502.104       67.592      -27.114      261.805      209.048      106.403    68541.804    43701.091    11321.598       19.046        6.178      506.634      100.668        0.039      343.957       20.432      859.424
05/28/2014  12:05:00     -758.873     -239.731      -57.253      260.241      177.973      113.472    67725.129    31674.313    12875.838       37.443        5.614      795.839      102.491        0.017      343.880       20.301      859.400
05/28/2014  12:06:00     -413.613     -163.267      -17.209      231.195      162.421       70.960    53451.012    26380.691     5035.314       14.143        4.243      444.671       99.480        0.050      344.185       20.820      859.380
05/28/2014  12:07:00     -506.744     -176.433      -19.128      254.965      192.395      112.704    65007.338    37016.009    12702.191       20.148        5.736      536.580      115.085        0.046      344.131       20.727      859.357
05/28/2014  12:08:00     -641.795     -220.802      -24.490      287.178      270.816      134.757    82471.470    73341.380    18159.385       31.758        8.699      678.716      135.130        0.040      343.914       20.359      859.332
05/28/2014  12:09:00     -459.068      -57.703      -16.815      245.065      185.266       91.533    60056.851    34323.566     8378.224       15.854        5.138      462.681      111.211        0.058      344.061       20.609      859.413
05/28/2014  12:10:00     -230.571      -89.423        2.128      195.327      178.962       87.679    38152.728    32027.294     7687.657        6.950        3.893      247.304       82.379        0.111      344.404       21.196      859.396
05/28/2014  12:11:00     -461.807     -147.729      -21.929      316.178      179.167      113.106    99968.519    32100.732    12792.880       19.019        7.243      484.861      155.211        0.102      344.243       20.920      859.408
05/28/2014  12:12:00     -247.085     -152.914        7.761      223.937      183.197      121.303    50147.937    33561.114    14714.307        9.144        4.921      290.575      139.243        0.230      344.348       21.100      859.371
05/28/2014  12:13:00     -127.195     -113.644       26.765      233.683      153.673      102.812    54607.592    23615.385    10570.259        5.928        4.440      170.568      112.229        0.433      344.340       21.088      859.327
05/28/2014  12:14:00     -311.635     -256.875       -0.622      249.283      179.439       94.838    62142.090    32198.200     8994.330       13.320        5.167      403.858      110.944        0.075      344.355       21.112      859.306
05/28/2014  12:15:00     -250.815      -81.014       21.896      184.482      150.528      101.975    34033.498    22658.595    10398.946        6.851        3.355      263.574      105.697        0.161      344.557       21.458      859.340
05/28/2014  12:16:00     -503.597      -35.585      -22.181      243.207      176.524       95.397    59149.746    31160.593     9100.557       17.737        4.971      504.852      107.539        0.045      344.289       20.999      859.384
05/28/2014  12:17:00     -673.913       88.895      -58.339      283.737      179.746      118.993    80506.546    32308.611    14159.306       29.619        6.349      679.751      134.147        0.039      343.918       20.366      859.328
05/28/2014  12:18:00     -545.931      -25.680      -18.901      317.327      226.730      110.400   100696.300    51406.367    12188.123       23.164        8.215      546.534      152.630        0.078      344.210       20.863      859.260
05/28/2014  12:19:00     -714.200     -162.756      -40.663      243.217      222.730       95.673    59154.589    49608.688     9153.402       32.805        5.896      732.510      106.287        0.021      344.030       20.556      859.279
05/28/2014  12:20:00     -639.169     -180.157      -29.828      225.613      226.312       93.942    50901.230    51217.083     8825.126       27.639        5.547      664.073       92.441        0.019      343.879       20.298      859.334
05/28/2014  12:21:00     -446.029     -112.773      -17.586      197.599      199.054       80.514    39045.318    39622.628     6482.486       14.854        4.258      460.065       80.803        0.031      343.907       20.346      859.301
05/28/2014  12:22:00     -339.991      -42.229       -3.035      161.817      160.154       85.943    26184.784    25649.183     7386.281        8.829        2.961      342.604       86.140        0.063      344.330       21.069      859.311
05/28/2014  12:23:00     -441.064     -235.308       19.034      260.420      196.765      118.062    67818.676    38716.371    13938.631       18.535        6.024      499.907      143.695        0.083      344.298       21.015      859.330
05/28/2014  12:24:00     -247.897      -79.680       -9.920      187.545      127.809       78.552    35173.026    16335.091     6170.491        6.278        2.884      260.388       69.165        0.071      344.397       21.184      859.329
05/28/2014  12:25:00     -206.495      -21.564       24.411      163.726      142.894       72.502    26806.106    20418.836     5256.526        4.808        2.624      207.618       84.081        0.164      344.589       21.513      859.324
05/28/2014  12:26:00     -445.165      -73.747      -13.350      320.694      173.483      107.737   102844.901    30096.356    11607.243       17.414        7.227      451.233      146.302        0.105      344.345       21.095      859.281
05/28/2014  12:27:00     -668.095      -77.679      -31.910      267.655      220.215      110.877    71638.995    48494.703    12293.642       29.289        6.621      672.596      122.976        0.033      343.991       20.490      859.249
05/28/2014  12:28:00     -530.924     -117.445      -30.773      226.595      149.306       83.103    51345.264    22292.335     6906.127       18.857        4.027      543.759       78.836        0.021      344.134       20.733      859.194
05/28/2014  12:29:00     -537.971     -205.490      -20.699      225.227      232.414      108.990    50727.073    54016.307    11878.770       22.432        5.831      575.882       99.275        0.030      344.393       21.177      859.179
05/28/2014  12:30:00     -265.471     -274.358        9.099      241.928      191.671      115.014    58528.943    36737.620    13228.268       12.714        5.425      381.769      120.365        0.099      344.123       20.715      859.217
05/28/2014  12:31:00     -199.341      -84.893        9.176      243.058      147.080      103.512    59077.012    21632.660    10714.734        6.921        4.571      216.665      118.051        0.297      344.486       21.337      859.215
05/28/2014  12:32:00     -485.189     -205.678      -26.783      239.731      200.802      101.036    57470.887    40321.428    10208.324       19.319        5.400      526.983      114.471        0.047      344.583       21.501      859.195
05/28/2014  12:33:00     -446.960      -66.219       -0.847      371.586      197.187      136.835   138076.214    38882.718    18723.730       19.988        9.784      451.839      177.581        0.154      344.383       21.160      859.204
05/28/2014  12:34:00     -609.287     -104.377      -34.008      222.335      167.034      100.721    49432.736    27900.453    10144.741       23.536        4.374      618.163      111.218        0.032      344.290       21.002      859.241
05/28/2014  12:35:00     -430.109      -91.336        4.982      285.111      167.143      116.501    81288.305    27936.803    13572.490       15.805        6.140      439.700      142.136        0.104      344.452       21.278      859.183
05/28/2014  12:36:00     -268.131      -81.807        6.782      226.096      210.021      119.163    51119.394    44108.838    14199.826        9.401        5.471      280.333      102.197        0.133      344.559       21.461      859.172
05/28/2014  12:37:00     -422.424      -53.780      -14.789      271.921      202.177      102.294    73941.295    40875.429    10464.130       15.339        6.264      425.834      117.509        0.076      344.451       21.275      859.237
05/28/2014  12:38:00     -232.994     -101.309       -2.363      212.696      166.395       93.655    45239.758    27687.433     8771.306        7.311        4.085      254.066       99.744        0.154      344.666       21.644      859.225
05/28/2014  12:39:00     -644.120     -162.857      -22.282      295.503      163.954      105.753    87321.839    26880.757    11183.629       28.362        6.269      664.390      122.630        0.034      344.272       20.970      859.220
05/28/2014  12:40:00     -493.629      -71.987       12.286      277.321      183.930      113.146    76906.998    33830.079    12802.097       18.625        6.177      498.850      150.714        0.091      344.409       21.205      859.186
05/28/2014  12:41:00     -443.117      -81.044       -9.594      316.219      203.953      119.502    99994.265    41596.961    14280.707       17.941        7.794      450.467      141.430        0.099      344.490       21.343      859.155
05/28/2014  12:42:00     -668.507      -67.514      -34.568      226.313      227.139       96.247    51217.488    51592.028     9263.485       28.234        5.604      671.908      100.478        0.022      344.290       21.000      859.163
05/28/2014  12:43:00     -581.547      -38.775      -32.870      298.241      176.526      106.162    88947.467    31161.280    11270.452       23.605        6.569      582.839      122.161        0.044      344.395       21.179      859.137
05/28/2014  12:44:00     -363.989      -96.776      -14.934      247.483      166.492       89.466    61248.023    27719.525     8004.191       11.950        4.849      376.634      107.470        0.081      344.588       21.510      859.156
05/28/2014  12:45:00     -666.245      -77.107      -23.765      227.759      191.372      101.142    51873.995    36623.428    10229.732       27.454        4.936      670.692      104.147        0.024      344.174       20.802      859.168
05/28/2014  12:46:00     -718.603      -44.872      -46.568      217.002      220.675      106.755    47089.872    48697.242    11396.691       31.386        5.359      720.003      101.814        0.020      344.206       20.858      859.132
05/28/2014  12:47:00     -266.221     -160.200        1.014      223.531      166.118       95.132    49966.030    27595.210     9050.114        9.156        4.331      310.705      112.806        0.132      344.831       21.927      859.103
05/28/2014  12:48:00     -569.475      -17.407      -30.646      323.992      176.331       93.586   104971.096    31092.714     8758.254       23.515        7.241      569.741      138.205        0.059      344.593       21.519      859.153
05/28/2014  12:49:00     -328.546      -58.846       20.321      276.555      183.406      102.916    76482.800    33637.604    10591.705       11.624        6.036      333.774      116.970        0.123      344.732       21.756      859.134
05/28/2014  12:50:00     -538.108      -45.320       -3.839      248.854      200.806      109.332    61928.235    40323.161    11953.501       20.289        5.710      540.013      136.380        0.064      344.404       21.195      859.198
05/28/2014  12:51:00     -518.622     -176.934      -13.401      273.724      205.974      115.386    74924.965    42425.115    13314.002       21.553        6.533      547.973      144.370        0.069      344.167       20.791      859.202
05/28/2014  12:52:00     -326.602     -234.015       11.014      215.443      195.610      103.915    46415.725    38263.268    10798.278       12.850        4.774      401.785      112.517        0.078      344.292       21.005      859.149
05/28/2014  12:53:00     -472.233      -95.762      -10.786      208.630      220.895      108.244    43526.641    48794.746    11716.785       16.814        5.202      481.845      100.383        0.043      344.375       21.145      859.132
05/28/2014  12:54:00     -424.815      -91.742        1.761      211.087      196.032       97.424    44557.680    38428.493     9491.439       14.066        4.624      434.608       93.271        0.046      344.642       21.602      859.118
05/28/2014  12:55:00     -430.494     -239.577       -0.682      286.501      251.478      111.108    82082.782    63241.015    12344.902       20.016        7.883      492.669      134.191        0.074      344.437       21.252      859.140
05/28/2014  12:56:00     -556.589     -262.656      -21.872      252.848      237.542      119.771    63931.965    56426.431    14345.176       25.695        6.735      615.450      116.513        0.036      344.264       20.957      859.154
05/28/2014  12:57:00     -571.241     -128.975      -36.034      250.125      224.581       87.641    62562.657    50436.642     7681.028       23.244        6.034      585.620      108.509        0.034      344.137       20.737      859.170
05/28/2014  12:58:00     -406.257     -208.449       -9.654      270.286      244.728      134.639    73054.559    59891.605    18127.531       17.980        7.554      456.613      159.888        0.123      344.193       20.834      859.141
05/28/2014  12:59:00     -450.121     -111.317       -3.964      293.453      207.001      120.537    86114.628    42849.603    14529.094       17.923        7.175      463.682      134.588        0.084      344.229       20.896      859.183
05/28/2014  13:00:00     -240.143      -55.249       -9.759      254.635      155.277       94.545    64839.078    24110.948     8938.691        7.933        4.894      246.416       95.025        0.149      344.380       21.155      859.197
05/28/2014  13:01:00     -177.646     -103.403        6.992      185.321      143.586       72.217    34343.770    20616.852     5215.320        5.123        3.009      205.549       94.054        0.209      344.507       21.373      859.163
05/28/2014  13:02:00     -465.850     -272.139       -1.317      320.427      235.700      123.252   102673.528    55554.495    15191.155       23.221        8.671      539.514      145.994        0.073      344.381       21.157      859.133
05/28/2014  13:03:00     -706.566     -138.745      -24.484      249.971      223.070       97.709    62485.487    49760.320     9547.077       32.041        6.090      720.059      108.254        0.023      344.348       21.098      859.163
05/28/2014  13:04:00     -586.683     -197.177      -20.763      284.480      229.005      111.422    80929.069    52443.115    12414.833       26.462        7.289      618.931      131.172        0.045      344.477       21.321      859.180
05/28/2014  13:05:00     -698.641     -210.440      -55.682      266.856      235.444      110.806    71212.224    55433.682    12277.970       33.718        6.946      729.646      124.515        0.029      344.402       21.192      859.207
05/28/2014  13:06:00     -396.753     -225.981       15.336      272.844      234.682      123.082    74443.699    55075.650    15149.299       17.666        7.233      456.596      140.347        0.094      344.400       21.188      859.219
05/28/2014  13:07:00     -513.486     -124.634      -24.523      237.373      179.040       94.347    56345.744    32055.262     8901.431       18.853        4.865      528.395       91.385        0.030      344.374       21.144      859.226
05/28/2014  13:08:00     -472.852       11.716      -21.771      192.290      189.754       93.883    36975.601    36006.479     8814.013       15.298        4.090      472.997       85.854        0.033      344.542       21.432      859.236
05/28/2014  13:09:00     -504.252      -60.511      -19.918      251.954      146.000      103.414    63480.589    21315.891    10694.516       17.689        4.775      507.870      120.022        0.056      344.555       21.453      859.227
05/28/2014  13:10:00     -465.366     -137.257      -12.952      239.730      171.420       97.994    57470.364    29384.812     9602.764       16.600        4.823      485.186      116.732        0.058      344.519       21.392      859.188
05/28/2014  13:11:00     -480.981        3.213      -26.462      190.105      149.926      103.079    36139.724    22477.843    10625.308       15.063        3.462      480.992       97.187        0.041      344.521       21.395      859.173
05/28/2014  13:12:00     -546.012     -129.765      -15.994      230.599      175.807      102.798    53175.979    30907.988    10567.390       20.492        4.733      561.220      121.904        0.047      344.545       21.436      859.166
05/28/2014  13:13:00     -422.625      -90.988       -4.130      227.021      154.165       86.515    51538.372    23766.921     7484.772       13.483        4.140      432.309       82.752        0.037      344.700       21.700      859.184
05/28/2014  13:14:00     -374.678     -126.448       22.109      255.133      236.534      131.359    65092.826    55948.470    17255.062       14.755        6.915      395.439      151.524        0.147      344.714       21.725      859.182
05/28/2014  13:15:00     -598.277       -6.504      -38.825      195.612      167.174       91.163    38263.947    27947.277     8310.747       21.699        3.726      598.313      109.888        0.034      344.434       21.246      859.223
05/28/2014  13:16:00     -532.142     -252.961      -31.323      236.198      234.038      108.699    55789.467    54773.606    11815.403       23.524        6.119      589.206      114.518        0.038      344.348       21.100      859.213
05/28/2014  13:17:00     -369.222      -74.965       -6.083      230.806      200.749      109.946    53271.238    40300.142    12088.120       12.380        5.283      376.756      112.827        0.090      344.597       21.524      859.205
05/28/2014  13:18:00     -328.175      -62.000        9.758      211.126      155.058       95.949    44574.382    24043.038     9206.290        9.472        3.891      333.981      104.678        0.098      344.748       21.784      859.217
05/28/2014  13:19:00     -373.122      -74.866       -0.769      213.514      159.345       77.635    45588.151    25390.988     6027.140       11.090        3.850      380.559       80.170        0.044      344.593       21.518      859.212
05/28/2014  13:20:00     -413.149      -57.834       -1.963      212.065      152.044       91.333    44971.642    23117.268     8341.786       12.522        3.822      417.177      103.893        0.062      344.770       21.822      859.232
05/28/2014  13:21:00     -368.988     -107.999       -5.327      221.133      195.752       97.916    48899.809    38318.929     9587.596       12.231        4.840      384.468      116.255        0.091      344.654       21.623      859.240
05/28/2014  13:22:00     -332.493     -171.325      -10.062      200.683      183.713       86.752    40273.480    33750.578     7525.994       11.076        4.078      374.037       92.721        0.061      344.769       21.820      859.240
05/28/2014  13:23:00     -211.643     -126.034        9.031      264.775      145.289       88.522    70105.984    21108.850     7836.200        7.989        4.953      246.327      112.399        0.208      344.694       21.691      859.254
05/28/2014  13:24:00     -380.058     -327.591      -17.419      216.041      186.503       92.132    46673.702    34783.241     8488.228       17.099        4.497      501.757      100.586        0.040      344.390       21.171      859.182
05/28/2014  13:25:00     -616.169     -297.786      -19.359      297.310      170.542       99.932    88392.940    29084.465     9986.311       29.806        6.373      684.354       94.228        0.019      344.347       21.099      859.133
05/28/2014  13:26:00     -711.329     -239.786      -25.872      241.378      226.189      109.739    58263.217    51161.445    12042.672       34.279        6.073      750.657      109.929        0.021      344.339       21.084      859.131
05/28/2014  13:27:00     -314.326     -140.422        0.992      182.723      166.441       89.459    33387.622    27702.758     8002.896        9.379        3.455      344.266       91.270        0.070      344.721       21.738      859.177
05/28/2014  13:28:00     -327.629     -131.426      -13.574      146.526      175.173       74.245    21469.723    30685.667     5512.384        9.122        2.883      353.006       89.087        0.064      344.780       21.839      859.169
05/28/2014  13:29:00     -595.105      -71.756      -30.518      237.603      185.782      110.323    56455.420    34515.005    12171.182       23.166        5.157      599.415      112.413        0.035      344.579       21.495      859.140
05/28/2014  13:30:00     -479.044      -98.390      -13.482      230.019      155.182       88.845    52908.554    24081.457     7893.466       16.210        4.244      489.044      113.594        0.054      344.766       21.815      859.128
05/28/2014  13:31:00     -486.239     -197.016        5.221      220.609      135.280       88.357    48668.368    18300.579     7806.913       17.501        3.739      524.637      104.366        0.040      344.432       21.243      859.153
05/28/2014  13:32:00     -192.089      -13.266       30.183      207.530      146.143       83.554    43068.753    21357.883     6981.326        5.468        3.570      192.547      101.152        0.276      344.823       21.912      859.122
05/28/2014  13:33:00     -600.452     -118.138      -51.329      177.425      169.140       80.373    31479.695    28608.482     6459.860       22.183        3.327      611.963       69.917        0.013      344.427       21.234      859.116
05/28/2014  13:34:00     -491.628     -151.177      -35.495      170.550      158.790       81.868    29087.460    25214.202     6702.386       16.340        3.050      514.347       66.795        0.017      344.404       21.196      859.078
05/28/2014  13:35:00     -658.367     -144.303      -29.531      243.232      161.643       93.779    59161.904    26128.561     8794.465       27.459        4.704      673.996      108.246        0.026      344.511       21.379      859.050
05/28/2014  13:36:00     -232.402      -94.076        9.020      153.573      165.810       90.056    23584.674    27492.944     8110.077        6.105        2.959      250.721       84.657        0.114      344.779       21.838      859.073
05/28/2014  13:37:00     -325.689      -90.737        0.421      308.125      187.150      100.171    94941.306    35025.082    10034.278       12.713        7.000      338.092      143.129        0.179      344.900       22.046      859.062
05/28/2014  13:38:00     -589.541     -122.109        2.245      293.757      233.489      102.148    86293.362    54517.291    10434.192       25.683        7.562      602.054      128.413        0.045      344.682       21.671      859.067
05/28/2014  13:39:00     -589.746      -56.834      -37.035      210.871      208.416      104.014    44466.603    43437.192    10818.924       22.554        4.936      592.479      111.088        0.035      344.544       21.433      859.117
05/28/2014  13:40:00     -620.820     -129.983      -14.535      276.200      175.127      107.653    76286.598    30669.541    11589.121       26.051        5.927      634.281      128.097        0.041      344.589       21.512      859.089
05/28/2014  13:41:00     -619.685     -233.631      -14.374      342.709      257.400      149.299   117449.283    66254.518    22290.165       32.236       10.300      662.264      173.996        0.069      344.319       21.050      859.061
05/28/2014  13:42:00     -354.036      -41.213      -13.658      301.484      241.729      115.391    90892.484    58433.021    13315.018       14.490        8.132      356.427      145.259        0.166      344.596       21.524      859.044
05/28/2014  13:43:00     -693.133     -163.297      -38.193      240.136      208.061      112.688    57665.177    43289.478    12698.676       31.108        5.683      712.109      108.066        0.023      344.563       21.468      859.041
05/28/2014  13:44:00     -500.917     -228.316       -7.320      362.680      277.961      133.419   131536.458    77262.169    17800.574       26.480       11.330      550.496      168.522        0.094      344.411       21.207      859.016
05/28/2014  13:45:00     -398.550     -179.041       -4.443      222.206      179.588      102.932    49375.692    32251.871    10594.927       14.155        4.611      436.919      112.229        0.066      344.614       21.556      859.024
05/28/2014  13:46:00     -222.386     -123.114       11.929      266.688      195.232      100.315    71122.755    38115.672    10063.001        9.200        5.965      254.190      119.865        0.222      345.049       22.300      859.083
05/28/2014  13:47:00     -394.970     -125.682       23.509      280.530      179.255      127.449    78696.960    32132.221    16243.199       14.969        6.354      414.484      147.532        0.127      344.620       21.564      859.068
05/28/2014  13:48:00     -434.548     -301.530       -5.719      263.794      225.908      118.916    69587.378    51034.537    14141.132       20.725        6.738      528.916      130.551        0.061      344.609       21.546      859.077
05/28/2014  13:49:00     -424.444     -126.863      -14.298      204.970      182.326       91.800    42012.903    33242.801     8427.330       14.005        4.184      442.997       85.182        0.037      344.805       21.881      859.058
05/28/2014  13:50:00     -526.119      -52.922      -35.014      249.849      230.049       85.150    62424.612    52922.363     7250.580       20.169        6.130      528.774       65.266        0.015      345.011       22.232      859.068
05/28/2014  13:51:00     -721.193     -161.269      -36.896      313.216      208.573      111.278    98104.009    43502.887    12382.782       35.071        7.699      739.004      138.804        0.035      344.585       21.505      859.020
05/28/2014  13:52:00     -323.177     -119.751        0.887      250.860      192.770      102.784    62930.825    37160.164    10564.651       11.470        5.533      344.650      117.969        0.117      344.970       22.164      859.067
05/28/2014  13:53:00     -580.883     -106.808      -15.219      264.573      235.721      105.065    69998.996    55564.206    11038.742       24.281        6.830      590.621      118.547        0.040      344.667       21.646      859.054
05/28/2014  13:54:00     -617.948      -48.642      -39.360      256.407      211.055      116.644    65744.618    44544.350    13605.755       25.481        6.195      619.860      128.042        0.043      344.574       21.486      859.073
05/28/2014  13:55:00     -469.073     -139.152       16.159      309.730      214.744      120.393    95932.715    46114.970    14494.456       19.807        7.827      489.278      146.297        0.089      344.757       21.799      859.054
05/28/2014  13:56:00     -383.694     -136.546      -22.131      329.241      190.320      102.059   108399.644    36221.884    10416.029       16.067        7.752      407.266      120.408        0.087      344.877       22.006      859.070
05/28/2014  13:57:00     -344.295     -263.538       15.491      302.405      267.168      148.771    91448.600    71378.980    22132.929       18.656        9.248      433.579      180.436        0.173      344.850       21.959      859.018
05/28/2014  13:58:00     -368.564     -110.093       -6.228      251.493      181.421      103.092    63248.609    32913.743    10628.062       12.737        5.340      384.655      112.497        0.086      344.941       22.114      859.084
05/28/2014  13:59:00     -593.328     -174.779      -36.723      216.033      183.498       97.553    46670.208    33671.386     9516.610       23.688        4.493      618.535       93.923        0.023      344.580       21.496      859.087
05/28/2014  14:00:00     -341.830     -161.833       10.419      199.569      159.736       91.244    39827.726    25515.565     8325.420       10.839        3.683      378.203       94.675        0.063      344.815       21.899      859.067
05/28/2014  14:01:00     -366.574     -259.792      -17.830      242.255      195.729      115.362    58687.287    38310.005    13308.428       15.622        5.515      449.298      125.472        0.078      344.797       21.868      859.027
05/28/2014  14:02:00     -411.789     -178.438        7.177      343.780      201.074      126.659   118184.864    40430.826    16042.608       18.802        8.733      448.788      140.864        0.099      344.917       22.073      858.988
05/28/2014  14:03:00     -414.415     -200.058        8.803      295.781      175.888      117.315    87486.477    30936.614    13762.849       17.199        6.609      460.177      141.670        0.095      344.990       22.200      858.978
05/28/2014  14:04:00     -558.698     -175.867       -7.856      259.514      243.460      123.227    67347.744    59272.832    15184.775       24.244        7.090      585.724      130.387        0.050      344.661       21.636      859.026
05/28/2014  14:05:00     -410.852     -130.142       -1.619      251.171      166.965       81.183    63086.963    27877.396     6590.740       14.163        4.878      430.972       93.229        0.047      344.766       21.814      859.005
05/28/2014  14:06:00     -418.996     -217.699       10.558      269.708      226.198      114.320    72742.223    51165.345    13069.097       17.999        6.849      472.176      142.506        0.091      344.718       21.732      859.035
05/28/2014  14:07:00     -363.350     -284.418        0.647      223.644      220.732      121.982    50016.474    48722.773    14879.687       16.325        5.681      461.429      111.854        0.059      344.504       21.366      859.053
05/28/2014  14:08:00     -396.920     -232.755      -13.911      149.041      150.331       86.847    22213.072    22599.295     7542.433       13.212        2.618      460.131       82.409        0.032      344.316       21.045      859.039
05/28/2014  14:09:00     -481.608      -80.942       -6.135      260.845      196.231      104.702    68040.234    38506.739    10962.611       17.800        5.875      488.362      119.174        0.060      344.714       21.725      859.011
05/28/2014  14:10:00     -500.381      -88.836      -16.095      215.679      166.355       86.132    46517.564    27674.056     7418.694       17.005        4.081      508.206      106.099        0.044      344.472       21.311      858.989
05/28/2014  14:11:00     -551.462     -127.940      -28.413      257.527      208.954      100.494    66320.179    43661.596    10099.037       22.066        6.004      566.109      128.051        0.051      344.715       21.727      858.926
05/28/2014  14:12:00     -404.104     -157.193       -8.880      308.609      204.639      101.319    95239.363    41877.228    10265.479       16.771        7.369      433.601      115.580        0.071      344.919       22.077      858.915
05/28/2014  14:13:00     -523.708     -180.790      -22.115      304.033      237.702      114.942    92435.833    56502.423    13211.742       23.476        8.107      554.035      127.096        0.053      344.753       21.792      858.893
05/28/2014  14:14:00     -615.363      -36.339      -30.988      228.985      215.300       96.836    52433.995    46354.305     9377.288       24.454        5.408      616.435       99.985        0.026      344.714       21.725      858.925
05/28/2014  14:15:00     -330.516      -65.961       -4.046      272.633      169.271       92.387    74328.896    28652.743     8535.293       11.254        5.576      337.033      104.242        0.096      345.013       22.238      858.900
05/28/2014  14:16:00     -557.952     -127.623      -36.087      198.923      181.992       93.134    39570.518    33121.079     8673.878       20.512        4.068      572.361      105.326        0.034      344.642       21.602      858.886
05/28/2014  14:17:00     -467.652     -318.661      -28.480      229.249      225.602      127.952    52555.060    50896.238    16371.693       22.041        5.991      565.901      128.304        0.051      344.584       21.503      858.906
05/28/2014  14:18:00     -493.103     -274.060      -27.943      221.922      184.247      100.792    49249.237    33946.907    10159.046       20.618        4.668      564.145       94.216        0.028      344.801       21.875      858.903
05/28/2014  14:19:00     -191.328     -132.977       13.513      190.144      160.630       82.970    36154.708    25801.866     6884.094        6.164        3.442      233.001       94.927        0.166      345.027       22.264      858.945
05/28/2014  14:20:00     -238.266      -43.020       10.978      196.425      150.525       77.224    38582.927    22657.902     5963.528        6.296        3.360      242.119       91.373        0.142      345.198       22.557      858.919
05/28/2014  14:21:00     -516.043     -125.650      -20.686      251.505      202.301      104.133    63254.954    40925.765    10843.611       19.875        5.751      531.120      101.790        0.037      344.809       21.888      858.900
05/28/2014  14:22:00     -514.611     -143.463      -16.156      271.090      267.465      105.367    73490.034    71537.260    11102.257       22.087        7.806      534.234      108.927        0.042      344.757       21.799      858.913
05/28/2014  14:23:00     -411.972     -150.122       -9.630      244.371      205.142       92.319    59717.084    42083.087     8522.789       15.131        5.516      438.471       94.376        0.046      344.705       21.712      858.928
05/28/2014  14:24:00     -403.268      -37.087      -23.539      135.204      137.413       68.577    18280.177    18882.351     4702.751       10.320        2.093      404.969       60.942        0.023      344.844       21.947      858.899
05/28/2014  14:25:00     -421.181     -278.831       -4.246      242.102      212.554      110.783    58613.168    45179.008    12272.960       18.559        5.803      505.114      129.319        0.066      344.743       21.775      858.921
05/28/2014  14:26:00     -316.424     -203.193        4.402      197.549      164.516       81.812    39025.800    27065.673     6693.242       10.709        3.639      376.048       89.845        0.057      344.757       21.798      858.935
05/28/2014  14:27:00     -427.623     -152.441        2.907      252.404      243.669      101.312    63707.564    59374.385    10264.212       16.970        6.667      453.982      106.135        0.055      344.876       22.002      858.950
05/28/2014  14:28:00     -683.469     -315.970      -21.946      297.404      196.220      110.856    88449.158    38502.361    12289.061       35.332        6.962      752.972      135.823        0.033      344.445       21.265      858.961
05/28/2014  14:29:00     -512.307     -173.213      -20.685      232.738      202.557       96.148    54166.864    41029.433     9244.359       19.864        5.222      540.797      104.695        0.037      344.686       21.678      858.940
05/28/2014  14:30:00     -487.435      -91.736       -5.097      243.100      148.100       84.827    59097.437    21933.712     7195.655       16.711        4.411      495.992      101.437        0.042      344.818       21.903      858.941
05/28/2014  14:31:00     -316.698      -30.496       -4.363      177.096      155.459       77.907    31363.025    24167.592     6069.475        8.141        3.080      318.163       95.038        0.089      345.061       22.320      858.964
05/28/2014  14:32:00     -543.769     -156.278      -21.813      213.608      139.084       88.925    45628.383    19344.393     7907.577       19.672        3.644      565.780      109.731        0.038      344.677       21.662      858.977
05/28/2014  14:33:00     -271.255      -28.199        4.904      173.536      124.008       69.742    30114.612    15377.917     4863.970        6.237        2.518      272.717       66.161        0.059      345.099       22.384      858.968
05/28/2014  14:34:00     -479.270     -153.399      -27.456      244.251      209.760      114.218    59658.745    43999.237    13045.745       18.532        5.835      503.220      128.520        0.065      344.806       21.883      858.992
05/28/2014  14:35:00     -410.549     -133.973      -11.650      310.006      183.745      111.904    96103.659    33762.094    12522.419       16.448        7.119      431.855      148.589        0.118      344.714       21.727      858.987
05/28/2014  14:36:00     -443.656     -273.098       -4.507      299.966      232.945      101.697    89979.723    54263.312    10342.202       21.298        7.729      520.973      114.112        0.048      344.718       21.731      858.989
05/28/2014  14:37:00     -448.125     -273.094      -19.717      265.320      186.064       95.205    70394.677    34619.893     9064.027       19.491        5.704      524.782      115.191        0.048      344.711       21.720      859.027
05/28/2014  14:38:00     -391.434     -228.406      -10.426      202.551      120.942       81.307    41026.962    14626.998     6610.854       13.387        3.113      453.200       92.491        0.042      344.706       21.712      859.043
05/28/2014  14:39:00     -425.615     -239.439      -22.074      183.849      143.885       87.274    33800.494    20702.797     7616.756       15.053        3.106      488.343       96.030        0.039      344.601       21.533      859.026
05/28/2014  14:40:00     -273.262       -7.996       10.190      185.664      152.502       70.038    34471.042    23256.936     4905.331        6.872        3.132      273.379       69.098        0.064      344.872       21.997      858.988
05/28/2014  14:41:00     -284.824     -183.643       11.238      175.948      140.123       84.093    30957.607    19634.359     7071.643        8.631        2.883      338.894       88.168        0.068      345.092       22.371      858.987
05/28/2014  14:42:00     -338.394     -164.169       -4.772      215.639      150.348       97.940    46499.982    22604.514     9592.259       11.007        3.935      376.114      102.647        0.074      345.027       22.260      858.998
05/28/2014  14:43:00     -385.435     -184.275       10.688      212.191      155.735       90.864    45024.840    24253.365     8256.327       13.007        3.877      427.221      106.912        0.063      344.577       21.491      858.993
05/28/2014  14:44:00     -415.080     -212.778      -11.582      200.521      135.262       89.911    40208.747    18295.923     8084.030       14.213        3.329      466.440      100.724        0.047      344.675       21.658      858.971
05/28/2014  14:45:00     -369.917     -231.824      -19.283      178.033      167.712       82.615    31695.744    28127.323     6825.223       12.879        3.332      436.556       93.748        0.046      344.694       21.691      858.958
05/28/2014  14:46:00     -409.680     -248.611      -11.574      266.606      225.672      123.565    71079.005    50927.719    15268.380       18.350        6.864      479.213      138.537        0.084      344.747       21.783      858.953
05/28/2014  14:47:00     -461.187     -267.152      -20.904      277.725      208.922       94.292    77131.247    43648.407     8891.048       20.706        6.484      532.976      124.992        0.055      344.664       21.640      858.961
05/28/2014  14:48:00     -539.291     -326.256      -21.392      311.590      189.801      110.848    97088.134    36024.549    12287.256       27.154        7.270      630.300      138.696        0.048      344.699       21.699      858.945
05/28/2014  14:49:00     -467.074     -308.166       -2.257      330.531      224.192      115.703   109250.481    50262.003    13387.081       24.298        8.645      559.575      126.086        0.051      344.658       21.629      858.959
05/28/2014  14:50:00     -558.764     -332.094      -25.641      254.519      217.575      103.538    64780.136    47338.708    10720.055       27.297        6.142      650.003      129.326        0.040      344.458       21.288      859.012
05/28/2014  14:51:00     -417.369     -243.110      -14.188      193.779      184.932       94.060    37550.129    34199.744     8847.260       15.703        4.030      483.011       93.552        0.038      344.617       21.558      859.040
05/28/2014  14:52:00     -292.197     -206.633       15.779      206.913      142.045       86.892    42813.162    20176.903     7550.221        9.942        3.527      357.877       95.118        0.071      344.549       21.445      859.056
05/28/2014  14:53:00     -144.808     -228.364        6.932      112.073      108.044       57.307    12560.368    11673.543     3284.075        5.034        1.376      270.406       58.152        0.046      344.377       21.150      859.020
05/28/2014  14:54:00     -223.002     -155.565       14.043      152.360      103.535       66.295    23213.644    10719.594     4395.034        5.622        1.916      271.901       80.561        0.088      344.691       21.685      859.035
05/28/2014  14:55:00     -431.470     -328.263       -5.868      273.675      210.565      124.761    74897.937    44337.646    15565.195       21.435        6.740      542.147      139.344        0.066      344.574       21.485      859.068
05/28/2014  14:56:00     -461.627     -291.698        4.828      275.677      221.600      101.176    75997.562    49106.736    10236.683       21.675        6.767      546.066      121.616        0.050      344.467       21.304      859.036
05/28/2014  14:57:00     -329.161     -203.091       -3.901      202.096      179.300       95.120    40842.762    32148.459     9047.766       11.581        4.102      386.772       97.491        0.064      344.707       21.713      859.073
05/28/2014  14:58:00     -414.611     -167.365        4.059      242.109      177.710       86.353    58616.605    31581.015     7456.899       14.877        4.883      447.117      117.225        0.069      344.690       21.684      859.053
05/28/2014  14:59:00     -307.462      -57.736        5.124      156.575      123.004       79.147    24515.768    15129.911     6264.249        7.189        2.295      312.836       88.237        0.080      344.805       21.880      859.046
05/28/2014  15:00:00     -433.462     -277.012       -4.457      240.275      198.431       93.177    57732.122    39374.714     8681.907       18.520        5.289      514.417      116.554        0.051      344.815       21.898      859.037
05/28/2014  15:01:00     -332.452     -120.904        9.665      186.167      174.340      104.315    34658.223    30394.446    10881.661       10.057        3.797      353.754       95.608        0.073      344.785       21.847      859.030
05/28/2014  15:02:00     -417.599     -259.583       -3.413      211.002      168.112      111.197    44522.015    28261.541    12364.687       16.345        4.257      491.704      123.210        0.063      344.912       22.062      859.034
05/28/2014  15:03:00     -492.499     -319.981      -35.055      225.844      179.497       94.897    51005.521    32219.136     9005.526       21.918        4.612      587.318      111.518        0.036      344.714       21.726      859.095
05/28/2014  15:04:00     -456.611     -106.339      -31.814      196.339      184.517       89.630    38549.162    34046.450     8033.513       15.071        4.031      468.830      101.087        0.046      344.687       21.679      859.108
05/28/2014  15:05:00     -426.549     -218.538      -14.321      260.939      213.896       99.292    68089.159    45751.632     9858.884       17.678        6.185      479.273      114.236        0.057      344.676       21.661      859.086
05/28/2014  15:06:00     -463.532     -108.605       -1.351      188.141      218.114       93.985    35396.971    47573.523     8833.233       15.921        4.590      476.085       96.044        0.041      344.881       22.011      859.068
05/28/2014  15:07:00     -226.958     -249.657       20.181      218.833      177.924      102.708    47888.067    31657.030    10549.019       10.215        4.505      337.400      119.846        0.126      344.917       22.072      859.102
05/28/2014  15:08:00     -272.308     -175.960        6.669      180.429      176.484       85.840    32554.569    31146.548     7368.482        8.810        3.553      324.212       80.560        0.062      344.990       22.197      859.115
05/28/2014  15:09:00     -268.628     -177.171       -4.123      133.310      169.837       80.261    17771.462    28844.638     6441.890        7.830        2.653      321.793       83.733        0.068      344.920       22.077      859.122
05/28/2014  15:10:00     -352.169      -38.197        8.753      204.727      195.391       87.183    41913.014    38177.561     7600.825       10.661        4.385      354.234       99.569        0.079      344.802       21.876      859.104
05/28/2014  15:11:00     -496.410     -306.576      -10.807      243.587      219.888       99.574    59334.794    48350.629     9914.982       22.904        5.880      583.448      124.193        0.045      344.522       21.396      859.093
05/28/2014  15:12:00     -428.451     -223.507       -9.462      178.967      139.091       87.006    32029.241    19346.312     7570.114       14.627        2.947      483.245       89.799        0.035      344.684       21.674      859.114
05/28/2014  15:13:00     -376.559      -44.752      -21.306      156.700      183.245       66.787    24554.938    33578.752     4460.539       10.341        3.130      379.209       82.497        0.047      344.499       21.359      859.131
05/28/2014  15:14:00     -375.129     -237.840       -0.091      191.604      170.798       98.954    36712.072    29172.074     9791.974       13.647        3.784      444.172       96.707        0.047      344.547       21.439      859.126
05/28/2014  15:15:00     -231.520      -12.957      -22.005      105.572       78.431       54.717    11145.484     6151.488     2993.950        3.727        1.015      231.882       51.895        0.050      344.482       21.330      859.124
05/28/2014  15:16:00     -237.556     -164.343        6.895      222.232      124.347       74.744    49386.887    15462.126     5586.650        7.695        3.522      288.862       99.075        0.118      344.880       22.011      859.112
05/28/2014  15:17:00     -433.095     -224.173        6.970      228.120      175.178       95.438    52038.886    30687.326     9108.451       16.484        4.592      487.673       98.438        0.041      344.599       21.530      859.112
05/28/2014  15:18:00     -265.654     -157.806        1.553      146.152      128.644       75.420    21360.353    16549.203     5688.102        6.953        2.180      308.990       71.589        0.054      344.813       21.893      859.127
05/28/2014  15:19:00     -315.574     -213.882       -2.752      164.124      128.608       80.346    26936.617    16540.105     6455.461        9.763        2.497      381.225       78.587        0.042      344.709       21.716      859.122
05/28/2014  15:20:00     -355.954     -173.935       -4.719      179.082      118.478       68.063    32070.250    14036.945     4632.506       10.385        2.537      396.177       73.055        0.034      344.731       21.754      859.095
05/28/2014  15:21:00     -437.790     -110.431      -12.228      184.177      191.041       92.183    33921.219    36496.565     8497.630       14.144        3.946      451.503       94.356        0.044      344.985       22.189      859.085
05/28/2014  15:22:00     -381.704      -98.825        6.286      210.146      153.447       82.556    44161.187    23546.035     6815.422       11.500        3.726      394.290       98.658        0.063      344.711       21.719      859.092
05/28/2014  15:23:00     -327.311       26.894        1.881      180.878      126.052       84.600    32716.719    15889.207     7157.110        8.180        2.788      328.414       81.906        0.062      345.031       22.268      859.079
05/28/2014  15:24:00     -313.263      -25.609      -11.417      153.079      132.846       71.546    23433.294    17648.061     5118.859        7.255        2.310      314.308       61.545        0.038      345.122       22.423      859.090
05/28/2014  15:25:00     -336.751      -84.623       -1.497      255.435      210.283       89.102    65247.279    44219.075     7939.118       11.896        5.870      347.220      122.054        0.124      344.971       22.166      859.086
05/28/2014  15:26:00     -379.056     -337.051      -22.764      210.284      180.263       94.990    44219.204    32494.786     9023.129       17.175        4.287      507.235      104.090        0.042      344.673       21.655      859.100
05/28/2014  15:27:00     -242.688     -155.527      -17.623       93.342       92.139       62.355     8712.656     8489.648     3888.099        5.224        1.055      288.246       53.679        0.035      345.053       22.305      859.071
05/28/2014  15:28:00     -304.428     -160.882      -13.674      171.104      173.659       72.862    29276.597    30157.471     5308.837        9.173        3.237      344.324       85.370        0.061      345.113       22.408      859.095
05/28/2014  15:29:00     -478.630     -147.089       -0.990      233.567      155.456      106.836    54553.444    24166.433    11413.911       17.041        4.507      500.721      114.774        0.053      345.097       22.379      859.097
05/28/2014  15:30:00     -411.834      -62.471      -14.294      207.813      115.647       74.708    43186.058    13374.209     5581.252       11.792        3.107      416.545       87.964        0.045      344.704       21.709      859.119
05/28/2014  15:31:00     -203.622      -78.866      -11.172      135.770      122.011       57.330    18433.499    14886.608     3286.757        4.220        1.830      218.362       55.372        0.064      344.934       22.101      859.133
05/28/2014  15:32:00     -279.747     -233.500       21.079      192.982      179.149      100.358    37242.087    32094.536    10071.708       10.630        3.970      364.391      102.154        0.079      344.685       21.676      859.112
05/28/2014  15:33:00     -379.737     -201.885       -5.129      178.122      138.477       81.497    31727.394    19176.004     6641.841       12.125        2.877      430.068       79.331        0.034      344.556       21.454      859.109
05/28/2014  15:34:00     -344.212     -260.160      -12.175      194.793      131.288       78.878    37944.383    17236.480     6221.776       12.385        3.070      431.469       58.559        0.018      344.713       21.724      859.084
05/28/2014  15:35:00     -506.348     -235.944       -4.800      219.395      183.651       93.013    48134.351    33727.540     8651.351       20.128        4.526      558.621       99.687        0.032      344.632       21.586      859.079
05/28/2014  15:36:00     -453.621     -231.627      -13.057      228.101      188.980      105.658    52030.127    35713.400    11163.697       17.923        4.945      509.336      118.610        0.054      344.670       21.650      859.117
05/28/2014  15:37:00     -355.844      -37.200      -10.123      177.378      210.549       87.278    31462.969    44330.902     7617.420       10.574        4.171      357.783       66.685        0.035      344.858       21.973      859.134
05/28/2014  15:38:00     -223.946      -81.593        7.932      137.808      112.861       71.332    18991.085    12737.511     5088.307        4.684        1.841      238.347       69.800        0.086      345.107       22.399      859.143
05/28/2014  15:39:00     -472.780     -269.918       -4.398      200.379      140.435       84.544    40151.784    19721.926     7147.607       18.170        3.351      544.405       84.805        0.024      344.565       21.472      859.130
05/28/2014  15:40:00     -273.481      -50.117       -2.925      200.148      129.005       70.677    40059.220    16642.191     4995.216        6.949        3.085      278.035       90.957        0.107      344.954       22.138      859.087
05/28/2014  15:41:00     -324.681      -63.525      -22.900      156.602      140.913       67.443    24524.087    19856.351     4548.546        7.944        2.446      330.837       70.868        0.046      344.924       22.085      859.074
05/28/2014  15:42:00     -284.878      -30.012       -7.839      154.452      131.965       61.545    23855.442    17414.650     3787.751        6.358        2.253      286.455       77.114        0.072      345.252       22.648      859.063
05/28/2014  15:43:00     -243.134      -78.547        3.578      231.069      132.591       72.956    53393.084    17580.450     5322.538        7.078        3.815      255.507       79.486        0.097      345.203       22.564      859.080
05/28/2014  15:44:00     -333.824     -124.705      -11.103      205.512      142.664       69.562    42235.153    20352.897     4838.921        9.726        3.371      356.357       82.852        0.054      344.867       21.988      859.086
05/28/2014  15:45:00     -341.372     -171.685        6.747      243.022      160.492       82.500    59059.673    25757.789     6806.238       11.882        4.581      382.114       94.091        0.061      344.766       21.813      859.066
05/28/2014  15:46:00     -373.815     -188.645      -14.395      195.445      216.012       91.518    38198.935    46661.139     8375.473       13.436        4.662      418.718       82.104        0.038      344.785       21.847      859.016
05/28/2014  15:47:00     -308.360     -189.372      -11.244      167.991      153.321       92.740    28220.826    23507.210     8600.698        9.569        3.016      361.866       88.567        0.060      344.972       22.166      859.044
05/28/2014  15:48:00     -366.453     -254.614        9.516      230.513      193.681      105.609    53136.267    37512.229    11153.286       15.048        5.090      446.225      109.791        0.061      344.959       22.143      859.050
05/28/2014  15:49:00     -298.836     -192.814       18.105      174.815      155.962       78.837    30560.128    24324.282     6215.350        9.394        3.055      355.640       77.287        0.047      344.877       22.005      859.092
05/28/2014  15:50:00     -257.956     -199.594      -13.017      168.000      146.835       74.512    28223.877    21560.447     5552.003        8.093        2.767      326.158       67.848        0.043      344.937       22.107      859.124
05/28/2014  15:51:00     -217.254      -74.357        2.829      150.563      107.598       75.690    22669.359    11577.298     5729.007        4.635        1.999      229.627       78.534        0.117      345.128       22.435      859.121
05/28/2014  15:52:00     -392.423     -116.541        7.418      253.022      164.497       81.071    64020.045    27059.318     6572.445       13.262        4.883      409.362      101.812        0.062      344.917       22.072      859.119
05/28/2014  15:53:00     -329.843     -215.518        2.144      270.481      224.375       98.401    73160.153    50344.055     9682.741       14.419        6.659      394.011      129.214        0.108      344.952       22.134      859.136
05/28/2014  15:54:00     -381.554     -273.156       -1.112      175.541      178.820       87.096    30814.804    31976.458     7585.785       14.527        3.519      469.252       98.776        0.044      344.693       21.689      859.189
05/28/2014  15:55:00     -412.936     -252.058        2.505      168.634      168.127       85.654    28437.526    28266.656     7336.559       14.904        3.202      483.787       88.407        0.033      344.562       21.467      859.212
05/28/2014  15:56:00     -329.527     -206.037       -1.769      150.380      154.008       78.479    22614.160    23718.460     6158.977       10.176        2.625      388.638       60.975        0.025      344.655       21.623      859.203
05/28/2014  15:57:00     -310.868      -77.648       -4.358      127.708      115.533       59.497    16309.314    13347.954     3539.948        6.794        1.660      320.418       57.290        0.032      344.709       21.717      859.183
05/28/2014  15:58:00     -367.805     -108.837       -6.779      166.710      157.940       67.221    27792.335    24945.149     4518.665       10.220        2.863      383.570       81.408        0.045      344.916       22.071      859.180
05/28/2014  15:59:00     -337.467     -126.285       -8.978      160.871      175.421       73.515    25879.548    30772.477     5404.422        9.597        3.103      360.322       75.403        0.044      344.899       22.041      859.187
05/28/2014  16:00:00     -292.971     -211.818       13.938      161.691      146.192       87.650    26144.103    21372.236     7682.537        9.304        2.760      361.524       88.623        0.060      344.981       22.182      859.205
05/28/2014  16:01:00     -236.323     -135.733        0.633      120.121      109.074       64.254    14429.018    11897.037     4128.581        5.236        1.523      272.529       61.855        0.052      345.030       22.265      859.191
05/28/2014  16:02:00     -265.260     -189.850        0.768      203.397      169.000       79.765    41370.154    28560.875     6362.449        9.133        3.815      326.199       90.876        0.078      345.121       22.422      859.195
05/28/2014  16:03:00     -361.495     -179.945       -9.650      233.612      170.959       85.291    54574.384    29227.074     7274.547       12.710        4.554      403.806       91.670        0.052      344.784       21.844      859.229
05/28/2014  16:04:00     -230.408      -88.227       10.623      171.535      147.615       82.376    29424.146    21790.105     6785.782        5.948        2.900      246.722       88.005        0.127      344.840       21.942      859.224
05/28/2014  16:05:00     -370.597     -172.205      -22.693      155.463      128.059       85.706    24168.809    16399.222     7345.544       10.770        2.396      408.652       72.949        0.032      344.625       21.572      859.210
05/28/2014  16:06:00     -332.375     -113.518      -11.883      163.077      106.541       65.439    26594.122    11350.929     4282.314        8.286        2.111      351.226       66.680        0.036      344.821       21.909      859.222
05/28/2014  16:07:00     -301.996     -103.693        1.162      236.775      123.315       67.573    56062.417    15206.575     4566.134        8.888        3.792      319.303       91.612        0.082      344.894       22.035      859.228
05/28/2014  16:08:00     -286.947      -65.802       -5.234      147.507      134.427       74.237    21758.298    18070.660     5511.149        6.601        2.267      294.395       72.238        0.060      345.069       22.333      859.236
05/28/2014  16:09:00     -235.333      -11.788      -13.192      116.609       84.830       49.094    13597.612     7196.056     2410.253        3.944        1.160      235.628       47.925        0.041      344.645       21.608      859.212
05/28/2014  16:10:00     -296.867      -66.523      -15.949      137.617      121.760       73.456    18938.474    14825.451     5395.784        6.598        1.958      304.229       72.215        0.056      344.874       21.999      859.168
05/28/2014  16:11:00     -180.360      -73.355       14.262      206.914      133.301       76.297    42813.592    17769.148     5821.291        5.225        3.320      194.706       69.107        0.126      345.157       22.484      859.181
05/28/2014  16:12:00     -396.179     -302.932      -15.257      197.336      129.631       84.883    38941.535    16804.151     7205.184       15.594        3.148      498.724       85.685        0.030      344.747       21.782      859.196
05/28/2014  16:13:00     -334.404     -216.375       -3.455      153.682      129.682       69.178    23618.012    16817.543     4785.601       10.193        2.261      398.302       73.966        0.034      344.775       21.830      859.177
05/28/2014  16:14:00     -260.419     -184.088       -5.851      178.123      173.509       80.135    31727.839    30105.213     6421.599        8.498        3.413      318.915       87.955        0.076      344.855       21.966      859.163
05/28/2014  16:15:00     -403.580     -264.158       13.128      212.979      182.050       95.350    45360.139    33142.117     9091.583       16.019        4.380      482.344      103.957        0.046      344.529       21.409      859.172
05/28/2014  16:16:00     -343.537     -224.435       -7.878      149.213      119.382       73.855    22264.667    14252.123     5454.565       10.520        2.099      410.352       68.924        0.028      344.724       21.743      859.162
05/28/2014  16:17:00     -275.356     -175.234        4.546      186.872      136.786       76.165    34921.315    18710.316     5801.093        8.298        2.972      326.386       91.424        0.078      344.911       22.062      859.155
05/28/2014  16:18:00     -223.713     -135.731       10.321      168.431      141.532       82.080    28368.864    20031.273     6737.138        6.185        2.757      261.668       82.185        0.099      344.829       21.924      859.196
05/28/2014  16:19:00     -302.833     -109.800       -7.631      166.997      168.714       80.016    27887.892    28464.463     6402.480        8.328        3.138      322.124       86.073        0.071      344.876       22.003      859.201
05/28/2014  16:20:00     -332.426      -70.781       12.211      195.143      166.459       80.398    38080.939    27708.736     6463.835        9.395        3.613      339.878       99.277        0.085      344.632       21.585      859.196
05/28/2014  16:21:00     -437.987     -139.577      -19.909      183.606      125.378       71.899    33711.153    15719.692     5169.465       13.314        2.730      459.690       76.776        0.028      344.818       21.903      859.170
05/28/2014  16:22:00     -193.889      -53.002       12.059      230.709      106.750       85.350    53226.486    11395.534     7284.586        5.621        3.595      201.003      120.481        0.359      344.882       22.014      859.159
05/28/2014  16:23:00     -204.365      -73.561       20.992      180.790       89.388       60.331    32684.850     7990.126     3639.808        4.596        2.216      217.200       78.591        0.131      345.013       22.238      859.207
05/28/2014  16:24:00     -287.064     -195.597      -21.961      159.871      121.245       59.619    25558.654    14700.310     3554.423        8.247        2.191      347.367       73.013        0.044      344.935       22.105      859.206
05/28/2014  16:25:00     -263.434      -73.409       10.440      156.797      148.068       74.834    24585.190    21924.079     5600.167        6.349        2.605      273.471       72.264        0.070      345.077       22.346      859.170
05/28/2014  16:26:00     -404.078     -261.467        9.754      227.703      139.047       85.937    51848.732    19334.170     7385.136       15.514        3.928      481.294       92.013        0.037      344.854       21.964      859.173
05/28/2014  16:27:00     -385.294     -215.457        5.121      204.303      163.768       88.959    41739.839    26819.850     7913.767       13.567        3.824      441.445      103.952        0.055      344.784       21.844      859.173
05/28/2014  16:28:00     -370.590     -288.712       -3.627      216.431      167.609       97.280    46842.453    28092.647     9463.422       15.253        4.220      469.778      104.834        0.050      344.775       21.830      859.168
05/28/2014  16:29:00     -511.756     -305.062      -22.286      197.106      192.798       95.025    38850.691    37170.926     9029.760       22.024        4.253      595.782       89.744        0.023      344.669       21.648      859.187
05/28/2014  16:30:00     -344.484     -167.005        6.650      209.162      160.331       79.417    43748.612    25705.895     6307.041       11.117        3.788      382.831       95.765        0.063      344.741       21.772      859.198
05/28/2014  16:31:00     -360.742     -191.868       -6.069      229.319      170.050       93.395    52587.041    28917.130     8722.715       12.859        4.511      408.593      100.333        0.060      344.788       21.851      859.203
05/28/2014  16:32:00     -294.526       -5.838      -13.398      165.349      134.745       72.560    27340.235    18156.095     5264.969        6.885        2.538      294.584       71.559        0.059      344.920       22.078      859.226
05/28/2014  16:33:00     -479.740      -67.364      -14.290      234.113      112.798       82.398    54808.970    12723.301     6789.426       15.459        3.716      484.446      101.376        0.044      344.697       21.696      859.236
05/28/2014  16:34:00     -334.715     -119.473      -17.691      186.366      122.445       68.043    34732.247    14992.853     4629.807        9.048        2.718      355.398       81.444        0.053      344.585       21.505      859.238
05/28/2014  16:35:00     -266.569     -215.212      -11.587      191.563      132.440       79.765    36696.375    17540.339     6362.509        8.904        3.030      342.601       94.020        0.075      344.634       21.590      859.225
05/28/2014  16:36:00     -203.259       84.553      -20.049      192.769      116.363       70.523    37160.003    13540.300     4973.542        5.226        2.784      220.144       80.074        0.132      344.756       21.799      859.206
05/28/2014  16:37:00     -281.830       93.850      -19.053      122.945       86.709       52.510    15115.492     7518.374     2757.255        5.699        1.270      297.045       57.046        0.037      344.404       21.195      859.154
05/28/2014  16:38:00     -326.655      -80.256      -16.227      185.602      108.613       64.029    34448.260    11796.699     4099.705        8.187        2.517      336.370       43.971        0.017      345.011       22.236      859.134
05/28/2014  16:39:00     -292.832     -116.909       16.043      215.198      113.624       69.706    46310.321    12910.335     4858.861        8.186        3.204      315.307       87.948        0.078      344.958       22.144      859.197
05/28/2014  16:40:00     -428.185     -118.613        7.364      258.949      157.068       72.762    67054.687    24670.359     5294.283       14.722        4.851      444.311       99.155        0.050      344.779       21.836      859.210
05/28/2014  16:41:00     -238.217      -38.412        7.497      145.460       99.207       69.216    21158.684     9842.037     4790.791        4.703        1.790      241.294       72.650        0.091      344.945       22.120      859.230
05/28/2014  16:42:00     -265.205       -1.368        7.088      168.004      128.713       63.933    28225.341    16567.120     4087.422        5.962        2.444      265.209       73.108        0.076      344.905       22.054      859.226
05/28/2014  16:43:00     -195.500      -88.428      -10.438      124.292      110.727       56.161    15448.479    12260.511     3154.038        3.850        1.543      214.569       53.790        0.063      344.930       22.093      859.214
05/28/2014  16:44:00     -244.989      -67.313        7.550      116.423      114.688       54.781    13554.426    13153.423     3000.993        4.715        1.485      254.068       53.684        0.045      344.843       21.946      859.183
05/28/2014  16:45:00      -59.086      -72.386       26.906       89.486       87.772       50.745     8007.674     7703.939     2575.071        1.387        0.914       93.440       51.165        0.300      345.157       22.487      859.190
05/28/2014  16:46:00     -234.897     -187.259       -5.128      118.868      114.204       52.964    14129.635    13042.605     2805.136        6.012        1.499      300.404       34.579        0.013      344.864       21.982      859.182
05/28/2014  16:47:00     -146.553      -89.362        5.846      140.401       83.893       51.076    19712.316     7038.090     2608.731        2.942        1.468      171.649       63.384        0.136      344.967       22.161      859.178
05/28/2014  16:48:00     -291.332     -145.927       -6.138      164.256      106.871       61.498    26980.186    11421.321     3782.061        7.419        2.109      325.836       69.936        0.046      344.702       21.704      859.157
05/28/2014  16:49:00      -78.098     -222.245       26.519       95.460      167.139       71.952     9112.669    27935.519     5177.126        4.920        2.111      235.568       53.670        0.052      344.926       22.089      859.152
05/28/2014  16:50:00     -147.010     -168.956       17.991      162.334      134.529       66.746    26352.252    18098.152     4455.021        4.968        2.445      223.960       74.728        0.111      344.907       22.057      859.165
05/28/2014  16:51:00     -321.908     -178.734       -5.887      168.942      122.423       67.203    28541.245    14987.387     4516.289        9.182        2.402      368.199       71.456        0.038      344.818       21.905      859.174
05/28/2014  16:52:00     -304.564     -222.181       -3.406      136.295      105.538       68.201    18576.385    11138.208     4651.385        8.824        1.718      376.993       68.380        0.033      344.565       21.469      859.152
05/28/2014  16:53:00     -222.874     -112.113      -11.942      106.393       97.094       51.044    11319.420     9427.301     2605.535        4.286        1.168      249.483       48.869        0.038      344.580       21.494      859.116
05/28/2014  16:54:00     -138.483     -107.907        4.701      117.222       90.970       52.992    13741.030     8275.616     2808.187        2.783        1.241      175.561       41.879        0.057      344.904       22.052      859.135
05/28/2014  16:55:00     -153.717     -131.057       -7.298      106.583       85.213       57.552    11360.010     7261.324     3312.264        3.139        1.097      202.002       30.903        0.023      344.885       22.019      859.154
05/28/2014  16:56:00     -205.250     -123.499       -8.811      114.195      105.064       60.955    13040.564    11038.412     3715.529        4.262        1.390      239.540       50.508        0.044      344.995       22.207      859.156
05/28/2014  16:57:00     -108.310     -154.946       -6.728      123.699       97.010       47.508    15301.463     9410.864     2257.051        3.137        1.348      189.048       44.262        0.055      345.057       22.313      859.132
05/28/2014  16:58:00     -257.366     -353.901       -7.834      165.537      169.074       86.874    27402.656    28586.155     7547.045       12.753        3.177      437.588       84.476        0.037      344.803       21.878      859.130
05/28/2014  16:59:00     -447.581     -271.989       -6.108      205.491      138.012       87.494    42226.595    19047.337     7655.168       17.162        3.446      523.743       92.704        0.031      344.647       21.610      859.118
05/28/2014  17:00:00     -324.685     -197.898        3.077      173.497      151.283       79.174    30101.072    22886.518     6268.490       10.191        2.963      380.242       82.299        0.047      344.632       21.585      859.110
05/28/2014  17:01:00     -185.186     -161.628       14.463      142.483      111.657       65.892    20301.479    12467.330     4341.730        4.886        1.856      245.799       54.949        0.050      344.979       22.178      859.120
05/28/2014  17:02:00     -106.826     -157.891        9.667      120.832       95.114       48.267    14600.384     9046.763     2329.727        3.120        1.299      190.634       41.016        0.046      345.131       22.440      859.124
05/28/2014  17:03:00     -329.377     -219.467       -2.365      160.267      120.644       78.682    25685.438    14555.030     6190.893       10.154        2.322      395.796       78.131        0.039      344.789       21.853      859.133
05/28/2014  17:04:00     -198.953      -83.393        9.143      147.076      115.929       68.326    21631.222    13439.496     4668.489        4.317        1.987      215.724       78.475        0.132      344.973       22.170      859.149
05/28/2014  17:05:00     -344.372     -234.371        5.979      174.328      162.857       84.182    30390.186    26522.258     7086.559       11.877        3.200      416.560       88.473        0.045      344.704       21.709      859.167
05/28/2014  17:06:00     -239.809     -156.532        9.578      140.790      128.893       64.203    19821.903    16613.277     4121.961        6.132        2.028      286.375       69.740        0.059      344.622       21.567      859.171
05/28/2014  17:07:00     -273.124     -143.829        5.147      150.096      131.369       71.540    22528.870    17257.862     5118.036        7.010        2.245      308.680       74.097        0.058      344.765       21.812      859.169
05/28/2014  17:08:00     -336.177     -136.710       -5.267      183.302      119.152       71.688    33599.798    14197.302     5139.139        9.232        2.647      362.911       70.601        0.038      344.628       21.578      859.161
05/28/2014  17:09:00     -167.735     -133.069      -10.393      107.964       81.246       42.808    11656.323     6600.896     1832.511        3.302        1.004      214.108       44.116        0.042      344.713       21.724      859.203
05/28/2014  17:10:00     -171.298     -149.262       -2.031       86.777       98.500       52.267     7530.200     9702.251     2731.818        3.579        0.998      227.205       49.751        0.048      344.626       21.575      859.189
05/28/2014  17:11:00     -194.554      -54.339      -10.027       77.646       80.987       43.667     6028.881     6558.889     1906.814        2.770        0.725      202.000       35.399        0.031      344.698       21.699      859.166
05/28/2014  17:12:00      -59.756      -12.703       25.241       92.114       71.592       40.127     8485.037     5125.411     1610.160        0.979        0.761       61.091       47.583        0.607      344.905       22.055      859.144
05/28/2014  17:13:00     -275.763      -96.455       12.536      194.698      106.736       76.073    37907.151    11392.488     5787.148        7.029        2.754      292.145       75.913        0.068      344.758       21.801      859.131
05/28/2014  17:14:00     -207.846      -90.507       -1.351      145.261      100.048       68.264    21100.869    10009.588     4660.031        4.357        1.789      226.697       74.552        0.108      344.931       22.098      859.160
05/28/2014  17:15:00     -252.849     -169.767      -15.476       95.570      103.117       62.680     9133.549    10633.108     3928.816        5.834        1.185      304.554       52.018        0.029      344.697       21.695      859.177
05/28/2014  17:16:00     -166.885     -118.357       15.821      112.133      132.885       51.651    12573.788    17658.444     2667.831        3.750        1.645      204.595       56.669        0.077      344.816       21.900      859.148
05/28/2014  17:17:00     -237.485     -152.488        6.385      143.196      122.434       68.705    20505.005    14990.129     4720.341        5.995        2.011      282.227       58.090        0.042      344.792       21.860      859.129
05/28/2014  17:18:00      -86.026      -76.112       13.787      131.147      105.907       70.669    17199.663    11216.392     4994.052        2.339        1.671      114.863       44.682        0.151      345.009       22.233      859.158
05/28/2014  17:19:00      -54.624     -131.558       -2.595       91.624      107.825       41.162     8394.915    11626.179     1694.316        2.100        1.086      142.448       30.704        0.046      345.095       22.379      859.160
05/28/2014  17:20:00     -178.571      -91.004       17.531      153.774      100.879       67.843    23646.590    10176.654     4602.732        3.944        1.921      200.424       53.783        0.072      345.053       22.308      859.170
05/28/2014  17:21:00     -306.778     -225.788        6.018      213.412      167.582       75.538    45544.705    28083.726     5705.921       11.222        3.967      380.911       75.156        0.039      344.936       22.105      859.168
05/28/2014  17:22:00     -262.323      -71.458        0.019      160.156      122.396       73.206    25649.886    14980.803     5359.127        5.995        2.299      271.882       76.640        0.079      344.861       21.978      859.181
05/28/2014  17:23:00     -218.432      -54.584       15.874      126.550      103.941       67.854    16014.886    10803.709     4604.137        4.118        1.571      225.149       76.473        0.115      344.886       22.020      859.201
05/28/2014  17:24:00     -232.599     -133.489        8.285      155.800      145.950       69.184    24273.777    21301.306     4786.381        6.117        2.518      268.182       90.053        0.113      344.869       21.992      859.218
05/28/2014  17:25:00     -248.273     -168.647        8.550      199.883      115.128       76.070    39953.102    13254.487     5786.657        7.456        2.950      300.136       96.516        0.103      344.699       21.701      859.211
05/28/2014  17:26:00     -286.112     -191.389       -8.584      195.703      115.631       86.122    38299.808    13370.464     7417.012        8.881        2.954      344.223      102.866        0.089      344.716       21.729      859.198
05/28/2014  17:27:00     -236.374     -148.525        5.950      175.379      101.832       74.026    30757.718    10369.761     5479.853        6.228        2.330      279.164       87.941        0.099      344.781       21.839      859.223
05/28/2014  17:28:00     -221.015     -140.772       18.025      175.799      135.837       79.797    30905.269    18451.687     6367.611        6.235        2.786      262.039       98.571        0.142      344.670       21.650      859.220
05/28/2014  17:29:00     -181.414     -129.772        5.622      192.733      106.345       53.038    37145.913    11309.255     2812.985        5.052        2.563      223.052       58.025        0.068      344.750       21.789      859.221
05/28/2014  17:30:00     -334.250     -158.916      -13.447       94.268       83.152       49.265     8886.422     6914.227     2427.069        7.769        0.911      370.105       41.823        0.013      344.414       21.213      859.210
05/28/2014  17:31:00     -189.307      -61.335        6.704      115.241       87.749       52.263    13280.446     7699.966     2731.430        3.167        1.186      198.996       53.873        0.073      344.675       21.660      859.205
05/28/2014  17:32:00     -301.955      -95.407      -23.402      108.065       80.831       49.343    11677.940     6533.649     2434.753        6.073        1.032      316.670       56.576        0.032      344.546       21.437      859.197
05/28/2014  17:33:00     -316.681     -158.254      -14.372      112.241       66.516       52.509    12597.983     4424.385     2757.156        7.265        0.989      354.021       39.746        0.013      344.496       21.352      859.169
05/28/2014  17:34:00     -138.845      -73.288       19.549      183.097       93.305       61.282    33524.494     8705.753     3755.457        3.550        2.299      157.000       69.744        0.197      344.804       21.882      859.174
05/28/2014  17:35:00     -267.536     -227.299      -11.886      156.167      113.032       78.161    24388.226    12776.310     6109.079        8.332        2.164      351.056       66.382        0.036      344.645       21.607      859.185
05/28/2014  17:36:00     -208.246      -95.987        7.399      116.357       82.927       52.821    13538.860     6876.969     2790.110        3.792        1.160      229.303       58.755        0.066      344.739       21.767      859.160
05/28/2014  17:37:00     -200.899     -124.516       10.564      140.660      110.952       58.014    19785.245    12310.455     3365.593        4.571        1.773      236.357       72.344        0.094      344.845       21.950      859.162
05/28/2014  17:38:00     -162.098     -140.330      -11.856      109.457      125.963       63.619    11980.892    15866.672     4047.386        3.900        1.595      214.402       64.878        0.092      344.794       21.862      859.156
05/28/2014  17:39:00     -186.907     -267.187       -3.596      110.452      119.966       64.680    12199.690    14391.917     4183.501        6.855        1.539      326.072       59.993        0.034      344.721       21.738      859.155
05/28/2014  17:40:00     -224.830     -157.900       17.567      134.254      134.931       68.763    18024.218    18206.331     4728.294        5.837        2.048      274.738       62.933        0.052      344.785       21.846      859.170
05/28/2014  17:41:00     -386.605     -112.541      -15.008      144.318      121.166       64.665    20827.807    14681.237     4181.592       10.101        1.985      402.652       59.115        0.022      344.507       21.370      859.137
05/28/2014  17:42:00     -288.979     -144.856        8.346      149.840      191.412       70.236    22452.018    36638.634     4933.053        8.428        3.201      323.252       74.662        0.053      344.657       21.627      859.109
05/28/2014  17:43:00     -219.825     -130.729       10.989      158.482       99.878       58.138    25116.436     9975.695     3379.972        5.200        1.924      255.760       62.160        0.059      344.675       21.658      859.113
05/28/2014  17:44:00     -406.860     -310.371       -1.973      264.037      176.334       96.395    69715.495    31093.638     9292.018       18.596        5.505      511.727      111.362        0.047      344.563       21.466      859.115
05/28/2014  17:45:00     -339.652     -224.694       -3.565      200.818      150.444       87.546    40327.856    22633.419     7664.351       11.823        3.531      407.248       77.362        0.036      344.632       21.586      859.128
05/28/2014  17:46:00     -257.841     -256.837        0.401      146.269      134.291       69.489    21394.639    18034.176     4828.719        8.834        2.213      363.933       66.621        0.034      344.476       21.319      859.173
05/28/2014  17:47:00     -367.948     -272.389      -12.398      166.151      126.008       80.361    27606.321    15878.109     6457.820       12.983        2.497      457.801       75.233        0.027      344.502       21.363      859.143
05/28/2014  17:48:00     -303.053     -225.915       11.341      160.128      130.875       76.808    25640.977    17128.359     5899.515        9.583        2.433      377.993       69.008        0.033      344.583       21.500      859.134
05/28/2014  17:49:00     -441.663     -252.483       -2.077      247.421      156.095       97.619    61217.164    24365.505     9529.426       17.695        4.756      508.738      118.990        0.055      344.572       21.482      859.113
05/28/2014  17:50:00     -183.179      -61.027        7.600      111.155      146.160       67.445    12355.462    21362.768     4548.872        3.779        1.913      193.077       70.510        0.133      344.657       21.628      859.173
05/28/2014  17:51:00     -360.499       65.180      -27.133       65.098       66.662       40.435     4237.763     4443.767     1634.992        7.263        0.516      366.344       22.828        0.004      344.535       21.418      859.157
05/28/2014  17:52:00     -220.727      -64.537       -7.350      119.995       80.963       51.542    14398.697     6554.986     2656.566        3.827        1.181      229.969       58.749        0.065      344.699       21.701      859.152
05/28/2014  17:53:00     -196.290       10.320       -7.027      119.994       89.508       41.077    14398.606     8011.599     1687.341        3.139        1.205      196.561       40.560        0.043      344.832       21.927      859.146
05/28/2014  17:54:00     -145.265       -7.817        8.200      105.358       78.358       44.910    11100.312     6139.986     2016.884        2.024        0.963      145.476       39.053        0.072      344.745       21.780      859.140
05/28/2014  17:55:00      -90.779      -72.189       25.147      115.708       99.431       55.657    13388.311     9886.486     3097.709        2.022        1.319      115.983       63.352        0.298      344.939       22.113      859.136
05/28/2014  17:56:00     -147.204     -111.388      -18.154      119.900       82.891       48.576    14375.937     6870.838     2359.596        2.900        1.180      184.598       51.183        0.077      344.774       21.828      859.130
05/28/2014  17:57:00     -135.777     -120.346        3.351       96.952       85.077       48.964     9399.700     7238.082     2397.485        2.598        0.952      181.434       44.746        0.061      344.911       22.062      859.120
05/28/2014  17:58:00     -310.626      -32.044      -20.263      174.125       88.496       58.225    30319.472     7831.573     3390.202        6.973        2.077      312.275       73.978        0.056      344.878       22.008      859.119
05/28/2014  17:59:00     -328.822      -99.330      -32.208      142.514      119.994       54.136    20310.255    14398.572     2930.680        7.833        1.882      343.498       59.809        0.030      344.666       21.643      859.129
05/28/2014  18:00:00     -218.683      -77.916       -3.211      114.647      121.931       55.249    13144.010    14867.142     3052.491        4.248        1.553      232.149       51.707        0.050      344.709       21.717      859.126
05/28/2014  18:01:00     -192.169     -178.304        0.411       85.777      118.926       52.242     7357.706    14143.320     2729.254        4.647        1.212      262.148       43.624        0.028      344.686       21.677      859.119
05/28/2014  18:02:00     -444.322     -278.474       -6.597      138.337      150.785       82.374    19137.212    22736.208     6785.454       16.183        2.433      524.376       69.469        0.018      344.576       21.488      859.127
05/28/2014  18:03:00     -334.811     -216.770      -11.057      159.094      120.774       60.155    25310.946    14586.354     3618.634       10.135        2.176      398.858       63.463        0.025      344.395       21.181      859.128
05/28/2014  18:04:00     -333.598     -236.017      -33.819      159.846      157.334       76.506    25550.853    24753.922     5853.243       11.214        2.808      408.646       78.162        0.037      344.443       21.261      859.123
05/28/2014  18:05:00     -248.031     -169.072        3.555      185.290      119.741       56.956    34332.430    14337.883     3243.967        7.101        2.596      300.174       80.069        0.071      344.431       21.243      859.120
05/28/2014  18:06:00     -270.725     -217.080        5.640      173.494      149.924       73.004    30100.174    22477.199     5329.645        8.917        2.895      347.010       82.363        0.056      344.510       21.377      859.135
05/28/2014  18:07:00     -125.751     -221.537       13.203      144.934      140.924       72.893    21005.756    19859.645     5313.431        5.561        2.309      254.739       67.173        0.070      344.505       21.368      859.145
05/28/2014  18:08:00     -184.780     -137.993        5.059      126.462       89.122       63.151    15992.700     7942.735     3988.044        4.056        1.396      230.620       53.071        0.053      344.600       21.532      859.161
05/28/2014  18:09:00     -184.123     -149.077       13.324      124.365      128.519       57.458    15466.633    16517.193     3301.478        4.579        1.764      236.908       68.306        0.083      344.622       21.568      859.170
05/28/2014  18:10:00     -267.200     -126.709       10.608      135.751      110.672       60.420    18428.379    12248.388     3650.611        6.094        1.716      295.721       67.747        0.052      344.567       21.472      859.180
05/28/2014  18:11:00     -266.209     -169.550        8.779      174.985      127.544       65.430    30619.710    16267.532     4281.041        7.542        2.558      315.618       72.878        0.053      344.425       21.231      859.189
05/28/2014  18:12:00     -241.882     -158.708       10.144      146.814      113.756       61.642    21554.230    12940.349     3799.744        6.104        1.915      289.301       64.100        0.049      344.380       21.155      859.178
05/28/2014  18:13:00     -167.627     -105.148       -5.974       73.268       71.767       35.465     5368.240     5150.445     1257.774        2.548        0.589      197.876       40.588        0.042      344.281       20.987      859.170
05/28/2014  18:14:00     -103.118      -49.739        9.901       89.092       66.792       37.499     7937.403     4461.229     1406.139        1.350        0.690      114.487       39.149        0.117      344.488       21.342      859.150
05/28/2014  18:15:00     -180.895      -17.491        7.773       86.444       86.753       51.044     7472.530     7526.158     2605.490        2.534        0.880      181.739       42.518        0.055      344.580       21.498      859.131
05/28/2014  18:16:00     -127.454      -98.809       -3.138       94.016      115.708       50.860     8839.004    13388.444     2586.717        2.541        1.241      161.269       54.276        0.113      344.596       21.525      859.147
05/28/2014  18:17:00     -314.069     -232.519       -1.747      172.955      112.206       67.160    29913.274    12590.092     4510.520        9.985        2.351      390.774       79.370        0.041      344.588       21.510      859.147
05/28/2014  18:18:00     -342.323     -192.626      -18.852      181.093      159.450       76.778    32794.672    25424.178     5894.901       10.937        3.206      392.797       70.367        0.032      344.416       21.217      859.155
05/28/2014  18:19:00     -161.329      -53.048       14.200      141.591      106.183       60.134    20047.988    11274.912     3616.095        3.198        1.747      169.826       60.998        0.129      344.640       21.602      859.186
05/28/2014  18:20:00     -248.065     -226.344        4.256      176.443      124.923       94.695    31132.269    15605.842     8967.097        8.423        2.785      335.809      111.637        0.111      344.490       21.341      859.178
05/28/2014  18:21:00     -309.700     -188.275       -5.305      139.492      108.750       72.804    19458.133    11826.574     5300.415        8.398        1.829      362.438       75.651        0.044      344.360       21.120      859.197
05/28/2014  18:22:00     -211.298      -56.136       -1.211      135.489       87.459       43.782    18357.248     7649.055     1916.898        3.786        1.396      218.628       54.648        0.062      344.292       21.005      859.205
05/28/2014  18:23:00     -107.723      -80.548       12.976      100.115      109.805       47.114    10023.068    12057.223     2219.763        2.128        1.215      134.507       43.110        0.103      344.474       21.317      859.194
05/28/2014  18:24:00     -156.324     -103.708        9.495       79.900       85.734       44.841     6384.064     7350.379     2010.757        2.551        0.787      187.597       36.041        0.037      344.458       21.287      859.196
05/28/2014  18:25:00     -150.430     -119.060       -0.798       96.774      109.637       52.862     9365.274    12020.347     2794.383        3.049        1.209      191.845       57.836        0.091      344.502       21.364      859.209
05/28/2014  18:26:00     -195.491     -153.613       -4.532      102.332       89.534       48.985    10471.922     8016.344     2399.515        4.136        1.044      248.624       51.959        0.044      344.402       21.192      859.204
05/28/2014  18:27:00     -273.591     -172.458      -10.817       94.058       78.068       53.567     8846.905     6094.560     2869.399        6.126        0.891      323.410       53.507        0.027      344.292       21.003      859.195
05/28/2014  18:28:00     -210.078     -212.510        1.146      129.737      113.955       62.037    16831.642    12985.677     3848.651        6.147        1.683      298.819       70.222        0.055      344.380       21.155      859.215
05/28/2014  18:29:00     -198.631     -172.419        0.193      119.250      101.910       58.872    14220.657    10385.740     3465.942        4.862        1.404      263.026       65.655        0.062      344.419       21.221      859.223
05/28/2014  18:30:00     -221.925     -162.552       -7.047       83.604       97.999       48.037     6989.573     9603.823     2307.543        4.731        0.945      275.089       54.777        0.040      344.390       21.172      859.228
05/28/2014  18:31:00     -263.104     -174.850       11.725      139.909      142.829       70.704    19574.414    20400.096     4999.119        7.244        2.249      315.905       74.869        0.056      344.372       21.139      859.233
05/28/2014  18:32:00     -282.998     -108.976      -11.362      130.397      123.316       58.355    17003.446    15206.756     3405.276        6.385        1.781      303.255       58.353        0.037      344.396       21.182      859.223
05/28/2014  18:33:00     -245.659     -187.108      -15.562      131.086      119.075       65.520    17183.539    14178.955     4292.887        6.562        1.783      308.800       42.677        0.019      344.317       21.046      859.224
05/28/2014  18:34:00     -204.316     -137.169       -4.577      134.669       85.340       49.280    18135.761     7282.942     2428.501        4.421        1.392      246.090       46.782        0.036      344.237       20.910      859.225
05/28/2014  18:35:00     -137.164     -116.412        9.043      118.466       80.771       42.418    14034.232     6523.923     1799.315        2.740        1.118      179.905       37.591        0.044      344.438       21.255      859.227
05/28/2014  18:36:00     -193.447     -106.423        3.784       70.009       64.165       44.409     4901.307     4117.141     1972.173        2.987        0.550      220.789       36.654        0.028      344.412       21.209      859.239
05/28/2014  18:37:00     -157.327      -82.021       12.638       97.681       66.441       37.437     9541.656     4414.384     1401.497        2.350        0.768      177.424       37.606        0.045      344.596       21.524      859.245
05/28/2014  18:38:00     -141.420      -11.373       11.507      111.236       60.266       56.684    12373.412     3632.036     3213.106        1.974        0.961      141.877       57.441        0.164      344.542       21.433      859.251
05/28/2014  18:39:00     -171.384      -71.796       -4.829      115.717      116.553       54.753    13390.446    13584.557     2997.848        3.226        1.499      185.815       55.165        0.088      344.470       21.308      859.245
05/28/2014  18:40:00     -189.739      -55.831       -2.506       89.475       62.552       51.546     8005.713     3912.730     2657.021        2.685        0.729      197.783       49.399        0.062      344.318       21.049      859.253
05/28/2014  18:41:00     -203.513      -50.813      -19.149       70.907       65.920       39.250     5027.869     4345.485     1540.568        2.764        0.546      209.760       32.357        0.024      344.433       21.246      859.233
05/28/2014  18:42:00     -101.772      -55.421       11.433      107.461       94.104       46.166    11547.947     8855.478     2131.263        1.804        1.127      115.883       61.561        0.282      344.456       21.285      859.249
05/28/2014  18:43:00     -182.017       17.996       -7.621      101.838       73.129       44.035    10370.896     5347.843     1939.104        2.558        0.883      182.905       38.725        0.045      344.546       21.439      859.259
05/28/2014  18:44:00     -248.946      -73.038      -15.723       85.659       67.154       39.055     7337.519     4509.672     1525.322        4.046        0.669      259.440       41.534        0.026      344.527       21.405      859.268
05/28/2014  18:45:00     -183.946     -138.053       -4.496       82.982       65.375       49.501     6885.975     4273.908     2450.317        3.326        0.681      229.989       40.634        0.031      344.416       21.216      859.275
05/28/2014  18:46:00     -221.297     -185.577        3.941      151.115      129.226       67.023    22835.766    16699.280     4492.122        6.372        2.201      288.810       73.660        0.065      344.336       21.079      859.270
05/28/2014  18:47:00     -315.154     -238.852       -4.685      138.241       97.172       76.150    19110.455     9442.384     5798.773        9.537        1.718      395.439       83.887        0.045      344.244       20.922      859.271
05/28/2014  18:48:00     -234.140      -88.555      -17.492      106.862       82.887       42.369    11419.427     6870.204     1795.108        4.152        1.004      250.327       54.695        0.048      344.352       21.107      859.287
05/28/2014  18:49:00     -137.221      -48.270        1.456       63.820       69.129       35.932     4072.943     4778.785     1291.077        1.565        0.507      145.464       31.290        0.046      344.512       21.384      859.303
05/28/2014  18:50:00      -53.960       -4.930       14.242       73.796       64.875       36.536     5445.794     4208.747     1334.862        0.706        0.549       54.185       30.798        0.323      344.381       21.159      859.304
05/28/2014  18:51:00     -117.217        7.471       -7.133       67.292       47.348       34.082     4528.269     2241.824     1161.580        1.089        0.397      117.455       32.575        0.077      344.506       21.374      859.311
05/28/2014  18:52:00      -97.504      -11.729        0.793       52.848       26.809       20.896     2792.945      718.717      436.660        0.680        0.197       98.207       23.523        0.057      344.541       21.432      859.319
05/28/2014  18:53:00      -90.130      -26.997       16.333       73.919       60.843       37.131     5463.953     3701.847     1378.726        0.983        0.527       94.087       33.739        0.129      344.733       21.762      859.313
05/28/2014  18:54:00      -54.631       53.483       20.006       57.632       66.780       34.709     3321.501     4459.559     1204.741        0.761        0.449       76.453       32.027        0.175      344.450       21.276      859.323
05/28/2014  18:55:00     -108.565      -27.048       -2.443       62.575       47.460       25.063     3915.663     2252.457      628.172        0.966        0.340      111.883       15.837        0.020      344.450       21.277      859.335
05/28/2014  18:56:00     -202.021      -20.114      -23.018       63.620       86.450       37.836     4047.548     7473.560     1431.589        2.735        0.648      203.020       36.743        0.033      344.437       21.252      859.343
05/28/2014  18:57:00     -257.479      -89.780       -5.486       94.697      130.684       47.507     8967.576    17078.290     2256.886        5.134        1.415      272.683       35.285        0.017      344.284       20.993      859.345
05/28/2014  18:58:00     -311.721     -107.562      -28.103       69.523       72.793       36.958     4833.391     5298.803     1365.924        6.051        0.575      329.757       22.142        0.005      344.246       20.925      859.366
05/28/2014  18:59:00     -131.715      -61.661       23.273      124.670       89.192       51.598    15542.599     7955.200     2662.397        2.392        1.308      145.433       52.792        0.132      344.249       20.933      859.373
05/28/2014  19:00:00     -147.498      -90.191       -0.254       86.809       61.739       35.125     7535.814     3811.763     1233.783        2.123        0.629      172.888       32.957        0.036      344.271       20.967      859.399
05/28/2014  19:01:00      -42.216        4.315       11.275       39.226       44.164       25.733     1538.675     1950.428      662.173        0.304        0.208       42.436       20.640        0.237      344.334       21.079      859.423
05/28/2014  19:02:00      -49.596        7.226       14.267       54.693       50.514       26.131     2991.367     2551.684      682.843        0.447        0.311       50.119       20.325        0.164      344.351       21.108      859.440
05/28/2014  19:03:00      -80.433      -87.697       -1.372       63.535       44.236       32.337     4036.687     1956.790     1045.688        1.060        0.352      118.996       32.462        0.074      344.318       21.050      859.460
05/28/2014  19:04:00      -49.396      -60.835        2.851       54.921       40.297       28.002     3016.302     1623.848      784.123        0.579        0.271       78.364       28.679        0.134      344.354       21.114      859.468
05/28/2014  19:05:00      -90.716      -45.097       -7.800       25.810       33.573       16.403      666.139     1127.145      269.069        0.619        0.103      101.307       12.216        0.015      344.170       20.800      859.484
05/28/2014  19:06:00       12.240       -0.368       -1.557       33.279       16.270       10.929     1107.509      264.703      119.436        0.082        0.075       12.246        7.779        0.404      343.850       20.255      859.496
05/28/2014  19:07:00       44.859        6.499       22.852       53.948       37.674       32.825     2910.373     1419.319     1077.504        0.399        0.270       45.328       38.065        0.705      343.100       18.973      859.493
05/28/2014  19:08:00       53.318       16.122       15.994       32.968       25.218       22.644     1086.914      635.929      512.755        0.280        0.112       55.703       15.963        0.082      343.499       19.655      859.498
05/28/2014  19:09:00       79.793       28.425        3.092       31.535       24.672       20.971      994.431      608.723      439.782        0.461        0.102       84.705        5.469        0.004      343.588       19.808      859.502
05/28/2014  19:10:00       28.207       31.215       -3.398       23.448       39.801       18.069      549.800     1584.086      326.503        0.212        0.123       42.072       18.906        0.202      344.129       20.729      859.514
05/28/2014  19:11:00      101.406       42.244        0.886       52.763       47.196       33.628     2783.948     2227.469     1130.820        0.910        0.307      109.853       15.948        0.021      344.108       20.692      859.538
05/28/2014  19:12:00       25.944       66.458       -1.231       69.045       71.877       38.641     4767.170     5166.282     1493.154        0.826        0.571       71.342       30.739        0.186      344.056       20.605      859.552
05/28/2014  19:13:00     -139.835       15.200       -9.293       81.464       62.106       34.690     6636.403     3857.203     1203.395        1.578        0.585      140.659       33.582        0.057      344.333       21.075      859.594
05/28/2014  19:14:00     -111.679      -11.574       -8.757       93.596       49.456       41.565     8760.287     2445.932     1727.670        1.281        0.647      112.277       58.665        0.273      343.872       20.290      859.593
05/28/2014  19:15:00       27.191      -55.056       -5.475       46.053       83.291       31.881     2120.923     6937.375     1016.414        0.694        0.504       61.404       28.776        0.220      343.821       20.202      859.557
05/28/2014  19:16:00      -39.837       67.426       22.680      127.342      134.830       73.453    16215.980    18179.219     5395.324        2.321        1.990       78.315       61.365        0.614      343.967       20.449      859.594
05/28/2014  19:17:00     -183.474      164.190      -45.240       92.181      144.843       56.925     8497.331    20979.599     3240.512        4.769        1.636      246.213       59.989        0.059      343.989       20.487      859.632
05/28/2014  19:18:00     -146.858       78.349      -17.913       60.706      150.817       45.759     3685.271    22745.876     2093.912        2.827        1.426      166.451       40.379        0.059      344.018       20.537      859.661
05/28/2014  19:19:00     -134.553      -62.556        3.436       52.766       54.538       34.809     2784.291     2974.401     1211.698        1.450        0.349      148.383       26.006        0.031      343.945       20.415      859.651
05/28/2014  19:20:00      -15.786       10.624        5.643       71.786       48.214       24.432     5153.221     2324.615      596.905        0.423        0.404       19.028       20.748        1.189      343.772       20.121      859.654
05/28/2014  19:21:00       68.237       29.326       22.898       25.463       30.317       28.998      648.370      919.112      840.857        0.422        0.120       74.271       17.994        0.059      343.598       19.823      859.646
05/28/2014  19:22:00      166.268       70.343       36.026      107.846       67.026       60.210    11630.765     4492.545     3625.280        2.682        0.987      180.536       39.649        0.048      343.679       19.958      859.617
05/28/2014  19:23:00       72.501      218.162      -12.024       97.323      104.054       81.406     9471.772    10827.182     6626.857        3.996        1.346      229.893       68.843        0.090      343.745       20.068      859.640
05/28/2014  19:24:00       93.654      302.177      -38.614      179.428      149.985       89.126    32194.258    22495.480     7943.429        8.209        3.132      316.357       76.900        0.059      343.736       20.055      859.644
05/28/2014  19:25:00      -48.440      181.671      -19.435       74.886      124.755       58.547     5607.862    15563.863     3427.786        3.016        1.230      188.018       56.132        0.089      343.824       20.205      859.755
05/28/2014  19:26:00        5.104      316.896      -45.386       61.267      102.381       42.348     3753.680    10481.912     1793.349        5.927        0.801      316.937       35.097        0.012      343.756       20.087      859.799
05/28/2014  19:27:00       26.954      382.373      -35.869       97.371      165.901       73.165     9481.049    27523.278     5353.180        9.528        2.118      383.322       77.501        0.041      343.391       19.466      859.831
05/28/2014  19:28:00      129.140      147.944       28.438      133.545      122.398      108.403    17834.365    14981.297    11751.161        4.196        2.228      196.379       91.718        0.218      343.089       18.952      859.839
05/28/2014  19:29:00      121.838      198.930       18.554      138.408      127.101       93.018    19156.889    16154.612     8652.344        4.935        2.198      233.276       84.571        0.131      342.972       18.753      859.890
05/28/2014  19:30:00       17.817      416.691      -45.750      141.735      186.332       90.267    20088.946    34719.731     8148.218       11.949        3.148      417.071      102.361        0.060      342.872       18.583      859.902
05/28/2014  19:31:00      -75.241      454.336      -46.621      134.369      165.847       77.360    18054.987    27505.258     5984.543       13.289        2.577      460.524       84.918        0.034      342.894       18.622      859.902
05/28/2014  19:32:00       -7.880      284.322      -28.410       75.102      181.044       68.924     5640.254    32777.066     4750.572        6.243        2.158      284.432       88.739        0.097      342.943       18.704      859.911
05/28/2014  19:33:00       70.531      360.506      -29.718      128.519      230.096       96.138    16517.143    52944.186     9242.551       10.725        3.935      367.341      112.513        0.094      342.876       18.591      859.930
05/28/2014  19:34:00      122.883      234.578       11.370      156.410      159.654      100.750    24464.136    25489.266    10150.594        6.517        3.005      264.815       96.558        0.133      342.833       18.515      859.922
05/28/2014  19:35:00       43.271      308.510      -35.068      123.587      155.096       71.782    15273.813    24054.779     5152.720        7.137        2.224      311.529       69.971        0.050      342.838       18.524      859.929
05/28/2014  19:36:00       11.181      388.306      -40.748       96.839      206.189       73.919     9377.724    42513.710     5463.984       10.495        2.868      388.467       96.689        0.062      342.811       18.480      859.934
05/28/2014  19:37:00       73.668      234.672      -15.114      111.451      157.785       82.052    12421.376    24896.260     6732.593        5.238        2.203      245.964       91.282        0.138      342.786       18.436      859.944
05/28/2014  19:38:00       58.577      318.319      -47.565       97.372      122.994       74.753     9481.286    15127.513     5587.970        6.860        1.510      323.664       68.568        0.045      342.777       18.420      859.955
05/28/2014  19:39:00       52.699      294.098      -17.787       89.585      182.445       85.722     8025.400    33286.072     7348.293        6.911        2.433      298.782      101.893        0.116      342.750       18.375      859.977
05/28/2014  19:40:00      121.887      239.240       -8.394      132.422      129.083       95.694    17535.625    16662.320     9157.350        5.775        2.168      268.500       84.701        0.100      342.735       18.351      859.982
05/28/2014  19:41:00      117.509      219.849       -4.049      124.113      174.130       90.629    15404.078    30321.175     8213.692        5.804        2.697      249.283      101.766        0.167      342.717       18.319      860.002
05/28/2014  19:42:00       60.109      275.498      -24.990      103.890      188.073       76.197    10793.089    35371.452     5805.918        6.604        2.599      281.979       83.663        0.088      342.678       18.253      859.998
05/28/2014  19:43:00      -40.889      322.659      -34.836       95.475      119.670       51.196     9115.569    14321.015     2621.012        6.652        1.303      325.240       50.249        0.024      342.677       18.250      860.008
05/28/2014  19:44:00       21.207      323.552      -27.191      128.242      130.352       80.844    16445.899    16991.583     6535.711        7.292        1.999      324.247       76.799        0.056      342.660       18.221      860.017
05/28/2014  19:45:00       60.579      275.374      -32.109       83.950      128.144       68.835     7047.644    16420.997     4738.223        5.436        1.410      281.959       66.003        0.055      342.642       18.192      860.016
05/28/2014  19:46:00       92.748      221.500      -35.889      107.848      204.814       79.046    11631.089    41948.612     6248.344        5.938        2.991      240.134      106.630        0.197      342.585       18.095      860.045
05/28/2014  19:47:00       88.876      306.064      -29.043      145.763      191.500      105.960    21246.730    36672.129    11227.523        8.577        3.457      318.706      109.748        0.119      342.568       18.066      860.060
05/28/2014  19:48:00       60.768      239.296      -23.519      103.868      147.673       75.166    10788.641    21807.207     5649.916        4.987        1.912      246.892       90.006        0.133      342.566       18.062      860.058
05/28/2014  19:49:00       99.462      198.724       -9.522      111.496      103.837       90.367    12431.259    10782.133     8166.260        4.042        1.569      222.225       75.509        0.115      342.534       18.008      860.076
05/28/2014  19:50:00       60.696      193.747       -2.287       99.953      132.129       71.289     9990.623    17458.041     5082.104        3.687        1.627      203.032       76.468        0.142      342.513       17.973      860.087
05/28/2014  19:51:00       62.976      455.000      -50.526       92.914      203.367       95.072     8633.031    41358.227     9038.703       13.627        2.951      459.337      113.482        0.061      342.512       17.969      860.096
05/28/2014  19:52:00       59.135      278.111       -3.051      115.938      183.146       98.230    13441.611    33542.549     9649.120        6.873        2.832      284.328      103.641        0.133      342.502       17.953      860.097
05/28/2014  19:53:00       82.664      328.344      -27.748      138.736      219.298      120.436    19247.747    48091.555    14504.916        9.861        4.092      338.590      126.115        0.139      342.485       17.925      860.110
05/28/2014  19:54:00       73.667      310.934      -26.312      117.249      158.197       98.189    13747.318    25026.163     9641.120        7.560        2.421      319.541      101.174        0.100      342.483       17.920      860.135
05/28/2014  19:55:00      138.864      213.157       26.826      157.383      109.182       95.636    24769.418    11920.625     9146.219        5.563        2.292      254.400      100.041        0.155      342.469       17.897      860.143
05/28/2014  19:56:00      117.960      263.477        0.633      104.760      163.861      108.945    10974.617    26850.281    11869.114        6.650        2.485      288.677      111.116        0.148      342.446       17.858      860.154
05/28/2014  19:57:00       84.583      297.763      -16.434      104.291      176.556       95.750    10876.527    31172.079     9168.127        7.364        2.561      309.543       99.206        0.103      342.442       17.851      860.164
05/28/2014  19:58:00       51.791      204.153      -21.114       87.359      171.049       78.241     7631.537    29257.646     6121.615        4.390        2.151      210.620       91.132        0.187      342.438       17.846      860.168
05/28/2014  19:59:00       78.102      241.882      -24.950       88.377      134.013       76.572     7810.542    17959.555     5863.230        4.842        1.582      254.179       78.850        0.096      342.433       17.835      860.182
05/28/2014  20:00:00       32.576      231.865       -4.268      108.167      131.921       80.129    11700.049    17403.203     6420.598        4.518        1.776      234.142       74.674        0.102      342.413       17.803      860.186
05/28/2014  20:01:00       50.809      205.804      -13.568       84.873      115.082       64.374     7203.452    13243.788     4144.048        3.485        1.230      211.984       65.307        0.095      342.406       17.791      860.192
05/28/2014  20:02:00      102.827      177.963        5.037      114.957      129.558       75.018    13215.109    16785.190     5627.632        3.894        1.781      205.534       74.651        0.132      342.386       17.756      860.197
05/28/2014  20:03:00       79.797      222.204      -16.426       87.304      145.398       78.464     7622.028    21140.650     6156.538        4.546        1.746      236.098       83.511        0.125      342.388       17.759      860.209
05/28/2014  20:04:00       66.326      221.009       -4.249       98.383      137.941       84.777     9679.222    19027.601     7187.074        4.457        1.795      230.747       85.258        0.137      342.394       17.769      860.233
05/28/2014  20:05:00       62.898      158.024       19.698       89.806      131.000       73.972     8065.142    17160.955     5471.824        3.000        1.535      170.081       80.937        0.226      342.356       17.707      860.255
05/28/2014  20:06:00       35.718      245.439      -10.713       94.005      127.824       68.931     8836.860    16338.870     4751.542        4.577        1.496      248.024       68.210        0.076      342.403       17.786      860.270
05/28/2014  20:07:00      -29.193      341.244      -31.209      101.429      202.025       64.435    10287.920    40814.243     4151.894        8.675        2.763      342.490       94.301        0.076      342.441       17.850      860.276
05/28/2014  20:08:00       -2.411      407.396      -51.459       87.311      145.233       66.740     7623.187    21092.669     4454.254       10.089        1.659      407.403       75.212        0.034      342.479       17.915      860.289
05/28/2014  20:09:00      -22.066      356.063      -41.990       97.750       95.618       63.375     9554.990     9142.858     4016.351        7.587        1.136      356.746       59.498        0.028      342.503       17.954      860.313
05/28/2014  20:10:00      -66.875      276.707      -16.128      121.575      149.664       78.491    14780.396    22399.424     6160.790        6.231        2.167      284.674       83.503        0.086      342.487       17.929      860.320
05/28/2014  20:11:00        4.236      370.991      -44.815       86.702      111.365       68.116     7517.278    12402.131     4639.825        8.211        1.228      371.015       62.174        0.028      342.500       17.950      860.341
05/28/2014  20:12:00      -49.882      484.760      -57.103       85.858      192.757       65.724     7371.637    37155.406     4319.690       14.478        2.442      487.319       83.956        0.030      342.515       17.975      860.332
05/28/2014  20:13:00      -36.076      399.139      -50.540      110.215      159.036       62.038    12147.333    25292.597     3848.773       10.222        2.064      400.766       65.333        0.027      342.486       17.927      860.342
05/28/2014  20:14:00      -72.965      440.683      -50.685       86.010      146.401       52.613     7397.776    21433.338     2768.134       11.684        1.580      446.683       65.159        0.021      342.475       17.908      860.367
05/28/2014  20:15:00       12.680      437.852      -57.398       95.408      181.428       70.559     9102.658    32916.048     4978.586       12.107        2.350      438.036       92.109        0.044      342.455       17.873      860.382
05/28/2014  20:16:00       20.446      505.503      -61.903      103.374      134.940       78.429    10686.201    18208.713     6151.165       14.741        1.752      505.917       84.022        0.028      342.420       17.815      860.381
05/28/2014  20:17:00        9.386      236.515       -3.758      117.270      168.784       74.309    13752.223    28487.956     5521.883        5.189        2.388      236.701       89.386        0.143      342.402       17.785      860.393
05/28/2014  20:18:00      -18.404      432.200      -62.597      108.671      122.169       63.638    11809.316    14925.255     4049.735       11.091        1.539      432.592       58.663        0.018      342.405       17.788      860.409
05/28/2014  20:19:00      -48.530      539.470      -70.038       85.974      104.853       48.628     7391.522    10994.147     2364.724       15.952        1.038      541.649       52.692        0.009      342.409       17.795      860.405
05/28/2014  20:20:00       41.704      248.007       -4.032      108.545      181.118       99.758    11782.091    32803.774     9951.578        5.889        2.727      251.489       99.415        0.156      342.359       17.708      860.398
05/28/2014  20:21:00       -1.004      257.951      -25.407      107.821      108.287       54.581    11625.373    11726.117     2979.083        4.675        1.317      257.953       59.692        0.054      342.357       17.707      860.414
05/28/2014  20:22:00      -48.446      330.766      -26.361      127.148      114.448       76.348    16166.607    13098.367     5829.014        7.376        1.755      334.295       67.778        0.041      342.353       17.699      860.429
05/28/2014  20:23:00      -63.037      430.612      -51.872      114.927      137.976       62.956    13208.124    19037.375     3963.428       11.414        1.810      435.202       63.937        0.022      342.339       17.676      860.434
05/28/2014  20:24:00      -72.506      430.969      -48.179       87.786      119.563       57.166     7706.429    14295.352     3268.008       10.929        1.263      437.026       62.035        0.020      342.344       17.684      860.439
05/28/2014  20:25:00      -54.077      280.815      -42.622       73.256      113.285       64.448     5366.388    12833.542     4153.499        5.297        1.118      285.975       56.880        0.040      342.337       17.673      860.452
05/28/2014  20:26:00      -37.666      361.168      -46.631       98.245       76.708       45.100     9652.045     5884.099     2034.030        7.580        0.879      363.127       36.254        0.010      342.345       17.685      860.466
05/28/2014  20:27:00      -88.046      340.542      -48.985       74.334      100.210       43.211     5525.521    10041.980     1867.231        7.177        0.872      351.740       42.772        0.015      342.337       17.673      860.477
05/28/2014  20:28:00      -49.690      216.801      -29.148       70.447      117.406       41.422     4962.829    13784.126     1715.788        3.539        1.023      222.422       49.424        0.049      342.295       17.602      860.493
05/28/2014  20:29:00      -69.999      360.489      -38.535       85.531       95.362       51.637     7315.541     9093.830     2666.387        7.770        0.954      367.222       55.182        0.023      342.272       17.562      860.487
05/28/2014  20:30:00      -77.442      445.019      -58.879       69.855      116.298       44.437     4879.782    13525.237     1974.664       11.394        1.019      451.707       44.177        0.010      342.292       17.596      860.492
05/28/2014  20:31:00      -82.110      449.130      -51.870       97.686      126.702       51.131     9542.472    16053.381     2614.339       11.967        1.411      456.574       54.694        0.014      342.256       17.536      860.500
05/28/2014  20:32:00      -64.095      291.773      -24.459       96.699      143.786       61.481     9350.762    20674.509     3779.934        6.181        1.690      298.730       72.390        0.059      342.220       17.473      860.512
05/28/2014  20:33:00      -55.193      402.649      -41.097      119.452      159.427       66.307    14268.758    25417.096     4396.630       10.546        2.204      406.414       76.605        0.036      342.213       17.462      860.523
05/28/2014  20:34:00      -49.134      432.550      -46.294       84.547       93.340       57.344     7148.236     8712.326     3288.299       10.540        0.957      435.332       45.494        0.011      342.194       17.429      860.528
05/28/2014  20:35:00        2.615      382.075      -44.071      102.840      163.468       78.211    10576.166    26721.690     6117.010        9.566        2.171      382.084       90.068        0.056      342.160       17.373      860.532
05/28/2014  20:36:00      -59.321      392.139      -53.395       91.673      134.066       52.008     8403.865    17973.739     2704.849        9.461        1.454      396.600       63.256        0.025      342.151       17.357      860.558
05/28/2014  20:37:00      -50.146      337.115      -22.698      103.374      111.700       77.537    10686.145    12476.880     6011.991        7.292        1.459      340.824       68.808        0.041      342.114       17.294      860.567
05/28/2014  20:38:00      -35.901      411.969      -62.931       95.501      101.113       57.588     9120.523    10223.887     3316.429        9.881        1.133      413.531       59.293        0.021      342.088       17.249      860.565
05/28/2014  20:39:00     -105.641      357.728      -43.781       79.488      100.348       62.295     6318.280    10069.784     3880.605        8.065        1.013      373.000       59.729        0.026      342.096       17.262      860.575
05/28/2014  20:40:00     -104.976      268.847      -25.971      102.995       93.668       63.932    10607.990     8773.713     4087.312        5.372        1.173      288.615       64.751        0.050      342.080       17.237      860.575
05/28/2014  20:41:00     -116.350      260.231      -34.728       68.386      100.181       57.381     4676.584    10036.327     3292.598        5.023        0.900      285.057       56.927        0.040      342.043       17.173      860.597
05/28/2014  20:42:00      -66.650      273.143      -27.183       67.011      110.402       42.433     4490.453    12188.591     1800.585        4.913        0.924      281.157       47.354        0.028      342.027       17.146      860.605
05/28/2014  20:43:00      -69.120      385.554      -51.796       86.991      129.062       48.001     7567.371    16656.940     2304.079        9.132        1.326      391.701       43.086        0.012      342.040       17.169      860.612
05/28/2014  20:44:00      -54.774      310.446      -37.340       71.659       77.762       46.439     5135.046     6046.900     2156.557        5.705        0.667      315.241       41.658        0.017      342.015       17.126      860.617
05/28/2014  20:45:00     -143.381      263.911      -49.886      145.155       97.103       44.569    21069.952     9428.966     1986.392        6.258        1.624      300.346       44.986        0.022      342.004       17.107      860.637
05/28/2014  20:46:00     -124.567      316.951      -38.997      121.372      174.307       65.520    14731.224    30382.827     4292.875        8.344        2.470      340.551       65.035        0.036      341.964       17.038      860.646
05/28/2014  20:47:00     -109.723      347.695      -35.186       93.433      155.353       65.985     8729.633    24134.683     4354.008        8.569        1.861      364.597       74.594        0.042      341.923       16.969      860.648
05/28/2014  20:48:00      -87.022      359.067      -37.536       96.111       83.524       60.830     9237.246     6976.254     3700.232        7.891        0.996      369.462       47.675        0.017      341.919       16.959      860.654
05/28/2014  20:49:00     -102.221      360.230      -47.384       82.819      115.508       55.199     6858.906    13342.118     3046.966        8.285        1.162      374.453       52.425        0.020      341.900       16.928      860.663
05/28/2014  20:50:00      -56.192      378.380      -50.925       70.902      108.988       52.198     5027.073    11878.361     2724.593        8.427        0.982      382.530       58.757        0.024      341.887       16.907      860.673
05/28/2014  20:51:00     -134.565      222.833      -38.217       94.563       97.436       49.359     8942.243     9493.801     2436.272        4.504        1.044      260.312       47.095        0.033      341.854       16.852      860.664
05/28/2014  20:52:00     -149.011      319.963      -45.896      102.477      151.384       65.326    10501.548    22917.216     4267.466        8.218        1.884      352.960       75.909        0.046      341.838       16.824      860.670
05/28/2014  20:53:00     -131.098      313.406      -51.438      155.450      154.458       71.435    24164.563    23857.334     5102.956        8.558        2.656      339.720       56.812        0.028      341.795       16.752      860.681
05/28/2014  20:54:00     -121.807      282.970      -24.486       86.777      107.839       51.992     7530.246    11629.170     2703.130        5.868        1.093      308.073       54.508        0.031      341.762       16.696      860.676
05/28/2014  20:55:00     -124.628      339.044      -33.727      106.580      194.580       81.074    11359.333    37861.456     6573.046        9.370        2.790      361.224       92.749        0.066      341.773       16.715      860.668
05/28/2014  20:56:00     -169.318      388.515      -55.060       96.993      158.442       65.780     9407.680    25103.853     4326.995       11.073        1.942      423.807       61.937        0.021      341.759       16.689      860.682
05/28/2014  20:57:00     -141.403      359.413      -45.268       96.502      168.468       61.313     9312.592    28381.573     3759.276        9.633        2.073      386.228       77.784        0.041      341.761       16.695      860.690
05/28/2014  20:58:00     -142.267      314.982      -34.303       92.368      188.995       62.188     8531.873    35719.158     3867.392        8.436        2.406      345.621       65.637        0.036      341.732       16.645      860.708
05/28/2014  20:59:00     -144.327      252.235      -39.462       86.115      168.545       50.929     7415.768    28407.268     2593.749        6.221        1.921      290.608       49.739        0.029      341.740       16.660      860.709
05/28/2014  21:00:00     -186.105      238.761      -44.683      110.599       83.593       54.227    12232.108     6987.814     2940.572        5.790        1.108      302.724       56.163        0.034      341.717       16.618      860.713
05/28/2014  21:01:00     -157.526      112.330        3.200      116.543       86.017       59.791    13582.194     7398.878     3574.974        3.099        1.228      193.475       60.873        0.099      341.703       16.597      860.717
05/28/2014  21:02:00     -160.841      255.896      -41.217       87.574       99.656       57.049     7669.150     9931.354     3254.623        5.695        1.043      302.246       54.638        0.033      341.625       16.464      860.735
05/28/2014  21:03:00     -170.945      220.633      -30.410       85.793       99.454       46.535     7360.453     9891.087     2165.468        4.912        0.971      279.108       45.749        0.027      341.604       16.428      860.742
05/28/2014  21:04:00     -285.774      273.461      -57.672      153.672      138.485       79.857    23615.189    19178.166     6377.152       10.446        2.459      395.534       77.672        0.039      341.443       16.157      860.755
05/28/2014  21:05:00     -210.938      269.998      -45.578      107.676      109.393       55.963    11594.078    11966.918     3131.810        7.308        1.335      342.628       51.107        0.022      341.440       16.149      860.764
05/28/2014  21:06:00     -220.756      346.998      -50.833      150.826      152.881       84.753    22748.374    23372.497     7183.026       11.250        2.665      411.267       88.614        0.046      341.429       16.132      860.768
05/28/2014  21:07:00     -182.506      292.823      -49.351      123.081      149.736       65.587    15148.901    22420.902     4301.609        8.167        2.094      345.042       78.739        0.052      341.416       16.110      860.785
05/28/2014  21:08:00     -187.246      179.239      -31.893      128.324      110.038       55.482    16467.080    12108.284     3078.233        4.992        1.583      259.206       59.617        0.053      341.399       16.082      860.780
05/28/2014  21:09:00     -138.843      227.373      -37.047      114.807      118.789       70.158    13180.570    14110.808     4922.207        5.227        1.611      266.413       69.839        0.069      341.382       16.053      860.787
05/28/2014  21:10:00     -119.325      262.270      -27.543       88.022      136.513       68.254     7747.793    18635.835     4658.658        5.741        1.552      288.139       59.495        0.043      341.358       16.012      860.789
05/28/2014  21:11:00     -157.958      246.203      -25.482       87.590      111.435       67.124     7672.090    12417.822     4505.644        5.540        1.230      292.518       59.789        0.042      341.380       16.049      860.810
05/28/2014  21:12:00     -184.795      277.747      -26.230      112.081      143.593       65.852    12562.075    20618.912     4336.512        7.474        1.876      333.605       57.384        0.030      341.391       16.067      860.845
05/28/2014  21:13:00     -124.369      277.907      -23.731       86.009      138.886       62.198     7397.611    19289.405     3868.595        6.190        1.528      304.466       52.196        0.029      341.371       16.035      860.869
05/28/2014  21:14:00     -200.880      245.785      -40.346      114.918      115.866       68.849    13206.185    13424.818     4740.191        6.687        1.569      317.432       78.062        0.060      341.352       16.001      860.889
05/28/2014  21:15:00     -170.644      242.147      -32.546      108.879      112.834       59.068    11854.717    12731.507     3489.037        5.844        1.404      296.234       64.951        0.048      341.339       15.978      860.893
05/28/2014  21:16:00     -222.305      335.805      -67.235      101.703      169.262       58.424    10343.504    28649.559     3413.378       10.455        2.120      402.721       69.937        0.030      341.337       15.977      860.892
05/28/2014  21:17:00     -163.811      184.401      -34.234      103.900      116.606       48.071    10795.285    13596.979     2310.846        4.435        1.335      246.653       42.473        0.030      341.339       15.979      860.905
05/28/2014  21:18:00     -188.770      264.589      -33.654      140.726      160.815       73.200    19803.865    25861.512     5358.306        7.889        2.551      325.026       68.235        0.044      341.323       15.952      860.927
05/28/2014  21:19:00     -286.918      308.174      -67.755      120.587      127.227       64.870    14541.308    16186.742     4208.059       10.840        1.747      421.062       58.625        0.019      341.352       16.002      860.935
05/28/2014  21:20:00     -204.627      383.481      -41.518      103.111      153.821       82.013    10631.908    23661.030     6726.071       11.583        2.051      434.661       80.650        0.034      341.340       15.981      860.937
05/28/2014  21:21:00     -186.045      200.399      -23.099       95.294      145.995       68.800     9080.992    21314.631     4733.428        5.521        1.756      273.446       78.999        0.083      341.348       15.996      860.932
05/28/2014  21:22:00     -194.019      256.265      -49.862      118.766      130.330       62.578    14105.438    16985.946     3915.965        7.040        1.750      321.427       52.380        0.027      341.326       15.958      860.933
05/28/2014  21:23:00     -233.706      288.944      -47.190      117.732      150.720       74.477    13860.815    22716.535     5546.862        9.122        2.106      371.628       76.515        0.042      341.334       15.971      860.921
05/28/2014  21:24:00     -249.078      315.849      -61.135      129.404      100.244       70.565    16745.451    10048.897     4979.391        9.865        1.589      402.244       74.992        0.035      341.339       15.981      860.925
05/28/2014  21:25:00     -256.969      305.358      -68.881      143.048      122.131       73.532    20462.844    14916.045     5406.929       10.240        2.039      399.095       65.040        0.027      341.344       15.988      860.930
05/28/2014  21:26:00     -232.898      254.394      -43.766      115.652      127.535       79.728    13375.467    16265.205     6356.514        7.843        1.800      344.902       65.034        0.036      341.389       16.064      860.931
05/28/2014  21:27:00     -305.962      277.472      -71.250      147.102      129.993       78.001    21638.949    16898.250     6084.124       11.014        2.231      413.041       86.658        0.044      341.354       16.005      860.939
05/28/2014  21:28:00     -276.109      344.077      -67.162      138.433      162.228       86.684    19163.665    26318.036     7514.125       12.606        2.650      441.163       90.391        0.042      341.318       15.943      860.952
05/28/2014  21:29:00     -253.823      372.943      -52.818      138.829      180.333       95.468    19273.400    32519.852     9114.088       13.359        3.045      451.124       97.318        0.047      341.289       15.893      860.957
05/28/2014  21:30:00     -293.005      305.385      -48.345      154.611      149.651       83.221    23904.526    22395.529     6925.656       11.733        2.661      423.216       83.674        0.039      341.298       15.910      860.955
05/28/2014  21:31:00     -215.596      342.636      -42.685      118.217      178.330       84.296    13975.361    31801.665     7105.880       10.928        2.644      404.822       91.696        0.051      341.257       15.843      860.959
05/28/2014  21:32:00     -230.907      159.040      -35.477      109.946      211.356       69.126    12088.029    44671.371     4778.382        7.069        3.077      280.378       79.758        0.081      341.312       15.934      860.954
05/28/2014  21:33:00     -266.100      326.981      -63.010      140.740      113.667       63.082    19807.735    12920.297     3979.293       10.919        1.835      421.576       67.321        0.026      341.226       15.789      860.965
05/28/2014  21:34:00     -255.700      271.450      -63.054      133.556      167.822       78.824    17837.088    28164.108     6213.266        9.762        2.611      372.918       79.310        0.045      341.246       15.822      860.965
05/28/2014  21:35:00     -270.475      286.774      -51.234      162.518      177.018       97.022    26412.031    31335.492     9413.250       11.258        3.358      394.203       91.592        0.054      341.237       15.807      860.976
05/28/2014  21:36:00     -287.709      360.893      -63.778      122.619      158.866       70.681    15035.404    25238.309     4995.865       13.117        2.263      461.541       68.821        0.022      341.217       15.773      860.961
05/28/2014  21:37:00     -251.983      190.477      -45.190      118.915      112.499       70.809    14140.856    12655.956     5013.972        6.681        1.591      315.875       64.313        0.041      341.235       15.802      860.986
05/28/2014  21:38:00     -168.559      313.326      -25.902      102.660      157.381       61.993    10539.170    24768.922     3843.150        8.320        1.958      355.788       56.933        0.026      341.153       15.665      860.997
05/28/2014  21:39:00     -221.684      303.844      -30.375      134.247      159.124       78.331    18022.173    25320.289     6135.761        9.592        2.474      376.118       69.418        0.034      341.126       15.619      861.014
05/28/2014  21:40:00     -251.141      339.420      -51.143      147.031      145.495       76.879    21618.014    21168.772     5910.436       11.479        2.435      422.230       78.954        0.035      341.094       15.564      861.004
05/28/2014  21:41:00     -242.430      312.967      -37.835      134.081      185.310       74.376    17977.612    34339.710     5531.821       10.799        2.892      395.879       66.426        0.028      341.087       15.554      861.012
05/28/2014  21:42:00     -303.096      273.079      -53.284      178.960      128.244       87.015    32026.837    16446.605     7571.629       11.265        2.802      407.970       98.356        0.058      341.060       15.509      861.020
05/28/2014  21:43:00     -321.664      289.178      -70.653      169.987      154.043       83.935    28895.471    23729.172     7045.023       12.586        2.983      432.541       94.109        0.047      341.040       15.474      861.042
05/28/2014  21:44:00     -273.893      304.095      -56.422      135.667      172.338       91.853    18405.573    29700.345     8436.955       11.360        2.827      409.257       87.385        0.046      341.011       15.425      861.045
05/28/2014  21:45:00     -250.540      316.956      -55.893      130.700      110.720       76.994    17082.521    12258.828     5928.132       10.081        1.763      404.019       65.586        0.026      340.992       15.392      861.075
05/28/2014  21:46:00     -279.464      351.694      -70.168      139.737      137.237       70.953    19526.290    18833.988     5034.380       12.504        2.170      449.209       69.200        0.024      340.965       15.345      861.126
05/28/2014  21:47:00     -256.840      333.837      -51.849      137.053      146.618       66.954    18783.395    21496.778     4482.886       11.242        2.238      421.205       62.467        0.022      340.950       15.321      861.135
05/28/2014  21:48:00     -190.310      273.129      -38.953      147.783      129.913       71.247    21839.867    16877.474     5076.135        7.806        2.190      332.893       85.946        0.067      340.920       15.270      861.122
05/28/2014  21:49:00     -207.134      189.901      -23.209      130.958      183.152       80.596    17150.063    33544.762     6495.674        6.834        2.860      281.010       99.270        0.125      340.948       15.319      861.118
05/28/2014  21:50:00     -113.143      264.971      -28.083      119.054      192.564       67.080    14173.885    37080.883     4499.749        6.977        2.788      288.117       74.502        0.067      340.917       15.267      861.152
05/28/2014  21:51:00     -210.243      300.815      -59.133      139.987      187.976       75.868    19596.294    35334.970     5755.908        9.943        3.034      367.004       68.129        0.034      340.917       15.266      861.190
05/28/2014  21:52:00     -196.252      219.551      -26.069      120.663      109.205       64.258    14559.571    11925.660     4129.132        5.900        1.531      294.478       66.244        0.051      340.921       15.271      861.228
05/28/2014  21:53:00     -200.519      223.489      -47.856       93.428      108.295       60.533     8728.812    11727.875     3664.190        5.828        1.206      300.259       53.188        0.031      340.918       15.266      861.246
05/28/2014  21:54:00     -132.135      238.212      -31.364      107.861      171.847       74.477    11633.902    29531.392     5546.870        6.094        2.336      272.405       95.608        0.123      340.880       15.204      861.263
05/28/2014  21:55:00     -113.728      345.002      -40.362       91.888      119.028       61.899     8443.410    14167.698     3831.444        8.001        1.322      363.264       55.297        0.023      340.843       15.140      861.274
05/28/2014  21:56:00     -158.428      227.265      -28.801      108.430      189.552       61.575    11757.009    35929.984     3791.532        6.452        2.574      277.036       64.620        0.054      340.892       15.222      861.287
05/28/2014  21:57:00     -200.300      268.698      -41.740      116.910      110.964       67.431    13667.884    12313.022     4546.980        7.229        1.526      335.140       67.147        0.040      340.852       15.154      861.331
05/28/2014  21:58:00     -203.729      249.041      -42.645      103.117      101.268       62.194    10633.036    10255.235     3868.123        6.505        1.238      321.756       53.498        0.028      340.827       15.114      861.350
05/28/2014  21:59:00     -123.742      127.284      -22.054       81.956       87.550       46.597     6716.764     7664.973     2171.307        2.427        0.828      177.520       46.181        0.068      340.823       15.109      861.363
05/28/2014  22:00:00      -72.457      245.134      -35.813       83.800      102.971       53.739     7022.449    10603.057     2887.894        4.356        1.026      255.618       57.112        0.050      340.787       15.044      861.358
05/28/2014  22:01:00     -127.707      353.051      -43.767       83.920      157.983       61.683     7042.576    24958.595     3804.843        8.933        1.790      375.439       54.954        0.021      340.734       14.955      861.380
05/28/2014  22:02:00     -144.782      242.405      -30.656       99.894      165.004       67.163     9978.724    27226.284     4510.838        6.118        2.086      282.351       80.645        0.082      340.754       14.991      861.422
05/28/2014  22:03:00     -159.528      284.716      -47.239      114.156      135.654       70.380    13031.664    18402.001     4953.289        7.256        1.819      326.363       77.059        0.056      340.738       14.964      861.450
05/28/2014  22:04:00     -135.753      298.180      -27.181      102.779      141.874       60.041    10563.563    20128.212     3604.905        7.118        1.715      327.628       51.927        0.025      340.716       14.926      861.481
05/28/2014  22:05:00      -93.085      271.473      -26.841      105.147      120.451       61.952    11055.822    14508.392     3838.006        5.624        1.470      286.989       53.420        0.035      340.705       14.907      861.497
05/28/2014  22:06:00     -145.111      266.067      -34.982       85.323      122.564       55.684     7280.064    15021.960     3100.760        5.923        1.270      303.066       60.505        0.040      340.719       14.930      861.509
05/28/2014  22:07:00     -119.642      166.364      -32.476       85.753       95.479       46.832     7353.627     9116.241     2193.199        3.085        0.933      204.918       47.176        0.053      340.749       14.984      861.537
05/28/2014  22:08:00      -95.653      246.389      -29.004       79.759       93.672       44.600     6361.545     8774.428     1989.186        4.391        0.856      264.305       23.632        0.008      340.683       14.869      861.550
05/28/2014  22:09:00      -85.297      161.463      -22.315      106.410       86.475       49.973    11322.989     7477.993     2497.315        2.757        1.065      182.608       45.661        0.063      340.705       14.910      861.565
05/28/2014  22:10:00      -90.758      261.389      -33.535      126.591      149.502       69.418    16025.326    22350.702     4818.872        6.043        2.160      276.697       65.290        0.056      340.688       14.879      861.583
05/28/2014  22:11:00     -143.408      311.435      -28.793      112.126      178.305       72.167    12572.169    31792.812     5208.050        8.397        2.479      342.866       82.364        0.058      340.679       14.863      861.585
05/28/2014  22:12:00     -141.114      279.686      -23.260      100.640      167.008       72.507    10128.456    27891.701     5257.241        7.097        2.164      313.269       84.781        0.073      340.672       14.852      861.599
05/28/2014  22:13:00     -127.195      350.708      -34.302      104.805      178.848       62.532    10984.025    31986.740     3910.250        9.361        2.344      373.062       60.183        0.026      340.649       14.811      861.633
05/28/2014  22:14:00     -124.493      175.953       -2.126       99.070      133.919       64.655     9814.935    17934.310     4180.317        3.919        1.596      215.542       65.486        0.092      340.639       14.797      861.645
05/28/2014  22:15:00     -146.614      215.261      -35.645      131.992      137.737       77.627    17421.868    18971.471     6025.994        5.575        2.121      260.448       67.098        0.066      340.644       14.803      861.668
05/28/2014  22:16:00     -152.813      264.253      -31.810       77.180      108.048       65.892     5956.703    11674.344     4341.784        5.808        1.099      305.256       56.304        0.034      340.586       14.703      861.676
05/28/2014  22:17:00      -93.174      363.315      -44.266      133.979      195.580       77.129    17950.459    38251.364     5948.959       10.238        3.108      375.072       97.891        0.068      340.558       14.659      861.660
05/28/2014  22:18:00     -140.640      366.192      -39.308      114.754      158.117       81.004    13168.486    25001.083     6561.618       10.007        2.237      392.270       78.161        0.040      340.559       14.661      861.673
05/28/2014  22:19:00     -221.435      374.935      -71.400      127.298      152.538       78.944    16204.741    23267.851     6232.203       12.020        2.285      435.442       75.076        0.030      340.611       14.747      861.703
05/28/2014  22:20:00     -168.681      287.979      -31.317      122.307      132.233       76.473    14958.925    17485.672     5848.129        7.532        1.915      333.745       79.234        0.056      340.601       14.730      861.727
05/28/2014  22:21:00     -183.922      295.275      -38.471      152.817      118.308       81.500    23352.984    13996.758     6642.217        8.323        2.200      347.872       87.916        0.064      340.594       14.720      861.745
05/28/2014  22:22:00     -142.839      278.525      -44.804       98.764      171.371       63.175     9754.272    29367.850     3991.135        7.154        2.156      313.016       62.658        0.040      340.575       14.687      861.771
05/28/2014  22:23:00     -161.715      266.472      -46.405       94.541      119.123       58.497     8938.044    14190.377     3421.866        6.293        1.328      311.703       55.083        0.031      340.542       14.631      861.787
05/28/2014  22:24:00      -68.468      258.316      -17.529      104.153      128.967       66.688    10847.843    16632.421     4447.314        5.182        1.596      267.236       56.037        0.044      340.500       14.561      861.774
05/28/2014  22:25:00     -139.135      262.911      -42.656       90.279       97.032       61.886     8150.319     9415.257     3829.817        5.584        1.070      297.458       48.351        0.026      340.469       14.508      861.798
05/28/2014  22:26:00      -85.399      246.737      -38.249       89.045       94.676       44.685     7929.084     8963.455     1996.736        4.426        0.944      261.098       38.276        0.021      340.462       14.494      861.818
05/28/2014  22:27:00      -76.393      283.211      -47.331       97.452      124.058       48.555     9496.882    15390.387     2357.559        5.776        1.362      293.333       32.284        0.012      340.432       14.445      861.832
05/28/2014  22:28:00     -217.131      192.081      -46.830       89.659      101.564       55.331     8038.733    10315.146     3061.523        5.382        1.071      289.898       37.871        0.017      340.504       14.567      861.855
05/28/2014  22:29:00      -69.285      181.903       -9.334       54.436       97.162       45.017     2963.324     9440.368     2026.488        2.620        0.722      194.651       45.002        0.053      340.452       14.481      861.882
05/28/2014  22:30:00     -164.390      237.295      -31.911      136.179      135.163       58.479    18544.607    18268.952     3419.765        6.228        2.012      288.675       67.867        0.055      340.466       14.503      861.901
05/28/2014  22:31:00     -117.977      310.489      -37.183       97.726      108.251       56.430     9550.375    11718.323     3184.290        6.807        1.223      332.148       57.307        0.030      340.425       14.435      861.922
05/28/2014  22:32:00     -118.621      361.997      -33.998       94.007      156.858       68.433     8837.288    24604.432     4683.054        9.219        1.906      380.937       85.284        0.050      340.411       14.409      861.906
05/28/2014  22:33:00     -141.850      214.681      -20.460       85.449      118.786       67.269     7301.570    14110.037     4525.181        4.628        1.297      257.312       64.795        0.063      340.454       14.482      861.911
05/28/2014  22:34:00      -97.037      299.978      -37.530      107.389      157.705       58.457    11532.405    24870.927     3417.171        7.031        1.991      315.282       67.755        0.046      340.443       14.464      861.926
05/28/2014  22:35:00     -131.628      116.683      -16.723      119.774      111.369       58.856    14345.785    12403.035     3464.025        3.071        1.511      175.900       61.621        0.123      340.479       14.526      861.932
05/28/2014  22:36:00      -73.042      186.409       -5.276       94.177      104.641       57.188     8869.371    10949.771     3270.460        3.160        1.154      200.209       66.851        0.111      340.425       14.434      861.929
05/28/2014  22:37:00     -128.402      266.585      -41.086       78.421       86.886       60.826     6149.836     7549.139     3699.809        5.332        0.870      295.896       57.895        0.038      340.412       14.411      861.941
05/28/2014  22:38:00     -153.132      244.966      -39.898       78.167      101.896       43.985     6110.006    10382.725     1934.676        5.173        0.921      288.890       40.675        0.020      340.424       14.431      861.970
05/28/2014  22:39:00     -117.851      165.913      -36.270       74.430       90.040       45.354     5539.755     8107.243     2056.990        2.921        0.785      203.509       44.859        0.049      340.400       14.392      861.975
05/28/2014  22:40:00      -90.829      247.176      -37.434       55.322      106.966       46.868     3060.507    11441.676     2196.639        4.372        0.835      263.337       55.333        0.044      340.388       14.371      861.996
05/28/2014  22:41:00      -38.725      183.544      -17.540       59.083       65.119       33.772     3490.777     4240.441     1140.559        2.218        0.444      187.585       22.849        0.015      340.362       14.329      862.019
05/28/2014  22:42:00      -20.782      212.152      -20.329       58.910      101.392       46.353     3470.354    10280.413     2148.606        3.087        0.795      213.167       46.398        0.047      340.341       14.292      862.023
05/28/2014  22:43:00      -36.369      149.197      -11.345       38.911       51.480       36.403     1514.067     2650.219     1325.203        1.460        0.274      153.566       31.970        0.043      340.346       14.303      862.020
05/28/2014  22:44:00      -61.075      263.386      -51.077      119.979       92.203       35.339    14395.014     8501.413     1248.841        4.992        1.207      270.375       45.329        0.028      340.315       14.247      862.031
05/28/2014  22:45:00       -1.945      174.384      -28.079       65.708       86.289       37.207     4317.520     7445.743     1384.357        2.217        0.657      174.395       36.927        0.045      340.286       14.198      862.029
05/28/2014  22:46:00      -63.608       78.616        6.804       63.612       68.761       35.213     4046.519     4728.126     1239.927        1.014        0.501      101.126       34.941        0.119      340.371       14.345      862.026
05/28/2014  22:47:00       44.173      187.184      -10.229       83.195       64.438       44.917     6921.404     4152.194     2017.553        2.509        0.655      192.325       39.044        0.041      340.264       14.163      862.039
05/28/2014  22:48:00     -106.300      297.676      -48.673       76.645      116.349       43.037     5874.508    13537.082     1852.177        6.177        1.063      316.087       41.095        0.017      340.322       14.260      862.064
05/28/2014  22:49:00      -54.373      231.541      -35.176       70.798       95.004       45.143     5012.288     9025.718     2037.911        3.694        0.804      237.839       30.655        0.017      340.274       14.178      862.072
05/28/2014  22:50:00       17.576      298.132       -9.901      126.958      147.950      101.983    16118.436    21889.269    10400.602        6.884        2.420      298.650      112.055        0.141      340.302       14.227      862.081
05/28/2014  22:51:00      -25.104      207.025      -17.316       81.722       81.590       47.618     6678.488     6656.892     2267.433        2.969        0.780      208.542       44.530        0.046      340.250       14.139      862.100
05/28/2014  22:52:00       16.480      251.225      -27.363       90.534       98.286       50.981     8196.431     9660.163     2599.093        4.229        1.023      251.765       50.275        0.040      340.270       14.171      862.114
05/28/2014  22:53:00        6.235      240.061      -25.066       88.148      105.317       54.795     7770.144    11091.593     3002.532        4.008        1.093      240.142       57.439        0.057      340.266       14.165      862.127
05/28/2014  22:54:00      -33.341      321.221      -42.112       82.870       85.231       45.014     6867.483     7264.395     2026.252        6.111        0.808      322.947       45.593        0.020      340.296       14.215      862.134
05/28/2014  22:55:00      -48.515      214.871      -31.943       96.035      111.781       46.118     9222.733    12495.083     2126.840        3.669        1.192      220.280       61.578        0.078      340.249       14.136      862.154
05/28/2014  22:56:00      -16.818      230.777      -29.985       78.301       79.310       47.334     6131.065     6290.088     2240.505        3.455        0.733      231.389       40.705        0.031      340.259       14.153      862.187
05/28/2014  22:57:00      -46.096      283.879      -43.980       71.497       69.570       44.038     5111.792     4839.995     1939.362        4.827        0.595      287.597       32.790        0.013      340.238       14.115      862.211
05/28/2014  22:58:00        6.422      191.267      -38.308       61.592       56.558       32.611     3793.540     3198.770     1063.452        2.307        0.403      191.375       28.793        0.023      340.223       14.093      862.226
05/28/2014  22:59:00       -8.294      213.571      -32.558       41.865       54.179       24.961     1752.652     2935.338      623.076        2.603        0.266      213.732       15.291        0.005      340.210       14.071      862.247
05/28/2014  23:00:00       -8.054      231.558      -36.596       59.265       71.544       33.411     3512.307     5118.582     1116.296        3.238        0.487      231.698       24.129        0.011      340.234       14.109      862.272
05/28/2014  23:01:00       37.534      211.461      -34.962       56.978      101.369       38.257     3246.474    10275.633     1463.592        3.116        0.749      214.766       44.996        0.044      340.206       14.063      862.278
05/28/2014  23:02:00       -0.573      165.685      -27.040       48.198       42.977       26.175     2323.009     1846.995      685.156        1.652        0.243      165.686       21.874        0.017      340.166       13.998      862.286
05/28/2014  23:03:00       27.579       92.320       -9.189       50.408       34.858       26.716     2540.941     1215.087      713.723        0.692        0.223       96.352       24.335        0.064      340.108       13.901      862.288
05/28/2014  23:04:00       34.396       77.760       -6.985       47.819       54.506       31.497     2286.680     2970.938      992.035        0.676        0.312       85.027       32.063        0.142      340.072       13.841      862.300
05/28/2014  23:05:00       24.664      114.110      -13.511       53.073       32.892       31.103     2816.716     1081.902      967.405        0.934        0.243      116.745       20.298        0.030      340.089       13.869      862.301
05/28/2014  23:06:00       44.425      133.184      -24.028       49.314       62.766       28.826     2431.840     3939.599      830.952        1.374        0.360      140.398       28.907        0.042      340.049       13.800      862.306
05/28/2014  23:07:00       59.754       33.888       -8.452       30.966       36.003       23.088      958.919     1296.248      533.072        0.379        0.139       68.694       14.827        0.047      339.976       13.678      862.311
05/28/2014  23:08:00       30.606       67.377       -3.332       32.103       38.518       23.529     1030.573     1483.630      553.596        0.428        0.153       74.002       21.577        0.085      339.992       13.705      862.323
05/28/2014  23:09:00       50.397       77.975      -13.531       29.196       33.329       21.059      852.389     1110.842      443.463        0.560        0.120       92.844        9.888        0.011      340.029       13.768      862.321
05/28/2014  23:10:00       57.795       28.167        3.139       20.549       18.499       20.214      422.257      342.201      408.614        0.266        0.059       64.293       12.729        0.039      339.885       13.524      862.323
05/28/2014  23:11:00       31.441        8.455       13.965       27.349       18.746       16.274      747.995      351.415      264.852        0.131        0.068       32.558       13.994        0.185      339.614       13.068      862.337
05/28/2014  23:12:00       33.625        5.470       24.062       36.077       23.304       22.026     1301.566      543.066      485.162        0.203        0.116       34.067       19.599        0.331      339.425       12.749      862.362
05/28/2014  23:13:00       66.076       45.264        4.367       46.955       41.003       28.542     2204.774     1681.228      814.670        0.557        0.235       80.092       23.242        0.084      339.601       13.045      862.385
05/28/2014  23:14:00       27.687       43.362        2.064       39.761       48.271       22.037     1580.965     2330.086      485.632        0.352        0.220       51.448       21.478        0.174      339.684       13.186      862.404
05/28/2014  23:15:00       31.756       46.205      -19.613       43.658       38.930       18.959     1905.996     1515.532      359.452        0.365        0.189       56.065       22.811        0.166      339.724       13.254      862.407
05/28/2014  23:16:00       27.809       49.864        0.959       34.476       28.878       25.703     1188.624      833.930      660.621        0.297        0.134       57.094       18.752        0.108      339.714       13.235      862.414
05/28/2014  23:17:00       28.383       72.707      -11.507       28.302       30.870       20.991      801.009      952.954      440.603        0.421        0.110       78.051       18.433        0.056      339.747       13.292      862.433
05/28/2014  23:18:00       40.059       70.394       -1.497       33.394       43.719       25.331     1115.149     1911.334      641.666        0.511        0.183       80.994       23.003        0.081      339.707       13.225      862.441
05/28/2014  23:19:00       45.460       80.494      -13.998       32.623       33.683       24.778     1064.237     1134.572      613.938        0.578        0.141       92.444       22.759        0.061      339.696       13.205      862.447
05/28/2014  23:20:00       45.956       83.114       -7.869       42.135       54.796       25.416     1775.368     3002.556      645.972        0.725        0.271       94.973       28.527        0.090      339.720       13.248      862.454
05/28/2014  23:21:00       45.450      105.158      -11.848       47.795       68.820       35.580     2284.341     4736.186     1265.920        1.077        0.414      114.559       38.503        0.113      339.761       13.317      862.457
05/28/2014  23:22:00       45.828       95.690      -10.056       38.937       73.375       37.638     1516.063     5383.855     1416.634        0.984        0.416      106.098       47.208        0.198      339.760       13.314      862.464
05/28/2014  23:23:00       20.686      128.877      -27.743       29.741       49.455       24.240      884.553     2445.843      587.585        1.086        0.196      130.527       25.203        0.037      339.756       13.307      862.476
05/28/2014  23:24:00        2.114      144.822      -25.498       56.290       46.088       22.952     3168.576     2124.066      526.812        1.372        0.291      144.837       28.053        0.038      339.840       13.449      862.477
05/28/2014  23:25:00       19.060      149.728      -29.678       32.386       48.853       14.679     1048.842     2386.567      215.468        1.366        0.183      150.936       22.667        0.023      339.750       13.297      862.478
05/28/2014  23:26:00       30.140      179.265      -35.316       32.688       36.632       19.586     1068.487     1341.938      383.630        1.854        0.140      181.781       17.945        0.010      339.800       13.382      862.483
05/28/2014  23:27:00       -5.733      159.984      -22.186       44.814       49.416       27.428     2008.255     2441.964      752.286        1.566        0.260      160.087       30.697        0.037      339.771       13.332      862.495
05/28/2014  23:28:00      -16.898      125.380      -21.102       35.654       34.666       20.327     1271.196     1201.735      413.206        0.967        0.144      126.514       18.743        0.022      339.788       13.362      862.509
05/28/2014  23:29:00      -51.323      150.109      -20.442       60.602       47.583       31.595     3672.636     2264.174      998.244        1.626        0.347      158.640       28.974        0.033      339.829       13.430      862.526
05/28/2014  23:30:00      -30.350      121.060      -28.144       49.709       33.079       17.783     2470.979     1094.234      316.241        1.012        0.194      124.806       15.076        0.015      339.836       13.442      862.527
05/28/2014  23:31:00      -67.350      188.768      -26.625       52.700       63.228       27.029     2777.319     3997.722      730.587        2.419        0.375      200.423       24.794        0.015      339.794       13.371      862.530
05/28/2014  23:32:00      -61.083      151.290      -16.008       44.532       71.352       49.618     1983.079     5091.148     2461.918        1.820        0.477      163.156       29.830        0.033      339.830       13.430      862.534
05/28/2014  23:33:00        5.581      188.698      -23.688       46.175       41.799       23.833     2132.172     1747.197      568.013        2.032        0.222      188.780       20.707        0.012      339.754       13.304      862.541
05/28/2014  23:34:00      -24.052      180.759      -31.735       37.070       54.923       17.917     1374.165     3016.487      321.004        1.948        0.236      182.352       20.447        0.013      339.734       13.270      862.552
05/28/2014  23:35:00      -34.982      241.192      -38.375       45.926       60.962       24.042     2109.199     3716.318      578.006        3.364        0.320      243.716       19.912        0.007      339.723       13.249      862.563
05/28/2014  23:36:00     -133.869      137.040      -36.446       56.274       54.870       34.358     3166.711     3010.696     1180.439        2.269        0.368      191.575       34.609        0.033      339.736       13.271      862.576
05/28/2014  23:37:00      -81.289       68.386      -18.426       38.683       34.865       27.732     1496.398     1215.603      769.074        0.755        0.174      106.229       26.846        0.064      339.743       13.285      862.569
05/28/2014  23:38:00      -58.693       44.083        2.292       41.788       35.289       21.664     1746.226     1245.289      469.315        0.443        0.173       73.404       23.997        0.107      339.739       13.279      862.558
05/28/2014  23:39:00      -61.800       34.415       -6.782       40.153       62.572       30.789     1612.270     3915.311      947.974        0.576        0.324       70.736       27.301        0.149      339.686       13.190      862.560
05/28/2014  23:40:00     -127.608      100.869      -25.007       53.922       43.333       27.471     2907.600     1877.775      754.683        1.631        0.277      162.660       27.186        0.028      339.717       13.240      862.564
05/28/2014  23:41:00     -139.617      156.552      -37.801       59.038       54.444       35.477     3485.526     2964.145     1258.619        2.657        0.385      209.765       31.357        0.022      339.666       13.152      862.554
05/28/2014  23:42:00      -97.776      138.948      -28.483       49.991       65.672       35.247     2499.054     4312.841     1242.375        1.886        0.403      169.902       38.254        0.051      339.659       13.142      862.547
05/28/2014  23:43:00     -136.955      118.216      -25.958       47.062       51.413       28.734     2214.839     2643.261      825.638        1.954        0.284      180.919       24.507        0.018      339.675       13.169      862.539
05/28/2014  23:44:00     -143.602       77.147      -24.079       82.619       41.138       31.923     6825.881     1692.325     1019.053        1.834        0.477      163.013       34.319        0.044      339.661       13.146      862.543
05/28/2014  23:45:00     -136.341      110.982      -25.411       58.302       56.630       33.770     3399.108     3206.964     1140.400        1.965        0.387      175.800       39.462        0.050      339.674       13.167      862.550
05/28/2014  23:46:00     -126.099      159.398      -40.565       47.892       48.937       27.028     2293.613     2394.872      730.498        2.419        0.271      203.246       28.863        0.020      339.595       13.035      862.558
05/28/2014  23:47:00     -135.457      160.720      -40.449       48.551       65.550       32.360     2357.247     4296.811     1047.189        2.676        0.385      210.189       24.898        0.014      339.608       13.056      862.571
05/28/2014  23:48:00      -82.421      120.695      -16.990       89.561       83.476       44.921     8021.125     6968.248     2017.898        1.932        0.850      146.153       46.453        0.101      339.572       12.996      862.588
05/28/2014  23:49:00      -81.095      183.763      -26.979       53.380       76.902       35.234     2849.383     5913.911     1241.452        2.554        0.500      200.861       29.054        0.021      339.524       12.913      862.617
05/28/2014  23:50:00       -3.572      212.544      -24.875       49.106       92.352       31.904     2411.413     8528.890     1017.871        2.888        0.598      212.574       38.659        0.033      339.508       12.885      862.632
05/28/2014  23:51:00      -37.190      285.107      -44.117       38.261       50.464       25.264     1463.897     2546.640      638.264        4.463        0.232      287.522       24.422        0.007      339.492       12.856      862.648
05/28/2014  23:52:00      -82.138      124.363      -25.604       45.389       54.111       35.184     2060.132     2928.012     1237.889        1.455        0.311      149.040       35.311        0.056      339.551       12.962      862.660
05/28/2014  23:53:00      -63.326      129.281      -22.349       41.614       41.146       30.090     1731.706     1692.981      905.428        1.278        0.217      143.957       24.983        0.030      339.542       12.946      862.672
05/28/2014  23:54:00      -75.489      138.150      -27.267       44.960       60.477       33.568     2021.419     3657.519     1126.805        1.617        0.340      157.429       29.306        0.035      339.479       12.840      862.680
05/28/2014  23:55:00     -118.693      225.827      -42.274       89.944       85.724       40.579     8089.921     7348.576     1646.671        4.198        0.854      255.119       36.629        0.021      339.476       12.832      862.673
05/28/2014  23:56:00     -110.625      129.741      -26.117       50.950       67.937       31.456     2595.910     4615.453      989.486        1.898        0.410      170.501       15.216        0.008      339.481       12.842      862.672
05/28/2014  23:57:00     -121.773       49.202      -18.933       69.388       72.595       38.177     4814.666     5270.093     1457.499        1.457        0.577      131.338       36.321        0.076      339.499       12.874      862.675
05/28/2014  23:58:00     -125.740       95.786      -16.169       75.843       68.129       44.906     5752.154     4641.601     2016.520        1.883        0.621      158.068       47.952        0.092      339.424       12.747      862.679
05/28/2014  23:59:00     -116.467      129.629      -27.063       42.987       71.399       38.416     1847.920     5097.881     1475.754        1.976        0.421      174.265       37.508        0.046      339.430       12.756      862.676
